[[{"header":{"parameterUnit":"m.s-1","parameterCategory":1,"la1":30.6,"la2":28.766,"lo1":-90.7593,"lo2":-88.6598,"dy":0.0162,"dx":0.0183,"nx":116,"ny":114,"refTime":"2023-04-19T06:00:00:Z","depth":0,"parameterNumber":2,"parameterNumberName":"U-component_of_WINDS"},"data":[0.0,0.0,0.0,0.0,0.0,0.0,0.0,0.0,0.0,0.0,0.0,0.0,0.0,0.0,0.0,0.0,0.0,0.0,0.0,0.0,0.0,0.0,0.0,0.0,0.0,0.0,0.0,0.0,0.0,0.0,0.0,0.0,0.0,0.0,0.0,0.0,0.0,0.0,0.0,0.0,0.0,0.0,0.0,0.0,0.0,0.0,0.0,0.0,0.0,0.0,0.0,0.0,0.0,0.0,0.0,0.0,0.0,0.0,0.0,0.0,0.0,0.0,0.0,0.0,0.0,0.0,0.0,0.0,0.0,0.0,0.0,0.0,0.0,0.0,0.0,0.0,0.0,0.0,0.0,0.0,0.0,0.0,0.0,0.0,0.0,0.0,0.0,0.0,0.0,0.0,0.0,0.0,0.0,0.0,0.0,0.0,0.0,0.0,0.0,0.0,0.0,0.0,0.0,0.0,0.0,0.0,0.0,0.0,0.0,0.0,0.0,0.0,0.0,0.0,0.0,0.0,0.0,0.0,0.0,0.0,0.0,0.0,0.0,0.0,0.0,0.0,0.0,0.0,0.0,0.0,0.0,0.0,0.0,0.0,0.0,0.0,0.0,0.0,0.0,0.0,0.0,0.0,0.0,0.0,0.0,0.0,0.0,0.0,0.0,0.0,0.0,0.0,0.0,0.0,0.0,0.0,0.0,0.0,0.0,0.0,0.0,0.0,0.0,0.0,0.0,0.0,0.0,0.0,0.0,0.0,0.0,0.0,0.0,0.0,0.0,0.0,0.0,0.0,0.0,0.0,0.0,0.0,0.0,0.0,0.0,0.0,0.0,0.0,0.0,0.0,0.0,0.0,0.0,0.0,0.0,0.0,0.0,0.0,0.0,0.0,0.0,0.0,0.0,0.0,0.0,0.0,0.0,0.0,0.0,0.0,0.0,0.0,0.0,0.0,0.0,0.0,0.0,0.0,0.0,0.0,0.0,0.0,0.0,0.0,0.0,0.0,0.0,0.0,0.0,0.0,0.0,0.0,0.0,0.0,0.0,0.0,0.0,0.0,0.0,0.0,0.0,0.0,0.0,0.0,0.0,0.0,0.0,0.0,0.0,0.0,0.0,0.0,0.0,0.0,0.0,0.0,0.0,0.0,0.0,0.0,0.0,0.0,0.0,0.0,0.0,0.0,0.0,0.0,0.0,0.0,0.0,0.0,0.0,0.0,0.0,0.0,0.0,0.0,0.0,0.0,0.0,0.0,0.0,0.0,0.0,0.0,0.0,0.0,0.0,0.0,0.0,0.0,0.0,0.0,0.0,0.0,0.0,0.0,0.0,0.0,0.0,0.0,0.0,0.0,0.0,0.0,0.0,0.0,0.0,0.0,0.0,0.0,0.0,0.0,0.0,0.0,0.0,0.0,0.0,0.0,0.0,0.0,0.0,0.0,0.0,0.0,0.0,0.0,0.0,0.0,0.0,0.0,0.0,0.0,0.0,0.0,0.0,0.0,0.0,0.0,0.0,0.0,0.0,0.0,0.0,0.0,0.0,0.0,0.0,0.0,0.0,0.0,0.0,0.0,0.0,0.0,0.0,0.0,0.0,0.0,0.0,0.0,0.0,0.0,0.0,0.0,0.0,0.0,0.0,0.0,0.0,0.0,0.0,0.0,0.0,0.0,0.0,0.0,0.0,0.0,0.0,0.0,0.0,0.0,0.0,0.0,0.0,0.0,0.0,0.0,0.0,0.0,0.0,0.0,0.0,0.0,0.0,0.0,0.0,0.0,0.0,0.0,0.0,0.0,0.0,0.0,0.0,0.0,0.0,0.0,0.0,0.0,0.0,0.0,0.0,0.0,0.0,0.0,0.0,0.0,0.0,0.0,0.0,0.0,0.0,0.0,0.0,0.0,0.0,0.0,0.0,0.0,0.0,0.0,0.0,0.0,0.0,0.0,0.0,0.0,0.0,0.0,0.0,0.0,0.0,0.0,0.0,0.0,0.0,0.0,0.0,0.0,0.0,0.0,0.0,0.0,0.0,0.0,0.0,0.0,0.0,0.0,0.0,0.0,0.0,0.0,0.0,0.0,0.0,0.0,0.0,0.0,0.0,0.0,0.0,0.0,0.0,0.0,0.0,0.0,0.0,0.0,0.0,0.0,0.0,0.0,0.0,0.0,0.0,0.0,0.0,0.0,0.0,0.0,0.0,0.0,0.0,0.0,0.0,0.0,0.0,0.0,0.0,0.0,0.0,0.0,0.0,0.0,0.0,0.0,0.0,0.0,0.0,0.0,0.0,0.0,0.0,0.0,0.0,0.0,0.0,0.0,0.0,0.0,0.0,0.0,0.0,0.0,0.0,0.0,0.0,0.0,0.0,0.0,0.0,0.0,0.0,0.0,0.0,0.0,0.0,0.0,0.0,0.0,0.0,0.0,0.0,0.0,0.0,0.0,0.0,0.0,0.0,0.0,0.0,0.0,0.0,0.0,0.0,0.0,0.0,0.0,0.0,0.0,0.0,0.0,0.0,0.0,0.0,0.0,0.0,0.0,0.0,0.0,0.0,0.0,0.0,0.0,0.0,0.0,0.0,0.0,0.0,0.0,0.0,0.0,0.0,0.0,0.0,0.0,0.0,0.0,0.0,0.0,0.0,0.0,0.0,0.0,0.0,0.0,0.0,0.0,0.0,0.0,0.0,0.0,0.0,0.0,0.0,0.0,0.0,0.0,0.0,0.0,0.0,0.0,0.0,0.0,0.0,0.0,0.0,0.0,0.0,0.0,0.0,0.0,0.0,0.0,0.0,0.0,0.0,0.0,0.0,0.0,0.0,0.0,0.0,0.0,0.0,0.0,0.0,0.0,0.0,0.0,0.0,0.0,0.0,0.0,0.0,0.0,0.0,0.0,0.0,0.0,0.0,0.0,0.0,0.0,0.0,0.0,0.0,0.0,0.0,0.0,0.0,0.0,0.0,0.0,0.0,0.0,0.0,0.0,0.0,0.0,0.0,0.0,0.0,0.0,0.0,0.0,0.0,0.0,0.0,0.0,0.0,0.0,0.0,0.0,0.0,0.0,0.0,0.0,0.0,0.0,0.0,0.0,0.0,0.0,0.0,0.0,0.0,0.0,0.0,0.0,0.0,0.0,0.0,0.0,0.0,0.0,0.0,0.0,0.0,0.0,0.0,0.0,0.0,0.0,0.0,0.0,0.0,0.0,0.0,0.0,0.0,0.0,0.0,0.0,0.0,0.0,0.0,0.0,0.0,0.0,0.0,0.0,0.0,0.0,0.0,0.0,0.0,0.0,0.0,0.0,0.0,0.0,0.0,0.0,0.0,0.0,0.0,0.0,0.0,0.0,0.0,0.0,0.0,0.0,0.0,0.0,0.0,0.0,0.0,0.0,0.0,0.0,0.0,0.0,0.0,0.0,0.0,0.0,0.0,0.0,0.0,0.0,0.0,0.0,0.0,0.0,0.0,0.0,0.0,0.0,0.0,0.0,0.0,0.0,0.0,0.0,0.0,0.0,0.0,0.0,0.0,0.0,0.0,0.0,0.0,0.0,0.0,0.0,0.0,0.0,0.0,0.0,0.0,0.0,0.0,0.0,0.0,0.0,0.0,0.0,0.0,0.0,0.0,0.0,0.0,0.0,0.0,0.0,0.0,0.0,0.0,0.0,0.0,0.0,0.0,0.0,0.0,0.0,0.0,0.0,0.0,0.0,0.0,0.0,0.0,0.0,0.0,0.0,0.0,0.0,0.0,0.0,0.0,0.0,0.0,0.0,0.0,0.0,0.0,0.0,0.0,0.0,0.0,0.0,0.0,0.0,0.0,0.0,0.0,0.0,0.0,0.0,0.0,0.0,0.0,0.0,0.0,0.0,0.0,0.0,0.0,0.0,0.0,0.0,0.0,0.0,0.0,0.0,0.0,0.0,0.0,0.0,0.0,0.0,0.0,0.0,0.0,0.0,0.0,0.0,0.0,0.0,0.0,0.0,0.0,0.0,0.0,0.0,0.0,0.0,0.0,0.0,0.0,0.0,0.0,0.0,0.0,0.0,0.0,0.0,0.0,0.0,0.0,0.0,0.0,0.0,0.0,0.0,0.0,0.0,0.0,0.0,0.0,0.0,0.0,0.0,0.0,0.0,0.0,0.0,0.0,0.0,0.0,0.0,0.0,0.0,0.0,0.0,0.0,0.0,0.0,0.0,0.0,0.0,0.0,0.0,0.0,0.0,0.0,0.0,0.0,0.0,0.0,0.0,0.0,0.0,0.0,0.0,0.0,0.0,0.0,0.0,0.0,0.0,0.0,0.0,0.0,0.0,0.0,0.0,0.0,0.0,0.0,0.0,0.0,0.0,0.0,0.0,0.0,0.0,0.0,0.0,0.0,0.0,0.0,0.0,0.0,0.0,0.0,0.0,0.0,0.0,0.0,0.0,0.0,0.0,0.0,0.0,0.0,0.0,0.0,0.0,0.0,0.0,0.0,0.0,0.0,0.0,0.0,0.0,0.0,0.0,0.0,0.0,0.0,0.0,0.0,0.0,0.0,0.0,0.0,0.0,0.0,0.0,0.0,0.0,0.0,0.0,0.0,0.0,0.0,0.0,0.0,0.0,0.0,0.0,0.0,0.0,0.0,0.0,0.0,0.0,0.0,0.0,0.0,0.0,0.0,0.0,0.0,0.0,0.0,0.0,0.0,0.0,0.0,0.0,0.0,0.0,0.0,0.0,0.0,0.0,0.0,0.0,0.0,0.0,0.0,0.0,0.0,0.0,0.0,0.0,0.0,0.0,0.0,0.0,0.0,0.0,0.0,0.0,0.0,0.0,0.0,0.0,0.0,0.0,0.0,0.0,0.0,0.0,0.0,0.0,0.0,0.0,0.0,0.0,0.0,0.0,0.0,0.0,0.0,0.0,0.0,0.0,0.0,0.0,0.0,0.0,0.0,0.0,0.0,0.0,0.0,0.0,0.0,0.0,0.0,0.0,0.0,0.0,0.0,0.0,0.0,0.0,0.0,0.0,0.0,0.0,0.0,0.0,0.0,0.0,0.0,0.0,0.0,0.0,0.0,0.0,0.0,0.0,0.0,0.0,0.0,0.0,0.0,0.0,0.0,0.0,0.0,0.0,0.0,0.0,0.0,0.0,0.0,0.0,0.0,0.0,0.0,0.0,0.0,0.0,0.0,0.0,0.0,0.0,0.0,0.0,0.0,0.0,0.0,0.0,0.0,0.0,0.0,0.0,0.0,0.0,0.0,0.0,0.0,0.0,0.0,0.0,0.0,0.0,0.0,0.0,0.0,0.0,0.0,0.0,0.0,0.0,0.0,0.0,0.0,0.0,0.0,0.0,0.0,0.0,0.0,0.0,0.0,0.0,0.0,0.0,0.0,0.0,0.0,0.0,0.0,0.0,0.0,0.0,0.0,0.0,0.0,0.0,0.0,0.0,0.0,0.0,0.0,0.0,0.0,0.0,0.0,0.0,0.0,0.0,0.0,0.0,0.0,0.0,0.0,0.0,0.0,0.0,0.0,0.0,0.0,0.0,0.0,0.0,0.0,0.0,0.0,0.0,0.0,0.0,0.0,0.0,0.0,0.0,0.0,0.0,0.0,0.0,0.0,0.0,0.0,0.0,0.0,0.0,0.0,0.0,0.0,0.0,0.0,0.0,0.0,0.0,0.0,0.0,0.0,0.0,0.0,0.0,0.0,0.0,0.0,0.0,0.0,0.0,0.0,0.0,0.0,0.0,0.0,0.0,0.0,0.0,0.0,0.0,0.0,0.0,0.0,0.0,0.0,0.0,0.0,0.0,0.0,0.0,0.0,0.0,0.0,0.0,0.0,0.0,0.0,0.0,0.0,0.0,0.0,0.0,0.0,0.0,0.0,0.0,0.0,0.0,0.0,0.0,0.0,0.0,0.0,0.0,0.0,0.0,0.0,0.0,0.0,0.0,0.0,0.0,0.0,0.0,0.0,0.0,0.0,0.0,0.0,0.0,0.0,0.0,0.0,0.0,0.0,0.0,0.0,0.0,0.0,0.0,0.0,0.0,0.0,0.0,0.0,0.0,0.0,0.0,0.0,0.0,0.0,0.0,0.0,0.0,0.0,0.0,0.0,0.0,0.0,0.0,-2.9195,0.0,0.0,0.0,0.0,0.0,0.0,0.0,0.0,0.0,0.0,0.0,0.0,0.0,0.0,0.0,0.0,0.0,0.0,0.0,0.0,0.0,0.0,0.0,0.0,0.0,0.0,0.0,0.0,0.0,0.0,0.0,0.0,0.0,0.0,0.0,0.0,0.0,0.0,-3.9189,-3.9189,-3.9363,-3.9654,-4.0234,-3.9683,-3.8202,0.0,0.0,0.0,0.0,0.0,0.0,0.0,0.0,0.0,0.0,0.0,0.0,0.0,0.0,0.0,0.0,0.0,0.0,0.0,0.0,0.0,0.0,0.0,0.0,0.0,0.0,0.0,0.0,0.0,0.0,0.0,0.0,0.0,0.0,0.0,0.0,0.0,0.0,0.0,0.0,0.0,0.0,0.0,0.0,0.0,0.0,0.0,0.0,0.0,0.0,0.0,0.0,0.0,0.0,0.0,0.0,0.0,0.0,0.0,0.0,0.0,0.0,0.0,0.0,0.0,0.0,0.0,0.0,0.0,0.0,0.0,-3.0601,0.0,0.0,0.0,0.0,0.0,0.0,0.0,0.0,0.0,0.0,0.0,0.0,0.0,0.0,0.0,0.0,0.0,0.0,0.0,0.0,0.0,0.0,0.0,-3.5717,-3.564,-3.5322,-3.5272,-3.5103,0.0,0.0,0.0,0.0,0.0,0.0,0.0,-3.9131,-3.9189,-3.9189,-3.977,-4.0525,-4.1482,-4.3195,-4.2586,-4.0031,-3.9683,0.0,0.0,0.0,0.0,0.0,0.0,0.0,0.0,0.0,0.0,0.0,0.0,0.0,0.0,0.0,0.0,0.0,0.0,0.0,0.0,0.0,0.0,0.0,0.0,0.0,0.0,0.0,0.0,0.0,0.0,0.0,0.0,0.0,0.0,0.0,0.0,0.0,0.0,0.0,0.0,0.0,0.0,0.0,0.0,0.0,0.0,0.0,0.0,0.0,0.0,0.0,0.0,0.0,0.0,0.0,0.0,0.0,0.0,0.0,0.0,0.0,0.0,0.0,-3.8928,-3.945,-3.9857,-3.9857,-3.9305,-3.8173,-3.6201,-3.4126,-3.2222,-3.2394,0.0,0.0,0.0,0.0,0.0,0.0,0.0,0.0,0.0,0.0,0.0,0.0,0.0,0.0,0.0,0.0,0.0,0.0,0.0,0.0,0.0,-3.7345,-3.766,-3.6882,-3.7216,-3.7157,-3.6359,0.0,0.0,0.0,0.0,0.0,-3.8347,-3.8899,-3.9189,-3.9189,-4.2005,-4.4531,-4.6795,-4.7579,-4.7753,-4.7143,-4.2789,-4.1395,-4.2208,0.0,0.0,0.0,0.0,0.0,0.0,0.0,0.0,0.0,0.0,0.0,0.0,0.0,0.0,0.0,0.0,0.0,0.0,0.0,0.0,0.0,0.0,0.0,0.0,0.0,0.0,0.0,0.0,0.0,0.0,0.0,0.0,0.0,0.0,0.0,0.0,0.0,0.0,0.0,0.0,0.0,-3.3339,-3.3407,0.0,0.0,0.0,0.0,0.0,0.0,0.0,0.0,0.0,0.0,0.0,0.0,0.0,-3.9305,-4.1076,-4.1686,-4.2063,-4.2237,-4.2905,-4.2963,-4.2498,-4.2498,-4.2411,-4.2237,-4.193,0.0,-3.4782,-3.318,0.0,0.0,0.0,0.0,0.0,0.0,0.0,0.0,0.0,0.0,0.0,0.0,0.0,0.0,0.0,0.0,0.0,0.0,0.0,0.0,0.0,-3.7972,-3.8299,-3.7576,-3.9199,-3.9332,-3.7121,-3.8763,0.0,0.0,0.0,-3.8667,-3.8754,-3.9044,-4.0263,-4.2382,-4.633,-4.903,-5.056,-5.1846,-5.2107,-5.1323,-4.9059,-4.6388,-4.3427,-4.1599,0.0,0.0,0.0,0.0,0.0,0.0,0.0,0.0,0.0,0.0,0.0,0.0,0.0,0.0,0.0,0.0,0.0,0.0,0.0,0.0,0.0,0.0,0.0,0.0,0.0,0.0,0.0,0.0,0.0,0.0,0.0,0.0,0.0,0.0,0.0,0.0,0.0,0.0,0.0,-3.5136,-3.5886,-3.5228,-3.5421,-3.5096,0.0,0.0,0.0,0.0,0.0,0.0,0.0,0.0,0.0,-4.0815,-4.1541,-4.2469,-4.366,-4.4647,-4.5518,-4.6214,-4.6882,-4.7056,-4.6766,-4.6766,-4.6359,-4.5692,-4.5692,-4.4051,-4.1058,-3.7651,-3.5619,-3.4428,0.0,0.0,0.0,0.0,-3.2251,-3.3271,0.0,0.0,0.0,0.0,0.0,0.0,0.0,0.0,0.0,0.0,0.0,0.0,-3.8197,-3.9661,-4.0418,-3.998,-4.1901,-4.2,-3.9189,-4.0147,-4.0118,-3.8522,-3.8463,-3.8696,-3.9189,-4.0147,-4.2615,-4.6592,-5.0627,-5.3239,-5.4546,-5.6142,-5.6461,-5.5678,-5.5213,-5.1701,-4.604,-4.395,-4.2237,-4.0786,0.0,0.0,0.0,0.0,0.0,0.0,0.0,0.0,0.0,0.0,0.0,0.0,0.0,0.0,0.0,0.0,0.0,0.0,0.0,0.0,0.0,0.0,0.0,0.0,0.0,0.0,0.0,0.0,0.0,0.0,0.0,0.0,0.0,0.0,0.0,0.0,0.0,-3.7579,-3.8405,-3.6954,-3.8115,-3.7999,0.0,0.0,0.0,0.0,0.0,0.0,-4.0786,-4.1657,-4.2963,-4.4908,-4.5605,-4.633,-4.7085,-4.7898,-4.8856,-4.9959,-5.0104,-5.0191,-5.0191,-5.0017,-4.9369,-4.8323,-4.8323,-4.7637,-4.6272,-4.1773,-3.8986,-3.736,-3.559,-3.5009,-3.5125,-3.4777,-3.5067,-3.5683,0.0,0.0,0.0,0.0,0.0,0.0,0.0,0.0,0.0,0.0,0.0,-3.8227,-4.0567,-4.3601,-4.5561,-4.5786,-4.5888,-4.5303,-4.379,-4.1453,-3.9857,-3.9189,-3.916,-3.916,-3.9189,-4.276,-4.6795,-5.1265,-5.3936,-5.6781,-5.9829,-6.0555,-6.1164,-6.1571,-5.98,-5.6461,-5.1897,-4.7521,-4.5634,-4.5227,-4.1482,0.0,0.0,0.0,0.0,0.0,0.0,0.0,0.0,0.0,0.0,0.0,0.0,0.0,0.0,0.0,0.0,0.0,0.0,0.0,0.0,0.0,0.0,0.0,0.0,0.0,0.0,0.0,0.0,0.0,0.0,0.0,0.0,0.0,0.0,0.0,0.0,0.0,0.0,-3.8347,-4.1395,0.0,0.0,0.0,0.0,-3.977,-4.1541,-4.3456,-4.543,-4.6737,-4.8275,-5.022,-5.0917,-5.1817,-5.3065,-5.2543,-5.263,-5.3268,-5.2078,-5.1527,-5.1497,-5.0888,-5.0299,-4.963,-4.963,-4.9204,-4.8246,-4.3776,-4.1512,-4.0554,-3.7418,-3.6606,-3.7012,-3.5799,-3.5706,-3.617,0.0,0.0,0.0,0.0,0.0,0.0,0.0,0.0,-3.5878,-3.6956,-3.8033,-3.9928,-4.3097,-4.587,-4.7946,-4.9114,-4.9514,-4.8777,-4.6563,-4.3631,-4.1686,-4.1105,-3.945,-3.9915,-4.2789,-4.6621,-5.0598,-5.4691,-5.8058,-6.0729,-6.2674,-6.3341,-6.3545,-6.3312,-6.2645,-6.0758,-5.7768,-5.2455,-4.8769,-4.6214,-4.3166,-4.1192,0.0,0.0,0.0,0.0,0.0,0.0,0.0,0.0,0.0,0.0,0.0,0.0,0.0,0.0,0.0,0.0,0.0,0.0,0.0,0.0,0.0,0.0,0.0,0.0,0.0,0.0,0.0,0.0,0.0,0.0,0.0,0.0,0.0,0.0,0.0,0.0,0.0,-4.4356,-4.6679,0.0,-4.3704,-4.3485,-4.3747,-4.4385,-4.5837,-4.7521,-4.9465,-5.0394,-5.1556,-5.3094,-5.3355,-5.3704,-5.4168,-5.3936,-5.3704,-5.35,-5.3065,-5.2397,-5.1614,-5.1381,-5.0685,-4.9717,-4.9717,-4.9553,-4.9175,-4.7172,-4.5256,-4.3311,-4.096,-4.0176,-4.0321,-3.9857,-3.9828,-4.0002,0.0,0.0,0.0,0.0,0.0,0.0,0.0,0.0,-3.5968,-3.7255,-3.8781,-4.1203,-4.4968,-4.8155,-5.074,-5.2603,-5.2245,-5.112,-4.9204,-4.4647,-4.1947,-4.1773,-4.0728,-4.2063,-4.6098,-5.0394,-5.4284,-5.7681,-6.1077,-6.3312,-6.4357,-6.4793,-6.4764,-6.4357,-6.4062,-6.3341,-6.189,-5.7594,-5.3181,-4.8827,-4.604,-4.4298,-4.2992,0.0,0.0,0.0,0.0,0.0,0.0,0.0,0.0,0.0,0.0,0.0,0.0,0.0,0.0,0.0,0.0,0.0,0.0,0.0,0.0,0.0,0.0,0.0,0.0,0.0,0.0,0.0,0.0,0.0,0.0,0.0,0.0,0.0,0.0,0.0,-4.7811,-4.8653,-5.1033,-5.1527,-4.8663,-4.8653,-4.8972,-4.9407,-5.0801,-5.2165,-5.3471,-5.4139,-5.4807,-5.5445,-5.5445,-5.5445,-5.5445,-5.5039,-5.4604,-5.4139,-5.3733,-5.2833,-5.1614,-5.1614,-5.0917,-4.9717,-4.9717,-4.9717,-4.9611,-4.8769,-4.7404,-4.5721,-4.4269,-4.3427,-4.3021,-4.2818,-4.2586,-4.2353,0.0,0.0,0.0,0.0,0.0,0.0,0.0,-3.5519,-3.5968,-3.7255,-3.92,-4.2058,-4.6153,-5.0592,-5.4117,-5.6284,-5.4052,-5.2252,-5.1614,-4.4356,-4.0379,-4.1076,-4.305,-4.5634,-4.8856,-5.3907,-5.7768,-6.0322,-6.2819,-6.4386,-6.4996,-6.4996,-6.4996,-6.4967,-6.4328,-6.4004,-6.3917,-6.2703,-5.8929,-5.353,-5.022,-4.8478,-4.7521,0.0,0.0,0.0,0.0,0.0,0.0,0.0,0.0,0.0,0.0,0.0,0.0,0.0,0.0,0.0,0.0,0.0,0.0,0.0,0.0,0.0,0.0,0.0,0.0,0.0,0.0,0.0,0.0,0.0,0.0,0.0,0.0,0.0,-4.2992,-4.7579,-5.088,-5.0917,-5.4255,-5.5329,-5.2194,-5.3559,-5.4662,-5.4662,-5.6345,-5.7361,-5.7332,-5.7942,-5.8,-5.7332,-5.7303,-5.7303,-5.7274,-5.6026,-5.5387,-5.5329,-5.4081,-5.2804,-5.1585,-5.1585,-5.0888,-4.9717,-4.9717,-4.9717,-4.9553,-4.8304,-4.7782,-4.7695,-4.7056,-4.6011,-4.4821,-4.424,-4.3573,-4.2905,0.0,0.0,0.0,0.0,0.0,0.0,0.0,-3.5519,-3.5968,-3.7255,-4.0427,-4.4195,-4.8429,-5.2328,-5.5571,-5.7873,-5.4274,-5.141,-5.0307,-4.3456,-3.9944,-4.1047,-4.5169,-4.9349,-5.3471,-5.681,-5.9974,-6.2993,-6.4154,-6.4822,-6.4996,-6.4996,-6.4996,-6.4967,-6.4793,-6.4735,-6.4677,-6.3835,-6.2325,-6.0032,-5.4952,-5.1701,-4.9514,0.0,0.0,0.0,0.0,0.0,0.0,0.0,0.0,0.0,0.0,0.0,0.0,0.0,0.0,0.0,0.0,0.0,0.0,0.0,0.0,0.0,0.0,0.0,0.0,0.0,0.0,0.0,0.0,0.0,0.0,0.0,0.0,-4.6737,-4.7085,-5.1178,-5.4633,-5.6026,-5.8377,-5.9335,-5.7971,-5.7913,-5.8,-5.8,-5.8464,-5.8552,-5.8058,-5.8203,-5.8,-5.7332,-5.7303,-5.71,-5.6665,-5.5823,-5.4952,-5.4023,-5.321,-5.2165,-5.0946,-5.0946,-5.0481,-4.9717,-4.9717,-4.9407,-4.8972,-4.8624,-4.7927,-4.7027,-4.6388,-4.5634,-4.4879,-4.4705,-4.395,-4.2905,0.0,0.0,0.0,0.0,0.0,0.0,0.0,-3.5519,-3.5878,-3.6896,-4.0756,-4.4613,-4.7837,-5.1876,-5.5008,-5.6581,-5.2843,-4.9823,-4.8547,-4.366,-4.1599,-4.3427,-4.7898,-5.231,-5.652,-5.9161,-6.1658,-6.3975,-6.4677,-6.4996,-6.4996,-6.4996,-6.4996,-6.4996,-6.4996,-6.4996,-6.4967,-6.459,-6.4212,-6.3545,-5.9684,-5.6723,-5.4255,-5.0394,-4.8711,-4.8101,-4.5895,-4.5779,-4.6359,-4.4211,0.0,0.0,0.0,0.0,0.0,0.0,0.0,0.0,0.0,0.0,0.0,0.0,0.0,0.0,0.0,0.0,0.0,0.0,0.0,0.0,0.0,0.0,0.0,0.0,-4.8101,-5.1381,-5.3268,-5.5562,-5.7855,-6.0061,-6.1309,-6.1832,-6.1454,-6.0845,-6.038,-6.0119,-6.009,-5.9684,-5.8784,-5.8726,-5.829,-5.7332,-5.7303,-5.7013,-5.6432,-5.5736,-5.4923,-5.3936,-5.3007,-5.2049,-5.1062,-5.0801,-5.0307,0.0,-4.9717,-4.9465,-4.9088,-4.8537,-4.7898,0.0,0.0,0.0,0.0,0.0,-4.3718,-4.2557,0.0,0.0,0.0,0.0,0.0,0.0,0.0,-3.5519,-3.5729,-3.6387,-4.0457,-4.3847,-4.5315,-4.9858,-5.2914,-5.3363,-5.0339,-4.7869,-4.6546,-4.4501,-4.4501,-4.7143,-5.1091,-5.4923,-5.8552,-6.1048,-6.2906,-6.4091,-6.4706,-6.4996,-6.4996,-6.4996,-6.4996,-6.4996,-6.4996,-6.4996,-6.4996,-6.4996,-6.4996,-6.488,-6.3748,-6.2093,-5.9916,-5.6316,-5.4865,-5.44,-5.1991,-5.0191,-4.8827,-4.7898,0.0,0.0,0.0,0.0,0.0,0.0,0.0,0.0,0.0,0.0,0.0,0.0,0.0,0.0,0.0,0.0,0.0,0.0,0.0,0.0,0.0,0.0,0.0,0.0,-5.2339,-5.5649,-5.9916,-6.0119,-6.0642,-6.2848,-6.3167,-6.3196,-6.3196,-6.2587,-6.1977,-6.1454,-6.1338,-6.0729,-5.9364,0.0,0.0,0.0,0.0,-5.7013,-5.6432,-5.5736,-5.5068,-5.4371,-5.3094,-5.2136,-5.1497,-5.0859,-5.0249,-4.9717,-4.9717,-4.964,-4.9465,-4.8275,-4.7742,-4.7491,-4.6853,-4.6214,-4.5518,-4.4327,-4.3137,-4.2092,0.0,0.0,0.0,0.0,0.0,0.0,0.0,-3.5519,-3.5729,-3.6387,-4.0074,-4.2701,-4.305,-4.6889,-4.9687,-5.0316,-4.7928,-4.5895,-4.4618,-4.5024,-4.6708,-4.9785,-5.4604,-5.829,-6.0584,-6.2616,-6.4038,-6.4793,-6.4938,-6.4996,-6.4996,-6.4996,-6.4996,-6.4996,-6.4996,-6.4996,-6.4996,-6.4996,-6.4996,-6.4967,-6.4706,-6.3167,-6.0758,-5.8435,-5.6926,-5.5852,-5.4313,-5.4836,-5.5852,-5.3123,-5.2252,-5.1701,-4.8304,-4.4966,0.0,0.0,0.0,0.0,0.0,0.0,0.0,0.0,0.0,0.0,0.0,0.0,0.0,0.0,0.0,0.0,0.0,0.0,0.0,-5.1497,-5.5474,-5.919,-6.2122,-6.2877,-6.3109,-6.3109,-6.3545,-6.3864,-6.3864,-6.3283,-6.2848,-6.2732,-6.2238,-6.1164,-5.9393,-5.9306,-5.8697,-5.7332,-5.7303,-5.7013,-5.6432,-5.5736,-5.4836,-5.3704,0.0,0.0,-5.083,-5.0162,-4.9785,-4.9717,-4.9717,-4.9378,-4.8856,-4.8101,-4.7172,-4.6185,-4.5518,-4.4879,-4.4269,-4.3456,-4.2731,-4.2092,0.0,0.0,0.0,0.0,0.0,0.0,0.0,-3.5519,-3.5639,-3.5938,-3.8841,-4.0876,-4.0876,-4.3812,-4.5693,-4.5636,-4.4004,-4.3398,-4.4385,-4.6243,-4.932,-5.3791,-5.7361,-6.0148,-6.2093,-6.3399,-6.4357,-6.4996,-6.4996,-6.4996,-6.4996,-6.4996,-6.4996,-6.4996,-6.5315,-6.5286,-6.4996,-6.5315,-6.5286,-6.4996,-6.4996,-6.4241,-6.2964,-6.1658,-6.0584,-5.9626,-5.8668,-5.8726,-5.8958,-5.7042,-5.5765,-5.4517,-5.1933,-4.8943,-4.5866,0.0,0.0,0.0,0.0,0.0,0.0,0.0,0.0,0.0,0.0,0.0,0.0,0.0,0.0,-4.4937,0.0,0.0,-5.3123,-5.6374,-5.9306,-6.1861,-6.3777,-6.4299,-6.4386,-6.4067,-6.4328,-6.427,-6.3632,-6.3283,-6.2819,-6.218,-6.1513,-6.0613,-5.9364,-5.8987,-5.8348,-5.7332,-5.7303,-5.6868,-5.591,-5.5591,-5.4778,-5.35,-5.2543,-5.1759,-5.112,-5.0481,-4.9988,-4.9717,-4.9717,-4.932,-4.8653,-4.7695,-4.6737,-4.5808,-4.514,-4.4531,-4.395,-4.3602,-4.2905,-4.2092,0.0,0.0,0.0,0.0,0.0,0.0,0.0,-3.5519,-3.5519,-3.5519,-3.7554,-3.8931,-3.8691,-4.068,-4.1715,-4.1067,-4.081,-4.2034,-4.5227,-4.7985,-5.1875,-5.7274,-5.948,-6.1367,-6.3051,-6.3719,-6.4357,-6.4996,-6.4996,-6.4996,-6.4996,-6.4996,-6.4996,-6.4996,-6.5519,-6.546,-6.5025,-6.5519,-6.546,-6.4996,-6.4996,-6.4996,-6.4909,-6.427,-6.3806,-6.337,-6.2558,-6.1222,-5.98,-5.9568,-5.7681,-5.5271,-5.4487,-5.2514,-4.9727,-4.6011,-4.4821,0.0,0.0,0.0,0.0,0.0,0.0,0.0,0.0,0.0,-4.4472,-4.7027,-4.8159,-4.964,-5.2746,-5.4981,-5.7448,-6.0816,-6.2441,-6.369,-6.4822,-6.4996,-6.4909,-6.4648,-6.4735,-6.4386,-6.337,-6.3167,-6.2616,-6.1454,-6.0758,-6.0061,-5.9335,-5.8668,-5.8,-5.7332,-5.7303,-5.6752,-5.562,-5.5474,-5.4836,-5.3704,-5.2804,-5.2107,-5.1585,-5.083,-5.0191,-4.9717,-4.9717,-4.9233,-4.8449,-4.7433,-4.6505,-4.5634,-4.5082,-4.4443,-4.3805,-4.3805,-4.3079,-4.2092,0.0,0.0,0.0,0.0,0.0,0.0,0.0,0.0,-3.5519,-3.5519,-3.6746,-3.7195,-3.6058,-3.7451,-3.851,-3.8606,-4.1116,-4.4037,-4.723,-5.0394,-5.3965,-5.8,-6.0555,-6.2267,-6.308,-6.3719,-6.4357,-6.4996,-6.4996,-6.4996,-6.4996,-6.4996,-6.4996,-6.4996,-6.5054,-6.5054,-6.4996,-6.5054,-6.5054,-6.4996,-6.4996,-6.4996,-6.4909,-6.427,-6.4357,-6.4619,-6.3399,-6.1048,-5.8668,-5.9742,-5.8,-5.5591,-5.6578,-5.5126,-5.2455,-4.9146,0.0,-4.3631,-4.1453,-4.0612,-4.0844,-4.3021,-4.3224,-4.4385,0.0,0.0,-5.0452,-5.3007,-5.4517,-5.5474,-5.591,-5.8,-6.0177,-6.1745,-6.308,-6.4183,-6.488,-6.4996,-6.4561,-6.3428,-6.3806,-6.4096,-6.3888,-6.3428,-6.279,-6.2035,-6.1425,-6.0555,-5.9364,-5.8668,-5.8,-5.7332,-5.7303,-5.6984,-5.6316,-5.5707,-5.5068,-5.4371,-5.2572,-5.1701,-5.1585,-5.0336,-4.9805,-4.9717,-4.9717,-4.9001,-4.7869,-4.7724,-4.6621,-4.4995,-4.4908,-4.4153,-4.3108,-4.3108,-4.2673,-4.2092,0.0,0.0,0.0,0.0,0.0,0.0,0.0,0.0,0.0,-3.5519,-3.5968,-3.6088,-3.5579,-3.5874,-3.6158,-3.6172,-3.8655,-4.2208,-4.6911,-5.022,-5.4226,-5.919,-6.1135,-6.2238,-6.2499,-6.3516,-6.4183,-6.4444,-6.4793,-6.4996,-6.4996,-6.4996,-6.4996,-6.4996,-6.5373,-6.5344,-6.4996,-6.5373,-6.5315,-6.4996,-6.4996,-6.4764,-6.4328,-6.3283,-6.2151,-6.099,-6.0061,-5.8174,0.0,-5.6258,-5.5416,-5.4517,-5.5794,-5.4458,-5.1933,-4.9465,-4.7259,0.0,-4.3718,0.0,0.0,0.0,-4.7114,-4.9465,-5.292,-5.3559,-5.4168,-5.6781,-5.8,-5.8958,-6.009,-6.1483,-6.2732,0.0,-6.4241,-6.4561,-6.4444,-6.4125,-6.3399,-6.2151,-6.1571,-6.1425,-6.1774,-6.1919,-6.1571,-6.0555,-6.0235,-5.9684,-5.8784,-5.8087,-5.7594,-5.7303,-5.7303,-5.7013,-5.6432,-5.5736,-5.5097,-5.4517,-5.3297,-5.2339,-5.1585,-5.1062,-5.0394,-4.9688,-4.9291,-4.8624,-4.7753,-4.7375,-4.6301,-4.485,-4.4501,-4.3805,-4.2992,-4.2992,-4.2615,-4.2092,0.0,0.0,0.0,0.0,0.0,0.0,0.0,0.0,0.0,0.0,-3.5519,-3.5457,-3.5359,-3.5067,-3.4835,-3.4631,-3.6648,-4.0118,-4.5198,-4.8856,-5.3152,-5.8406,-6.0351,-6.1483,-6.1832,-6.2935,-6.3603,-6.3777,-6.4415,-6.4735,-6.4735,-6.4909,-6.4996,-6.4996,-6.546,-6.5431,-6.5025,-6.5489,-6.5402,-6.4967,-6.4793,-6.4241,-6.3312,-6.1483,-5.9074,-5.6694,-5.6374,-5.4604,-5.2339,-5.2049,-5.1585,-5.141,-5.3065,-5.231,-5.0511,-4.8914,-4.7317,-4.5837,-4.4908,0.0,0.0,-4.7764,-5.0772,-5.382,-5.5678,-5.6694,-5.7884,-6.0148,-6.0961,-6.1629,-6.2877,-6.3457,-6.3922,-6.4386,-6.4619,-6.4561,-6.4096,-6.3341,-6.2209,-6.0584,-5.9103,-5.8348,-5.861,-5.9713,-6.009,-5.9364,-5.9132,-5.8813,-5.8319,-5.7681,-5.7303,-5.7303,-5.7303,-5.7013,-5.6432,-5.5736,-5.5097,-5.4517,-5.3646,-5.2688,-5.1614,-5.1265,-5.0569,-4.964,-4.9001,-4.8362,-4.7724,-4.6911,-4.5808,-4.4589,-4.395,-4.3311,-4.2731,-4.2731,-4.2469,-4.2092,0.0,0.0,0.0,0.0,0.0,0.0,0.0,0.0,0.0,0.0,0.0,0.0,0.0,-3.4902,-3.4769,-3.4462,-3.6199,-3.8725,-4.2034,-4.6359,-5.0569,-5.4517,-5.771,-5.9974,-6.1193,-6.1832,-6.247,-6.3138,-6.3748,-6.4004,-6.4004,-6.4706,-6.4996,-6.4996,-6.4996,-6.4996,-6.4996,-6.4996,-6.4996,-6.4938,-6.4299,-6.3283,-6.1803,-5.8639,-5.5474,-5.2885,-5.3413,-5.0801,-4.7097,-4.7753,-4.6708,-4.5605,-4.813,-4.8885,0.0,-4.8014,-4.604,-4.4066,-4.4037,0.0,-4.7503,-5.0685,-5.3413,-5.6142,-5.9306,-6.099,-6.2267,-6.3603,-6.383,-6.3748,-6.3196,-6.3109,-6.3138,-6.3138,-6.3661,-6.4004,-6.3975,-6.2935,-6.1193,-5.8697,-5.6694,-5.53,0.0,-5.6926,-5.8639,-5.9248,-5.8697,-5.8319,-5.829,-5.7681,-5.7303,-5.7303,-5.7303,-5.7013,-5.6432,-5.5736,-5.5097,-5.4487,-5.321,-5.2252,-5.1585,-5.0307,-4.9746,-4.964,-4.9001,-4.8362,-4.7695,-4.6446,-4.5169,-4.395,-4.3282,-4.2644,-4.2121,-4.2121,-4.2121,-4.2092,0.0,0.0,0.0,0.0,0.0,0.0,0.0,0.0,0.0,0.0,0.0,0.0,0.0,0.0,0.0,0.0,-3.5386,-3.736,-4.0554,-4.3805,-4.7114,-5.0511,-5.4168,-5.652,-5.7332,-5.9248,-6.0758,-6.1832,-6.2441,-6.2964,-6.3428,-6.3632,-6.3719,-6.3748,-6.4183,-6.4357,-6.4357,-6.4357,-6.3864,-6.2964,-6.1919,-6.0467,-5.861,-5.5852,-5.2543,-4.9146,0.0,-4.5314,-4.366,-4.3427,-4.2905,-4.2615,-4.3921,-4.4008,-4.3631,-4.3398,-4.3921,-4.4966,-4.6679,0.0,-5.2049,-5.5242,-5.7971,-6.0351,-6.2296,-6.308,-6.3399,-6.3399,-6.2064,-6.07,-6.0032,-5.9916,-6.0177,-6.1048,-6.2441,-6.3399,-6.3399,-6.2645,-6.0845,-5.7448,-5.6461,0.0,0.0,0.0,0.0,-5.7303,-5.7942,-5.8116,-5.7652,-5.7855,-5.7768,-5.7303,-5.7303,-5.7216,-5.7013,-5.5939,-5.53,-5.5068,-5.2949,-5.1817,-5.1585,-5.0278,-4.9436,-4.903,-4.8827,-4.813,-4.7085,-4.6243,-4.514,-4.3921,-4.3253,-4.2615,-4.2092,-4.2092,-4.2092,-4.2092,0.0,0.0,0.0,0.0,0.0,0.0,0.0,0.0,0.0,0.0,0.0,0.0,0.0,0.0,0.0,0.0,0.0,-3.6083,-3.858,-4.096,-4.3515,-4.6243,-4.9611,-5.173,-5.2339,-5.4197,-5.5707,-5.6752,-5.7594,-5.8581,-5.9684,-5.9916,-6.038,-6.1019,-6.1222,-6.1571,-6.1977,-6.1745,-6.0874,-5.9597,-5.8319,-5.6374,-5.3965,-5.141,-4.8333,0.0,-4.2266,-4.0728,-4.0002,-3.9799,-3.9741,-3.9857,-4.0495,-4.0873,-4.1221,-4.1918,-4.4095,-4.6911,-4.9959,-5.2978,-5.5939,-5.89,-6.1222,-6.2993,-6.3772,-6.369,-6.3051,-6.1948,-5.9684,-5.7565,-5.6461,-5.5881,-5.6055,-5.7565,-5.8842,-6.0235,-6.1832,-6.0903,-5.9422,-5.7652,-5.6229,-5.5068,0.0,0.0,0.0,-5.6287,-5.7594,-5.8,-5.7332,-5.7942,-5.8,-5.7332,-5.7303,-5.7216,-5.6984,-5.6171,-5.5533,-5.5068,-5.2717,-5.1614,-5.1585,-5.0278,-4.932,-4.8663,-4.8478,-4.7782,-4.6691,-4.5663,-4.4734,-4.3892,-4.3021,-4.2557,-4.2382,-4.2179,-4.2237,-4.2382,0.0,0.0,0.0,0.0,0.0,0.0,0.0,0.0,0.0,0.0,0.0,0.0,0.0,0.0,0.0,0.0,0.0,0.0,-3.6141,-3.7999,-3.9886,-4.1715,-4.4269,-4.5924,-4.6546,-4.7288,-4.7956,-4.8576,-4.9872,-5.141,-5.3239,-5.3878,-5.5126,-5.6781,-5.6258,-5.6694,-5.7826,-5.7158,-5.6142,-5.4894,-5.3588,-5.1236,-4.8217,-4.5692,-4.3224,-4.0844,-3.8899,-3.7418,-3.646,-3.7099,-3.736,-3.7564,-3.8202,-3.9712,-4.1657,-4.3689,-4.6505,-4.9814,-5.3704,-5.6607,-5.9132,-6.1629,-6.3109,-6.3917,-6.3888,-6.2819,-6.128,-5.9451,-5.6868,-5.44,0.0,0.0,-5.1149,-5.3065,-5.3588,-5.53,-5.9684,-5.8261,-5.739,0.0,0.0,0.0,0.0,0.0,0.0,-5.6374,0.0,-5.8,-5.7332,-5.7971,-5.8029,-5.7332,-5.7303,-5.7042,-5.6461,-5.6374,-5.5707,-5.4429,-5.2543,-5.1614,-5.1585,-5.0278,-4.932,-4.8653,-4.8043,-4.7404,-4.6604,-4.4792,-4.4037,-4.3921,-4.2673,-4.2528,-4.2934,-4.2382,-4.2498,-4.2876,0.0,0.0,0.0,0.0,0.0,0.0,0.0,0.0,0.0,0.0,0.0,0.0,0.0,0.0,0.0,0.0,0.0,0.0,-3.4864,-3.6257,-3.7273,-3.7767,-4.0699,-4.2615,-4.3282,-4.4821,-4.6185,-4.7271,-4.7637,-4.8304,-4.9262,-4.9407,-4.9756,-5.022,-5.054,-5.112,-5.1846,-5.1178,-5.0452,-4.9582,-4.7811,-4.633,-4.5024,-4.3427,-4.2092,-4.0844,-3.8899,-3.7709,-3.707,-3.7244,0.0,0.0,0.0,-4.2092,-4.3921,-4.7259,-5.0162,-5.3123,-5.7042,-5.9945,-6.2267,-6.3864,-6.3777,-6.3196,-6.2703,-6.0148,-5.7448,-5.6026,-5.2165,-4.8566,0.0,0.0,0.0,-5.1091,-5.4604,0.0,-6.1193,-6.1483,0.0,-6.009,0.0,-5.8784,-5.7681,-5.7274,0.0,0.0,-5.8116,-5.8,-5.7332,-5.8406,-5.8523,-5.7332,-5.7303,-5.7216,-5.7071,-5.6142,-5.5039,-5.3762,-5.231,-5.1614,-5.1585,-5.0278,-4.9059,-4.8014,-4.784,-4.7143,-4.604,-4.5053,-4.4647,-4.4589,-4.3805,-4.3282,-4.3021,-4.3369,-4.3021,-4.2353,0.0,0.0,0.0,0.0,0.0,0.0,0.0,0.0,0.0,0.0,0.0,0.0,0.0,0.0,0.0,0.0,0.0,0.0,0.0,-3.5067,-3.5473,-3.5473,-3.7215,-3.8347,-3.8725,-3.9741,-4.0786,-4.1802,-4.2063,-4.2818,-4.4037,-4.4298,-4.4879,-4.5692,-4.604,-4.6708,-4.7521,-4.6592,-4.5866,0.0,0.0,-4.2237,-4.1366,-4.067,-3.9799,-3.8899,-3.8086,-3.7941,-3.826,0.0,0.0,-4.1686,-4.3573,-4.543,-4.7608,-5.1149,0.0,-5.6781,-6.0061,-6.2412,-6.4096,-6.4822,-6.3806,-6.218,-6.0409,-5.7245,-5.3878,-5.0888,-4.755,0.0,0.0,0.0,0.0,0.0,0.0,0.0,-5.9887,-6.0758,-6.1222,0.0,-6.1483,0.0,-6.0032,-5.9451,-5.9132,0.0,-5.861,-5.8,-5.7332,-5.829,-5.8377,-5.7332,-5.7303,-5.7187,-5.6926,-5.591,-5.4923,-5.3936,-5.2368,-5.1614,-5.1556,-4.9988,-4.8711,-4.7753,0.0,-4.6795,-4.5837,-4.5169,-4.4879,-4.4821,-4.424,-4.3921,-4.3834,-4.395,-4.3544,-4.2934,0.0,0.0,0.0,0.0,0.0,0.0,0.0,0.0,0.0,0.0,0.0,0.0,0.0,0.0,0.0,0.0,0.0,0.0,0.0,0.0,-3.4399,-3.4399,-3.4399,-3.4399,-3.4399,-3.4399,-3.469,-3.5276,-3.5793,-3.6925,-3.858,-3.9102,-4.0234,-4.186,-4.186,-4.2498,-4.3544,-4.2353,-4.1657,-4.1221,-3.9886,-3.8841,-3.8086,0.0,-3.7331,-3.6519,-3.7099,-3.7941,-3.9189,-4.1744,-4.3166,-4.4327,-4.6911,-4.9553,-5.2281,-5.5387,-5.7913,-6.0206,-6.2674,-6.4154,-6.4967,-6.488,-6.3283,-6.0874,-5.7681,-5.4197,-5.0307,-4.5518,0.0,-4.157,-3.9363,-4.0612,-4.2644,-4.4676,0.0,-5.1962,-5.7623,-5.8581,-6.0032,-6.3603,-6.2645,-6.189,-6.2412,-6.1338,-6.0496,-6.0351,-5.9161,-5.8145,-5.7477,-5.8,-5.8,-5.7332,-5.7216,-5.6897,-5.6287,-5.562,-5.4981,-5.4342,-5.2514,-5.1614,-5.1556,-4.9611,-4.8391,-4.7753,-4.7114,0.0,-4.5837,-4.5256,-4.5024,-4.4966,-4.4443,-4.4501,-4.4821,-4.4414,-4.4124,-4.3921,0.0,0.0,0.0,0.0,0.0,0.0,0.0,0.0,0.0,0.0,-3.5613,-3.4765,0.0,0.0,0.0,0.0,0.0,0.0,0.0,0.0,0.0,-3.4399,-3.4399,-3.4399,-3.4399,-3.4399,-3.4457,-3.4574,-3.469,-3.4922,-3.5241,-3.5357,-3.559,-3.5909,-3.5909,-3.6315,-3.699,-3.6228,-3.646,-3.7186,-3.5909,-3.6228,-3.7389,-3.6838,0.0,0.0,-3.7273,-3.7099,-3.768,-4.3311,-4.6708,-4.9001,-5.1556,-5.4487,-5.7507,-6.0148,-6.1251,-6.2064,-6.4096,-6.4822,-6.4851,-6.4328,-6.1977,-5.8958,-5.5736,-5.0888,0.0,0.0,-4.0292,-3.8144,-3.7709,-3.9625,-4.2237,-4.5227,0.0,0.0,0.0,0.0,-6.1542,0.0,0.0,0.0,0.0,0.0,0.0,0.0,0.0,-5.8842,-5.8174,-5.8232,-5.8,-5.7332,-5.6839,-5.6258,-5.5591,-5.4981,-5.4342,-5.3675,-5.2281,-5.1614,-5.1556,-4.9611,-4.8391,-4.7753,-4.7114,0.0,-4.5866,-4.575,-4.5721,-4.5692,-4.5605,-4.5285,-4.4937,-4.5401,-4.4879,-4.3979,0.0,0.0,0.0,0.0,0.0,0.0,0.0,-3.6686,-3.6683,-3.7139,-3.6419,-3.5678,-3.5258,-3.4835,-3.453,0.0,0.0,0.0,0.0,0.0,0.0,0.0,-3.4399,-3.4399,-3.4399,-3.4399,-3.4399,-3.4399,0.0,-3.4399,-3.4428,-3.4748,-3.4922,-3.4922,-3.5241,-3.5561,-3.5822,-3.5183,-3.5444,-3.6228,-3.527,-3.5677,-3.6751,0.0,0.0,0.0,0.0,-3.7535,-3.8492,-4.2905,-4.6534,-4.9872,-5.3791,-5.6984,-5.9655,-6.1542,-6.2558,-6.337,-6.4648,-6.4996,-6.4822,-6.4183,-6.0903,-5.6781,-5.2891,0.0,0.0,0.0,-3.7622,-3.6577,-3.5909,-3.8405,0.0,0.0,0.0,0.0,0.0,0.0,0.0,0.0,0.0,0.0,0.0,0.0,0.0,0.0,0.0,-5.919,-5.7855,-5.7768,-5.7623,-5.7303,-5.6723,-5.5939,-5.4952,-5.4662,-5.4023,-5.3007,-5.2078,-5.1439,-5.1062,-4.9117,-4.8072,-4.7724,-4.6766,0.0,-4.5895,-4.5895,-4.5895,-4.5895,-4.5895,-4.5692,-4.543,-4.5779,-4.5285,-4.4472,0.0,0.0,0.0,0.0,0.0,0.0,0.0,-3.7003,-3.7101,-3.752,-3.7198,-3.6634,-3.5961,-3.5249,-3.4743,0.0,0.0,0.0,0.0,0.0,0.0,0.0,0.0,0.0,0.0,0.0,0.0,0.0,0.0,0.0,0.0,0.0,0.0,0.0,0.0,-3.5909,-3.588,-3.5537,-3.577,0.0,0.0,-3.5909,0.0,0.0,0.0,0.0,0.0,-3.7738,-3.9044,-4.2005,-4.4908,-4.813,-5.2862,-5.6752,-5.98,-6.0932,-6.2383,-6.3777,-6.4561,-6.488,-6.4793,-6.4038,-5.9974,-5.501,-5.0511,-4.543,0.0,0.0,-3.5648,-3.5648,-3.4777,-3.7157,-3.9683,0.0,0.0,0.0,0.0,0.0,0.0,0.0,0.0,0.0,0.0,0.0,0.0,0.0,0.0,0.0,-5.7594,-5.7507,-5.7448,-5.7303,-5.6578,-5.5649,-5.4517,-5.4226,-5.3588,-5.2623,-5.1788,-5.1149,-5.0598,-4.87,-4.7782,-4.7724,-4.6446,0.0,0.0,-4.5895,-4.5895,-4.5895,-4.5895,-4.5895,-4.5895,-4.5895,-4.5547,-4.5082,0.0,0.0,0.0,0.0,0.0,0.0,0.0,-3.7434,-3.8381,-3.8858,-3.773,-3.6816,-3.6576,-3.5816,-3.5072,0.0,0.0,0.0,0.0,0.0,0.0,0.0,0.0,0.0,0.0,0.0,0.0,0.0,0.0,0.0,0.0,0.0,0.0,0.0,0.0,0.0,0.0,-3.5189,0.0,0.0,0.0,0.0,0.0,0.0,0.0,0.0,0.0,0.0,0.0,0.0,0.0,-4.3282,-4.665,-5.2252,-5.771,-5.8435,0.0,0.0,-6.3777,-6.4561,-6.4706,-6.3486,-5.9306,-5.4342,-4.9872,0.0,0.0,-3.6089,-3.4951,-3.4719,-3.5218,-3.6025,-3.7622,-4.0612,0.0,-4.5285,0.0,0.0,0.0,0.0,0.0,0.0,0.0,0.0,0.0,0.0,0.0,0.0,-5.8261,-5.8203,-5.7942,-5.7332,-5.6142,-5.5184,-5.4517,-5.3326,-5.2739,-5.2623,-5.1323,-5.0714,-5.0598,-4.87,-4.7782,-4.7724,-4.6446,0.0,0.0,-4.5895,-4.5895,-4.5895,-4.5895,-4.5895,-4.5895,-4.5895,-4.5837,-4.5721,0.0,0.0,0.0,0.0,0.0,0.0,-3.7621,-3.758,-3.751,-3.8299,-3.7836,-3.704,-3.5997,-3.5921,-3.5532,-3.4516,0.0,0.0,0.0,0.0,0.0,0.0,0.0,0.0,0.0,0.0,0.0,-3.4399,0.0,0.0,0.0,0.0,0.0,0.0,0.0,0.0,0.0,0.0,0.0,0.0,0.0,0.0,0.0,0.0,0.0,0.0,0.0,0.0,0.0,0.0,0.0,0.0,-4.0815,-4.4589,0.0,0.0,-5.7507,-6.0351,-6.279,-6.4212,-6.459,-6.2906,-5.8348,-5.3094,-4.8624,0.0,-3.8173,-3.5357,-3.4603,-3.4486,-3.4748,-3.5299,-3.6548,-3.8957,0.0,0.0,0.0,0.0,0.0,0.0,0.0,0.0,0.0,0.0,0.0,0.0,0.0,0.0,-5.8348,-5.8668,-5.8406,-5.7332,-5.6461,-5.5329,-5.3936,-5.3007,-5.2368,-5.1991,-5.1091,-5.0502,-5.0095,-4.8885,-4.813,-4.7724,-4.6853,0.0,0.0,-4.5895,-4.5895,-4.5895,-4.5895,-4.5895,-4.5895,-4.5895,-4.5895,-4.5837,0.0,0.0,0.0,0.0,0.0,-3.4781,-3.7804,-3.7402,-3.6994,-3.7807,-3.7641,-3.6963,-3.5805,-3.5706,-3.5473,-3.4748,-3.4516,0.0,0.0,0.0,0.0,0.0,0.0,0.0,0.0,0.0,-3.4399,-3.4399,-3.4399,0.0,0.0,0.0,0.0,0.0,0.0,0.0,0.0,0.0,0.0,0.0,0.0,0.0,0.0,0.0,0.0,0.0,0.0,0.0,0.0,0.0,0.0,0.0,-3.6867,-3.8841,-4.2586,0.0,-5.3791,-5.7536,-6.0555,-6.2587,-6.3486,-6.1919,-5.7216,-5.1817,0.0,0.0,-3.7476,-3.4951,-3.4399,-3.4399,-3.4399,-3.4777,-3.5648,-3.736,0.0,-3.8405,-4.3602,0.0,0.0,0.0,0.0,0.0,0.0,0.0,0.0,0.0,0.0,0.0,-5.8668,-5.9045,-5.861,-5.71,-5.6432,-5.5271,-5.353,-5.2688,-5.2049,-5.1614,-5.0772,-5.0182,-4.9688,-4.9001,-4.8478,-4.8014,-4.7201,0.0,0.0,-4.5953,-4.5895,-4.5895,-4.5895,-4.5895,-4.5895,-4.5895,-4.5895,-4.5895,0.0,0.0,0.0,0.0,0.0,0.0,-3.6206,-3.6816,-3.7362,-3.783,-3.7122,-3.6535,-3.6286,-3.5183,-3.469,-3.5334,-3.4777,0.0,0.0,0.0,0.0,0.0,0.0,0.0,0.0,0.0,-3.4399,-3.4399,-3.4399,-3.4399,-3.4399,-3.4399,0.0,0.0,0.0,0.0,0.0,0.0,0.0,0.0,0.0,0.0,0.0,0.0,0.0,0.0,0.0,0.0,0.0,0.0,0.0,0.0,0.0,-3.6286,-3.8376,-4.3485,-4.9059,-5.411,-5.6665,-5.9248,-6.1077,-6.038,-5.5881,-5.0627,0.0,-4.1918,-3.7476,-3.4951,-3.4399,-3.4399,-3.4399,-3.4428,-3.4835,-3.6112,-3.6867,0.0,0.0,0.0,0.0,0.0,0.0,0.0,0.0,0.0,0.0,0.0,0.0,0.0,-5.9364,-5.9306,-5.8406,-5.649,-5.5765,-5.4807,-5.353,-5.2252,-5.1643,-5.1614,-5.0307,-4.9746,-4.9688,-4.9001,-4.8663,0.0,0.0,0.0,0.0,-4.6156,-4.5895,-4.5895,-4.5895,-4.5895,-4.5895,-4.5895,-4.5895,-4.5895,0.0,0.0,0.0,0.0,0.0,0.0,0.0,-3.5632,-3.5996,-3.7491,-3.7425,-3.7135,-3.6983,-3.6228,-3.5793,-3.5996,-3.5038,0.0,0.0,0.0,0.0,0.0,0.0,0.0,0.0,0.0,-3.4632,-3.5101,-3.5101,-3.527,-3.5706,-3.527,-3.5101,-3.5072,0.0,0.0,0.0,0.0,0.0,0.0,0.0,0.0,0.0,0.0,0.0,0.0,0.0,0.0,0.0,0.0,0.0,0.0,0.0,0.0,0.0,-3.8434,-4.3427,0.0,-5.0859,-5.3326,-5.4836,-5.2862,-5.0287,-4.7346,-4.3485,-4.0321,-3.7476,-3.4951,-3.4399,-3.4399,-3.4399,-3.4399,-3.527,-3.7854,-3.8086,0.0,0.0,0.0,0.0,0.0,0.0,0.0,0.0,0.0,0.0,0.0,0.0,0.0,-5.8,-5.7942,-5.7652,-5.7042,-5.5968,-5.4575,-5.2891,-5.2049,-5.141,-5.0975,-5.0104,-4.9717,-4.9717,-4.9465,-4.8914,0.0,0.0,0.0,0.0,-4.5982,-4.5895,-4.5895,-4.5895,-4.5895,-4.5895,-4.5895,-4.5895,-4.5895,0.0,0.0,0.0,0.0,0.0,0.0,0.0,-3.457,-3.4735,-3.6416,-3.6285,-3.6256,-3.6765,-3.6192,-3.605,-3.6628,-3.5735,0.0,0.0,0.0,0.0,0.0,0.0,0.0,-3.4399,-3.4399,-3.4835,-3.5741,-3.5741,-3.6054,-3.6664,-3.6286,-3.5857,-3.5392,-3.4951,-3.4632,0.0,0.0,0.0,0.0,0.0,0.0,-3.4399,0.0,0.0,0.0,0.0,0.0,0.0,0.0,0.0,0.0,0.0,0.0,0.0,0.0,-3.8957,-4.2963,-4.6098,-4.8798,-5.0365,-4.8769,-4.7056,0.0,0.0,-3.9247,-3.7215,-3.4893,-3.4399,-3.4399,-3.4399,-3.4399,-3.5154,-3.7389,-3.7622,0.0,0.0,0.0,0.0,0.0,0.0,0.0,0.0,0.0,0.0,0.0,0.0,0.0,-5.7361,-5.71,-5.6752,-5.6258,-5.5242,-5.4023,-5.2623,-5.1701,-5.1062,-5.0705,-4.9988,-4.9553,-4.932,-4.932,-4.8769,0.0,0.0,0.0,0.0,-4.5982,-4.5895,-4.5895,-4.5895,-4.5895,-4.5895,-4.5895,-4.5895,-4.5895,0.0,0.0,0.0,0.0,0.0,0.0,0.0,-3.3696,-3.3731,-3.5025,-3.4465,-3.4519,-3.5967,-3.547,-3.5682,-3.7171,0.0,0.0,0.0,0.0,0.0,0.0,0.0,0.0,-3.4399,-3.4399,-3.5038,-3.6315,-3.6344,-3.6751,-3.7447,-3.7389,-3.6693,-3.5537,-3.545,-3.5043,-3.4399,-3.4399,-3.4399,-3.4399,-3.4399,-3.4399,0.0,0.0,0.0,0.0,0.0,0.0,0.0,0.0,0.0,0.0,0.0,0.0,0.0,0.0,0.0,0.0,0.0,-4.5169,-4.6998,0.0,0.0,0.0,-4.0321,-3.8463,0.0,-3.4806,-3.4399,-3.4457,-3.4603,-3.4516,-3.4719,-3.5654,0.0,0.0,0.0,0.0,0.0,0.0,0.0,0.0,0.0,0.0,0.0,0.0,0.0,0.0,-5.7303,-5.6665,-5.5765,-5.4546,-5.3791,-5.3065,-5.2478,-5.1316,-5.0705,-5.0598,-5.0037,-4.9349,-4.8663,-4.8663,-4.8362,0.0,0.0,0.0,0.0,-4.6127,-4.5895,-4.5895,-4.5895,-4.5895,-4.5895,-4.5895,-4.5895,-4.5895,0.0,0.0,0.0,0.0,0.0,0.0,0.0,0.0,0.0,0.0,-3.6576,-3.6585,-3.6979,-3.6403,-3.6331,0.0,0.0,0.0,0.0,0.0,0.0,0.0,0.0,0.0,-3.4428,-3.4399,-3.5038,-3.6315,-3.6809,-3.7651,-3.8754,-3.8231,-3.7593,-3.6809,-3.5828,-3.5043,-3.4399,-3.4399,-3.4399,-3.4399,-3.4399,-3.4399,0.0,0.0,0.0,0.0,-3.4399,-3.4399,0.0,0.0,0.0,0.0,0.0,0.0,0.0,0.0,-3.5096,-3.5886,-3.7106,0.0,-3.9538,-3.8559,-3.858,-3.8463,0.0,-3.6519,-3.6141,-3.4719,-3.4399,-3.4864,-3.6344,-3.5415,-3.559,0.0,0.0,0.0,0.0,0.0,0.0,0.0,0.0,0.0,0.0,0.0,0.0,0.0,0.0,-5.7448,-5.6665,-5.5997,-5.53,-5.4546,-5.292,-5.1759,-5.112,-5.088,-5.0423,-4.9901,-4.9805,-4.9349,-4.8663,-4.8663,-4.8054,0.0,0.0,0.0,-4.6098,-4.5953,-4.5895,-4.5895,-4.5895,-4.5895,-4.5895,-4.5895,-4.5895,-4.5895,0.0,0.0,0.0,0.0,0.0,0.0,0.0,0.0,0.0,0.0,0.0,0.0,0.0,0.0,0.0,0.0,0.0,0.0,0.0,0.0,0.0,0.0,0.0,-3.5247,-3.4864,-3.4864,-3.5619,-3.7186,-3.7854,-3.8812,-4.006,-3.9392,-3.858,-3.7651,-3.6089,-3.5043,-3.4399,-3.4399,-3.4399,-3.4399,-3.4399,0.0,0.0,0.0,0.0,0.0,-3.4399,-3.4399,0.0,-3.5067,-3.5096,-3.4893,0.0,0.0,0.0,0.0,-3.4661,-3.4922,-3.4922,-3.6286,-3.7564,-3.6838,-3.7186,-3.7447,-3.6489,-3.6054,-3.559,-3.4632,-3.4399,-3.4835,-3.617,-3.5328,0.0,0.0,0.0,0.0,0.0,0.0,0.0,0.0,0.0,0.0,0.0,0.0,0.0,0.0,0.0,-5.6607,-5.5997,-5.5329,-5.4429,-5.321,-5.2165,-5.1439,-5.112,-5.0511,-5.0095,-4.9717,-4.9378,-4.8914,-4.8275,-4.7985,-4.7317,0.0,0.0,0.0,-4.5895,-4.5895,-4.5895,-4.5895,-4.5895,-4.5895,-4.5895,-4.5895,-4.5895,-4.5895,0.0,0.0,0.0,0.0,0.0,0.0,0.0,0.0,0.0,0.0,0.0,0.0,0.0,0.0,0.0,0.0,0.0,0.0,0.0,0.0,0.0,0.0,-3.6089,-3.5654,-3.5537,-3.5537,-3.638,-3.8057,-3.8928,-3.9944,-4.1076,-4.0612,-3.9567,-3.7999,-3.6286,-3.5096,-3.4399,-3.4399,-3.4399,-3.4399,-3.4399,0.0,0.0,0.0,0.0,0.0,0.0,0.0,0.0,-3.5648,-3.5648,-3.5363,-3.5851,0.0,0.0,0.0,0.0,0.0,-3.4777,-3.6577,-3.8231,-3.7738,-3.7767,-3.7738,-3.7041,-3.5996,-3.5101,-3.4516,0.0,0.0,0.0,-3.5357,0.0,0.0,0.0,0.0,0.0,0.0,0.0,0.0,0.0,0.0,0.0,0.0,0.0,0.0,0.0,-5.6113,-5.5445,-5.4749,-5.3559,-5.1817,-5.1585,-5.141,-5.1323,-5.022,-4.9717,-4.9717,-4.903,-4.8391,-4.7753,-4.7114,-4.6475,-4.5895,0.0,0.0,-4.5895,-4.5895,-4.5895,-4.5895,-4.5895,-4.5895,-4.5895,-4.5895,-4.5895,-4.5895,0.0,0.0,0.0,0.0,0.0,0.0,0.0,0.0,0.0,0.0,0.0,0.0,0.0,0.0,0.0,0.0,0.0,0.0,0.0,0.0,0.0,-3.8725,-3.7622,-3.6751,-3.617,-3.617,-3.6577,-3.7447,-3.9131,-4.035,-4.1105,-4.157,-4.0234,-3.7418,-3.6548,-3.5503,-3.4399,-3.4399,-3.4399,-3.4399,-3.4399,0.0,0.0,0.0,0.0,0.0,0.0,0.0,0.0,-3.4632,-3.4632,-3.4574,-3.4661,0.0,0.0,0.0,0.0,0.0,-3.6431,-3.7941,-3.8405,-3.5677,-3.5793,-3.6286,-3.5125,-3.469,-3.4516,-3.4428,0.0,0.0,0.0,-3.768,-3.8434,0.0,0.0,0.0,0.0,0.0,0.0,0.0,0.0,0.0,0.0,0.0,0.0,0.0,0.0,-5.6113,-5.5445,-5.4313,-5.3297,-5.2455,-5.1381,-5.054,-4.9988,-4.9834,-4.9717,-4.9717,-4.903,-4.8391,-4.7753,-4.7114,-4.6475,-4.5895,0.0,-4.5895,-4.5895,-4.5895,-4.5895,-4.5895,-4.5895,-4.5895,-4.5895,-4.5895,-4.5895,-4.5895,0.0,0.0,0.0,0.0,0.0,0.0,0.0,0.0,0.0,0.0,0.0,0.0,0.0,0.0,0.0,0.0,0.0,0.0,0.0,0.0,-3.7331,-3.8609,-3.8115,-3.7651,-3.7331,-3.7999,-3.8667,-3.9363,-4.1599,-4.2847,-4.3137,-4.2063,-4.0205,-3.7738,-3.6751,-3.5793,-3.4893,-3.4545,-3.4162,-3.3791,0.0,0.0,0.0,0.0,0.0,0.0,0.0,0.0,0.0,0.0,-3.4922,-3.4922,-3.4922,0.0,0.0,0.0,0.0,0.0,-3.5503,-3.6664,-3.7273,-3.5822,-3.6896,-3.8028,-3.6751,-3.5938,-3.5532,-3.5909,0.0,0.0,0.0,0.0,0.0,0.0,0.0,0.0,0.0,0.0,0.0,0.0,0.0,0.0,0.0,0.0,0.0,0.0,0.0,0.0,-5.4429,-5.35,-5.2543,-5.1585,-5.0656,-4.9843,-4.9175,-4.8827,-4.8653,-4.8653,-4.8362,-4.7898,-4.7259,-4.6592,-4.6156,-4.5895,0.0,-4.5895,-4.5895,-4.5895,-4.5895,-4.5895,-4.5895,-4.5895,-4.5895,-4.5895,-4.5895,-4.5837,0.0,0.0,0.0,0.0,0.0,0.0,0.0,0.0,0.0,0.0,0.0,0.0,0.0,0.0,0.0,0.0,0.0,0.0,0.0,-3.6353,-3.7099,-3.8376,-3.8434,-3.8434,-3.8434,-3.9683,-4.0728,-4.1541,-4.395,-4.5024,-4.485,-4.2586,-4.0437,-3.8376,-3.7099,-3.6041,-3.5091,-3.4621,-3.3928,-3.3248,0.0,0.0,0.0,0.0,0.0,0.0,0.0,0.0,0.0,0.0,0.0,0.0,0.0,0.0,0.0,-3.4545,-3.4399,-3.4516,-3.498,-3.5793,-3.6577,-3.6722,-3.7999,-3.9102,-3.8725,-3.768,-3.707,-3.8202,-3.8783,0.0,0.0,-4.0931,0.0,0.0,0.0,0.0,0.0,0.0,0.0,0.0,0.0,0.0,0.0,0.0,0.0,0.0,0.0,0.0,-5.353,-5.263,-5.1664,-5.0531,-4.9814,-4.9117,-4.8228,-4.7956,-4.7782,-4.7782,-4.7637,-4.7317,-4.6749,-4.6185,-4.5895,-4.5895,-4.5895,-4.5895,-4.5895,-4.5895,-4.5895,-4.5895,-4.5895,-4.5895,-4.5895,-4.5895,-4.5895,-4.5808,0.0,0.0,0.0,0.0,0.0,0.0,0.0,0.0,0.0,0.0,0.0,0.0,0.0,0.0,0.0,0.0,0.0,0.0,0.0,-3.6503,-3.7796,-3.9073,-3.9131,-3.9131,-3.9131,-4.0379,-4.1628,-4.2847,-4.485,-4.5488,-4.485,-4.3485,-4.1512,-3.9073,-3.7796,-3.6121,-3.4284,-3.4353,-3.3928,-3.3213,-3.3248,0.0,0.0,0.0,0.0,0.0,0.0,0.0,0.0,0.0,0.0,0.0,0.0,0.0,-3.4457,-3.4428,-3.4399,-3.4806,-3.6606,-3.7157,-3.736,-3.7912,-3.7331,-3.7186,-3.945,-3.8986,-3.8783,-4.125,-4.1773,0.0,0.0,0.0,0.0,0.0,0.0,0.0,0.0,0.0,0.0,0.0,0.0,0.0,0.0,0.0,0.0,0.0,0.0,0.0,-5.35,-5.1788,-5.0481,-4.9756,-4.9117,-4.817,-4.6923,-4.7491,-4.7782,-4.7782,-4.7172,-4.6836,-4.6749,-4.6185,-4.5895,-4.5895,-4.5895,-4.5895,-4.5895,-4.5895,-4.5895,-4.5895,-4.5895,-4.5895,-4.5895,-4.5895,-4.5895,-4.5866,0.0,0.0,0.0,0.0,0.0,0.0,0.0,0.0,0.0,0.0,0.0,0.0,0.0,0.0,0.0,0.0,0.0,0.0,0.0,-3.6085,-3.7024,-3.7727,-3.7784,-3.8216,-3.9189,-4.1628,-4.3515,-4.4792,-4.5321,-4.5321,-4.485,-4.2209,-4.0003,-3.8336,-3.763,-3.6086,-3.4,-3.422,-3.3607,-3.2506,-3.2506,-3.2577,0.0,0.0,0.0,0.0,0.0,0.0,0.0,0.0,-3.3374,-3.3339,-3.3917,-3.4157,-3.4196,-3.4196,-3.4298,-3.4574,-3.5299,-3.6083,-3.6925,-3.7941,-3.8144,-3.858,-4.0321,-4.157,-4.276,-4.4153,-4.604,0.0,0.0,0.0,0.0,0.0,0.0,0.0,0.0,0.0,0.0,0.0,0.0,0.0,0.0,0.0,0.0,0.0,0.0,0.0,0.0,-5.0452,-4.963,-4.8537,-4.7869,-4.7271,-4.6778,-4.6679,-4.6592,-4.6592,-4.6766,-4.6621,-4.6243,-4.5982,-4.5895,-4.5895,-4.5895,-4.5895,-4.5895,-4.5895,-4.5895,-4.5895,-4.5895,-4.5895,-4.5895,-4.5895,-4.5895,-4.5895,0.0,0.0,0.0,0.0,0.0,0.0,0.0,0.0,0.0,0.0,0.0,0.0,0.0,0.0,0.0,0.0,0.0,0.0,-3.4928,-3.6368,-3.7333,-3.7593,-3.765,-3.8204,-3.9377,-4.2199,-4.4298,-4.5576,-4.5763,-4.5167,-4.3818,-4.1311,-3.9407,-3.799,-3.7244,-3.5947,-3.4297,-3.3936,-3.3083,-3.1978,-3.179,-3.1746,0.0,0.0,0.0,0.0,0.0,0.0,0.0,0.0,-3.281,-3.3051,-3.3403,-3.3785,-3.4094,-3.4094,-3.423,-3.4399,-3.4399,-3.5038,-3.6025,-3.7273,-3.8405,-3.9857,-4.2324,-4.4414,-4.6214,-4.7695,-4.904,-4.9794,-4.9127,0.0,0.0,0.0,0.0,0.0,0.0,0.0,0.0,0.0,0.0,0.0,0.0,0.0,0.0,0.0,0.0,0.0,0.0,-4.9291,-4.8595,-4.7521,-4.7056,-4.6691,-4.6534,-4.6098,-4.5895,-4.5895,-4.633,-4.6301,-4.5895,-4.5895,-4.5895,-4.5895,-4.5895,-4.5895,-4.5895,-4.5895,-4.5895,-4.5895,-4.5895,-4.5895,-4.5895,-4.5895,-4.5895,-4.5895,0.0,0.0,0.0,0.0,0.0,0.0,0.0,0.0,0.0,0.0,0.0,0.0,0.0,0.0,0.0,0.0,0.0,0.0,-3.4823,-3.7526,-3.9189,-3.9151,-3.9151,-3.9377,-3.9759,-4.1877,-4.3602,-4.4879,-4.614,-4.501,-4.1633,-4.1245,-4.0079,-3.8206,-3.6686,-3.5718,-3.5093,-3.3548,-3.2444,-3.1667,-3.113,-3.1267,-3.1599,0.0,0.0,0.0,0.0,0.0,0.0,0.0,-3.1599,-3.3466,-3.2881,-3.3339,-3.4094,-3.4094,-3.423,-3.4428,-3.4399,-3.4428,-3.4748,-3.6025,-3.7796,-4.0583,-4.5647,-4.7346,-4.8711,-5.1984,-5.039,-4.8702,-4.9591,-4.7969,0.0,0.0,0.0,0.0,0.0,0.0,0.0,0.0,0.0,0.0,0.0,0.0,0.0,0.0,0.0,0.0,0.0,-4.8478,-4.7491,-4.6807,-4.6778,-4.6505,-4.5895,-4.5895,-4.5895,-4.5895,-4.5895,-4.5895,-4.5895,-4.5895,-4.5895,-4.5895,-4.5895,-4.5895,-4.5895,-4.5895,-4.5895,-4.5895,-4.5895,-4.5895,-4.5895,-4.5895,-4.5895,-4.5895,0.0,0.0,0.0,0.0,0.0,0.0,0.0,0.0,0.0,0.0,0.0,0.0,0.0,0.0,0.0,0.0,0.0,0.0,-3.4706,-3.613,-3.687,-3.6702,-3.7242,-3.7636,-3.7765,-3.9854,-4.1946,-4.4003,-4.4328,-4.2547,-3.8833,-3.8931,-3.8306,-3.7108,-3.6975,-3.6072,-3.4627,-3.3331,-3.2356,-3.1628,-3.0535,-3.0457,-3.082,0.0,0.0,0.0,0.0,0.0,0.0,0.0,0.0,0.0,-3.1965,-3.2952,-3.3732,-3.3753,-3.4272,-3.4808,-3.4311,-3.486,-3.5992,-3.7875,-4.0118,-4.2963,-4.7201,-4.8304,-4.9756,-5.4313,-5.3053,-5.1215,-5.165,0.0,0.0,0.0,0.0,0.0,0.0,0.0,0.0,0.0,0.0,0.0,0.0,0.0,0.0,0.0,0.0,0.0,0.0,-4.7317,-4.6824,-4.6185,-4.6156,-4.6069,-4.5895,-4.5895,-4.5895,-4.5895,-4.5895,-4.5895,-4.5895,-4.5895,-4.5895,-4.5895,-4.5895,-4.5895,-4.5895,-4.5895,-4.5895,-4.5895,-4.5895,-4.5895,-4.5895,-4.5895,-4.5895,-4.5895,0.0,0.0,0.0,0.0,0.0,0.0,0.0,0.0,0.0,0.0,-3.1341,-3.1267,0.0,0.0,0.0,0.0,0.0,0.0,0.0,-3.6119,-3.666,-3.6518,-3.7012,-3.754,-3.8046,-3.9247,-4.0618,-4.2084,-4.204,-4.0371,-3.7219,-3.8093,-3.7984,-3.7037,-3.7536,-3.6858,-3.5174,-3.3766,-3.2669,-3.1818,-3.0831,-3.0517,-3.0522,0.0,0.0,0.0,0.0,0.0,0.0,0.0,0.0,0.0,-3.0932,-3.2061,-3.3118,-3.3135,-3.3832,-3.4513,-3.414,-3.4979,-3.6497,-3.8543,-4.1065,-4.4066,-4.8188,-5.0307,0.0,0.0,-5.4934,-5.2688,-5.2897,0.0,0.0,0.0,0.0,0.0,0.0,0.0,0.0,0.0,0.0,0.0,0.0,0.0,0.0,0.0,0.0,0.0,0.0,-4.6592,-4.6272,-4.5895,-4.5895,-4.5895,-4.5895,-4.5895,-4.5895,-4.5895,-4.5895,-4.5895,-4.5895,-4.5895,-4.5895,-4.5895,-4.5895,-4.5721,-4.5488,-4.5488,-4.5488,-4.5488,-4.5488,-4.5663,-4.5895,-4.5895,-4.5895,-4.5895,0.0,0.0,0.0,0.0,0.0,0.0,0.0,0.0,0.0,0.0,-3.0895,-3.0884,0.0,0.0,0.0,0.0,0.0,0.0,0.0,-3.6912,-3.7725,-3.7805,-3.7782,-3.8331,-3.9536,-3.9357,-3.9227,-3.9354,-3.9578,-3.8588,-3.6495,-3.8195,-3.8496,-3.7756,-3.8137,-3.7638,-3.6344,-3.4519,-3.3144,-3.2164,-3.1562,-3.1035,-3.0528,-3.0118,0.0,0.0,0.0,0.0,0.0,0.0,0.0,0.0,-2.9935,-3.0884,-3.23,-3.2354,-3.3086,-3.3899,-3.3968,-3.4966,-3.6489,-3.8573,-4.1418,-4.4792,-4.8943,-5.2659,-5.5939,-5.8377,0.0,-5.3353,-5.3477,0.0,0.0,0.0,0.0,0.0,0.0,0.0,0.0,0.0,0.0,0.0,0.0,0.0,0.0,0.0,0.0,0.0,0.0,-4.6214,-4.5895,-4.5895,-4.5895,-4.5895,-4.5895,-4.5895,-4.5895,-4.5895,-4.5837,-4.5808,-4.5808,-4.5808,-4.5808,-4.5808,-4.575,-4.5401,-4.4879,-4.4821,-4.4821,-4.4821,-4.4879,-4.5256,-4.5808,-4.5866,-4.5895,-4.585,0.0,0.0,0.0,0.0,0.0,0.0,0.0,0.0,0.0,0.0,0.0,0.0,0.0,0.0,0.0,0.0,0.0,0.0,0.0,-3.5898,-3.638,-3.708,-3.6917,-3.7126,-3.7905,-3.7395,-3.669,-3.5793,-3.7795,-3.7675,-3.5532,-3.7209,-3.7933,-3.7776,-3.7117,-3.6862,-3.6696,-3.3792,-3.2441,-3.2139,-3.116,-3.0708,-3.0518,-2.9831,-2.9347,0.0,0.0,0.0,0.0,0.0,0.0,0.0,-2.9549,-3.0406,-3.1355,-3.199,-3.2899,-3.3792,-3.4427,-3.5282,-3.6756,-3.9826,-4.4879,-4.9407,-5.0888,-5.263,-5.4226,-5.5329,-5.484,-5.4086,0.0,0.0,0.0,0.0,0.0,0.0,0.0,0.0,0.0,0.0,0.0,0.0,0.0,0.0,0.0,0.0,0.0,0.0,-4.6098,-4.5953,-4.5895,-4.5895,-4.5895,-4.5895,-4.5895,-4.5895,-4.5895,0.0,-4.5343,-4.5111,-4.5111,-4.5111,-4.5111,-4.5082,-4.4589,-4.4589,-4.485,-4.4385,-4.4182,-4.424,-4.4705,-4.4966,-4.5169,-4.5692,-4.5776,-4.5595,0.0,0.0,0.0,0.0,0.0,0.0,0.0,0.0,0.0,0.0,0.0,0.0,0.0,0.0,0.0,0.0,0.0,0.0,0.0,0.0,-3.5829,-3.6267,-3.7151,-3.7372,-3.678,-3.718,-3.7086,-3.64,-3.6603,-3.6446,-3.5983,-3.7268,-3.8067,-3.8517,-3.7848,-3.727,-3.659,-3.4344,-3.2943,-3.2164,-3.1612,-3.106,-3.0543,-3.0019,-2.9588,-2.9184,-2.891,0.0,0.0,0.0,0.0,0.0,0.0,0.0,-3.0405,-3.0823,-3.1591,-3.2498,-3.3398,-3.4916,-3.7291,-4.1782,-4.5895,-4.9146,-5.0394,-5.1207,-5.1875,-5.2543,-5.292,0.0,0.0,0.0,0.0,0.0,0.0,0.0,0.0,0.0,0.0,0.0,0.0,0.0,0.0,0.0,0.0,0.0,0.0,-4.5401,-4.5401,-4.5401,-4.5285,-4.4995,-4.5256,-4.5401,-4.5401,-4.5401,-4.5401,-4.5401,-4.5053,-4.456,-4.3979,-4.4298,-4.4472,-4.4443,-4.4124,-4.3979,-4.395,-4.3631,-4.3515,-4.3573,-4.4211,-4.4647,-4.4966,-4.5634,-4.573,-4.5504,0.0,0.0,0.0,0.0,0.0,0.0,0.0,0.0,0.0,0.0,0.0,0.0,0.0,0.0,0.0,0.0,0.0,0.0,0.0,0.0,0.0,-3.5561,-3.7304,-3.7645,-3.6289,-3.7226,-3.7826,-3.7953,-3.5949,-3.5821,-3.7433,-3.7726,-3.8282,-3.9065,-3.874,-3.7762,-3.6157,-3.5052,-3.3671,-3.2215,-3.2114,-3.1486,-3.0568,-3.0284,-2.9841,-2.9302,-2.8949,-2.8791,-2.8736,-2.8538,0.0,0.0,0.0,0.0,-2.951,-2.9665,-3.0177,-3.0996,-3.2109,-3.4544,-3.7978,-4.3113,-4.5547,0.0,-4.8798,-4.9349,-4.9611,-4.993,0.0,0.0,0.0,0.0,0.0,0.0,0.0,0.0,0.0,0.0,0.0,0.0,0.0,0.0,0.0,0.0,0.0,0.0,0.0,-4.4734,-4.4734,-4.4734,-4.4501,-4.4008,-4.4472,-4.4734,-4.4734,-4.4734,-4.4734,-4.4734,-4.4618,-4.395,-4.2847,-4.3398,-4.3718,-4.3805,-4.3718,-4.3398,-4.2992,-4.2876,-4.2847,-4.2905,-4.3573,-4.4124,-4.4647,-4.5314,-4.5367,-4.5096,0.0,0.0,0.0,0.0,0.0,0.0,0.0,0.0,0.0,0.0,-3.117,-3.17,0.0,0.0,0.0,0.0,0.0,0.0,0.0,0.0,0.0,-3.5347,-3.5574,-3.6042,-3.6847,-3.5769,-3.5689,-3.6654,-3.6323,-3.7509,-3.9952,-3.814,-3.7586,-3.8138,-3.7637,-3.6759,-3.5533,-3.4474,-3.3319,-3.2164,-3.1687,-3.1135,-3.0557,-3.0041,-2.9557,-2.9131,-2.9091,-2.8855,-2.8538,-2.8498,-2.8522,0.0,0.0,0.0,-2.8816,-2.9471,-2.9896,-3.047,-3.2064,-3.5102,-3.8552,-4.1683,-4.424,-4.6214,0.0,0.0,-4.8566,0.0,0.0,0.0,0.0,0.0,0.0,0.0,0.0,0.0,0.0,0.0,0.0,0.0,0.0,0.0,0.0,0.0,0.0,0.0,-4.4153,-4.4124,-4.4124,-4.4124,-4.4066,-4.3979,-4.4066,-4.4124,-4.4124,-4.4124,-4.4124,-4.4095,-4.3515,-4.2876,-4.2208,-4.2295,-4.2644,-4.3079,-4.2586,-4.2586,-4.2963,-4.244,-4.2208,-4.2266,-4.2876,-4.3166,-4.3311,-4.4008,-4.3979,-4.3684,0.0,0.0,0.0,0.0,0.0,0.0,0.0,0.0,0.0,0.0,0.0,-3.229,0.0,0.0,0.0,0.0,0.0,0.0,0.0,0.0,0.0,-3.4821,-3.5093,-3.5228,-3.5244,-3.541,-3.5468,-3.5454,-3.6103,-3.7613,-4.0049,-3.9672,-3.9973,-4.0701,-3.8592,-3.7211,-3.6358,-3.4625,-3.3068,-3.1738,-3.1486,-3.0884,-3.0131,-2.988,-2.9663,-2.9468,-2.917,-2.8973,-2.8776,-2.8602,-2.8522,-2.8522,-2.8522,0.0,0.0,0.0,-2.9106,-2.9749,-3.2302,-3.4563,-3.6993,0.0,-4.2092,-4.3456,-4.4443,0.0,-4.5924,0.0,0.0,0.0,0.0,0.0,0.0,0.0,0.0,0.0,0.0,0.0,0.0,0.0,0.0,0.0,0.0,0.0,0.0,0.0,-4.3631,-4.3427,-4.3427,-4.3427,-4.3282,-4.2934,-4.3253,-4.3427,-4.3427,-4.3427,-4.3427,-4.3427,-4.2789,-4.2353,-4.2092,-4.2092,-4.2237,-4.2469,-4.2208,-4.2237,-4.2469,-4.2208,-4.2092,-4.215,-4.276,-4.2992,-4.3079,-4.3589,-4.3559,-4.331,0.0,0.0,0.0,0.0,0.0,0.0,0.0,0.0,0.0,0.0,0.0,0.0,0.0,0.0,0.0,0.0,0.0,0.0,0.0,0.0,0.0,-3.4063,-3.4493,-3.4478,-3.3897,-3.4956,-3.5237,-3.468,-3.583,-3.7762,-4.0325,-4.1153,-4.2509,-4.4066,-4.0601,-3.8442,-3.7262,-3.5353,-3.3721,-3.239,-3.1838,-3.1035,-3.0181,-3.0055,-2.9966,-2.9863,-2.9337,0.0,0.0,0.0,0.0,0.0,0.0,0.0,0.0,0.0,0.0,-2.916,-3.1824,-3.3371,-3.4994,-3.8006,-3.9584,-4.0699,0.0,0.0,0.0,0.0,0.0,0.0,0.0,0.0,0.0,0.0,0.0,0.0,0.0,0.0,0.0,0.0,0.0,0.0,0.0,0.0,0.0,0.0,-4.305,-4.276,-4.276,-4.276,-4.2557,-4.2121,-4.2528,-4.276,-4.276,-4.2586,-4.2411,-4.2266,-4.1976,-4.1831,-4.186,-4.2005,-4.2092,-4.2092,-4.2092,-4.2092,-4.2092,-4.2092,-4.2092,-4.215,-4.2586,-4.276,-4.2776,-4.3026,-4.307,-4.3024,0.0,0.0,0.0,0.0,0.0,0.0,0.0,0.0,0.0,0.0,0.0,0.0,-3.3086,-3.3068,-3.3454,-3.4272,0.0,0.0,0.0,0.0,0.0,-3.3154,-3.3179,0.0,-3.3897,-3.3966,-3.4243,-3.468,-3.583,-3.8366,-4.2087,-4.2137,-4.4091,-4.7481,-4.3696,-4.045,-3.7889,-3.6759,-3.5859,-3.5107,-3.3018,-3.1813,-3.126,-3.0758,-3.0438,-3.0204,0.0,0.0,0.0,0.0,0.0,0.0,0.0,0.0,0.0,0.0,0.0,0.0,-2.9908,-3.1453,0.0,-3.4696,-3.6721,0.0,0.0,0.0,0.0,0.0,0.0,0.0,0.0,0.0,0.0,0.0,0.0,0.0,0.0,0.0,0.0,0.0,0.0,0.0,0.0,0.0,0.0,0.0,-4.2179,-4.215,-4.215,-4.215,-4.2121,-4.2092,-4.2121,-4.215,-4.215,-4.1512,-4.0873,-4.0263,-4.0873,-4.1163,-4.1163,-4.1802,-4.2092,-4.2092,-4.2092,-4.2092,-4.2092,-4.2092,-4.2092,-4.2092,-4.2121,-4.215,-4.2109,-4.1872,-4.2023,-4.2324,0.0,0.0,0.0,0.0,0.0,0.0,0.0,0.0,0.0,0.0,0.0,0.0,0.0,-3.3111,-3.324,-3.3539,-3.3283,0.0,0.0,0.0,0.0,-3.3111,-3.3111,-3.3212,-3.337,-3.337,-3.347,-3.3671,-3.4776,-3.6734,-3.9521,-4.0601,-4.2032,-4.3582,-4.2258,-4.0877,-3.9421,-3.6558,-3.4801,-3.3847,-3.2692,-3.1888,-3.1361,-3.1185,0.0,0.0,0.0,0.0,0.0,0.0,0.0,0.0,0.0,0.0,0.0,0.0,0.0,-2.8831,0.0,0.0,0.0,-3.3207,-3.4836,-3.6306,0.0,0.0,0.0,0.0,0.0,0.0,0.0,0.0,0.0,0.0,0.0,0.0,0.0,0.0,0.0,0.0,0.0,0.0,0.0,0.0,0.0,0.0,0.0,-4.1453,-4.1453,-4.186,-4.1889,-4.1453,-4.1453,-4.1453,-4.1453,-4.0786,-4.0554,-4.0728,-4.0989,-4.0873,-4.0495,-4.1599,-4.1778,-4.1307,-4.1877,-4.2092,-4.2092,-4.2092,-4.2092,-4.2092,-4.2092,-4.2092,-4.2051,-4.1647,-4.1678,-4.1837,0.0,0.0,0.0,0.0,0.0,0.0,0.0,0.0,0.0,-3.2993,0.0,0.0,0.0,0.0,-3.3111,-3.3111,-3.3111,-3.3368,-3.3937,-3.3411,-3.3111,-3.3111,-3.3111,-3.3111,-3.3111,-3.3111,-3.3111,-3.3111,-3.3997,-3.5579,-3.7764,-3.9069,-4.0375,-4.158,-4.0852,-4.0526,-4.0325,-3.7563,-3.5755,-3.4625,-3.352,0.0,-3.2516,0.0,0.0,0.0,0.0,0.0,0.0,0.0,0.0,0.0,0.0,0.0,0.0,0.0,0.0,0.0,-2.9496,0.0,0.0,0.0,0.0,-3.4076,0.0,0.0,0.0,0.0,0.0,0.0,0.0,0.0,0.0,0.0,0.0,0.0,0.0,0.0,0.0,0.0,0.0,0.0,0.0,0.0,0.0,0.0,0.0,0.0,-4.0636,-4.103,-4.1059,-4.0665,-4.0717,-4.067,-4.0466,-4.0031,-3.9915,-4.0118,-4.0554,-4.0525,-4.0147,-4.1482,-4.1736,-4.1126,-4.1724,-4.1939,-4.1939,-4.1939,-4.2009,-4.2092,-4.198,-4.2009,-4.2051,-4.1564,-4.1594,-4.178,0.0,0.0,0.0,0.0,0.0,0.0,0.0,0.0,-3.2441,-3.2993,0.0,0.0,0.0,0.0,0.0,-3.3093,-3.3093,-3.3136,-3.3111,-3.3111,-3.3111,-3.3111,0.0,0.0,-3.3111,-3.3111,-3.3111,-3.3111,-3.3621,-3.4977,-3.7136,-3.7663,-3.9371,-4.1961,-3.9824,-3.9396,-4.035,-3.9798,-3.8944,-3.7764,0.0,-3.4751,-3.4776,0.0,0.0,0.0,-3.3922,-3.3064,0.0,0.0,0.0,0.0,0.0,0.0,0.0,0.0,0.0,0.0,0.0,0.0,0.0,0.0,0.0,0.0,0.0,0.0,0.0,0.0,0.0,0.0,0.0,0.0,0.0,0.0,0.0,0.0,0.0,0.0,0.0,0.0,0.0,0.0,0.0,0.0,0.0,0.0,-3.9892,-3.9773,-3.9773,-3.9573,-3.9573,-3.9801,-3.9942,-3.977,-3.9218,-3.9189,-3.8841,-3.8231,-3.9479,-4.006,-4.0118,-4.1453,-4.191,-4.1673,-4.1673,-4.1702,-4.1702,-4.1702,-4.1856,-4.2051,-4.1785,-4.1856,-4.2009,-4.1564,-4.1767,-4.2138,0.0,0.0,0.0,0.0,0.0,0.0,-3.2215,-3.2566,-3.2893,0.0,0.0,0.0,-3.3671,-3.4022,-3.4098,-3.3696,-3.3671,-3.3495,-3.3136,-3.3111,-3.3111,-3.3111,-3.3111,-3.3111,-3.3111,-3.3111,-3.3111,-3.3111,-3.3244,-3.4022,-3.5403,-3.5554,-3.6684,-3.8592,-3.7914,-3.7588,-3.7511,-3.6935,0.0,-3.6732,-3.5278,-3.5203,0.0,0.0,0.0,0.0,0.0,-3.3346,-3.1861,0.0,-3.0776,-2.9456,0.0,0.0,0.0,0.0,0.0,0.0,-2.8697,0.0,0.0,0.0,0.0,0.0,0.0,0.0,0.0,0.0,0.0,0.0,0.0,0.0,0.0,0.0,0.0,0.0,0.0,0.0,0.0,0.0,0.0,0.0,0.0,0.0,0.0,0.0,-3.9256,-3.9139,-3.9139,-3.8982,-3.8943,-3.9139,-3.8717,-3.8746,-3.9189,-3.8725,-3.8638,-3.8928,-3.9276,-3.945,-3.9509,-4.0654,-4.0999,-4.0793,-4.1251,-4.1367,-4.1212,-4.1409,-4.1577,-4.1785,-4.1564,-4.1647,-4.1744,-4.1254,-4.1355,-4.1539,0.0,0.0,0.0,0.0,0.0,-3.3269,-3.3269,-3.3545,-3.3771,0.0,0.0,0.0,-3.4876,-3.5203,-3.5177,-3.4625,-3.4374,-3.3997,-3.3445,-3.342,-3.3319,-3.3136,-3.3111,-3.3111,-3.3111,-3.3111,-3.3111,-3.3111,-3.3111,-3.3395,-3.4048,-3.4048,-3.4675,-3.5805,-3.5805,-3.5629,-3.5328,-3.5433,0.0,0.0,-3.583,0.0,0.0,-3.6508,-3.6107,0.0,0.0,0.0,-3.3975,-3.3157,-3.1589,0.0,0.0,0.0,0.0,0.0,0.0,0.0,0.0,0.0,0.0,0.0,0.0,0.0,-3.0932,-3.1415,-3.2073,0.0,0.0,0.0,0.0,0.0,0.0,0.0,0.0,0.0,0.0,0.0,0.0,0.0,0.0,0.0,0.0,-3.8165,-3.8078,-3.8263,-3.8102,-3.7997,-3.81,-3.809,-3.8129,-3.8245,-3.8016,-3.814,-3.863,-3.8368,-3.8405,-3.8783,-3.8996,-3.9074,-3.9131,-4.0164,-4.0576,-4.0481,-4.1026,-4.1156,-4.1001,-4.1071,-4.1283,-4.1535,-4.1325,-4.1367,-4.1535,-4.1128,-4.1085,-4.1198,0.0,0.0,-3.1989,-3.3621,-3.4349,-3.4705,-3.4756,-3.4781,-3.4781,0.0,-3.5002,-3.5479,-3.6581,-3.6681,-3.6383,-3.5658,-3.5132,-3.465,-3.4022,-3.3922,-3.3671,-3.3194,-3.3262,-3.3244,-3.3212,-3.3262,-3.3244,-3.3212,-3.3119,-3.3119,-3.3212,-3.3136,-3.337,-3.3897,-3.3847,-3.3796,-3.3872,0.0,0.0,-3.5508,-3.6709,-3.7262,0.0,0.0,-3.8467,0.0,-3.8592,-3.804,-3.6759,-3.43,-3.2192,0.0,0.0,0.0,0.0,0.0,-2.8691,0.0,0.0,0.0,0.0,0.0,0.0,0.0,-3.0921,-3.122,-3.1589,0.0,0.0,0.0,0.0,0.0,0.0,0.0,0.0,0.0,0.0,0.0,0.0,0.0,0.0,0.0,-3.5964,-3.6208,-3.6476,-3.6872,-3.6765,-3.6788,-3.6905,-3.7144,-3.725,-3.7289,-3.7663,-3.7891,-3.7891,-3.8089,-3.8202,-3.8202,-3.8592,-3.8832,-3.8909,-3.986,-4.0339,-4.044,-4.0773,-4.0901,-4.0958,-4.0773,-4.0972,-4.1354,-4.1043,-4.1114,-4.1311,-4.1043,-4.0958,-4.0916,0.0,0.0,-3.2441,-3.3671,-3.4349,-3.4831,-3.5282,-3.5332,-3.5508,-3.5981,-3.681,-3.7638,-3.8316,-3.8416,-3.7838,-3.6332,-3.6153,-3.5629,-3.4625,-3.4148,-3.3847,-3.3746,-3.4173,-3.4198,-3.3746,-3.4173,-3.4198,-3.3746,-3.3294,-3.3294,-3.3721,-3.3294,-3.337,-3.3872,-3.3445,-3.3244,-3.3319,0.0,0.0,-3.4981,-3.6558,0.0,-3.8517,-3.8266,-3.809,-3.8015,-3.814,-3.7462,-3.6135,0.0,-3.2258,-3.1539,0.0,0.0,0.0,0.0,0.0,0.0,0.0,0.0,0.0,0.0,0.0,0.0,-2.9457,-2.9457,-2.9588,0.0,0.0,0.0,0.0,0.0,0.0,0.0,0.0,0.0,0.0,0.0,0.0,0.0,0.0,0.0,-3.6,-3.6208,-3.6338,-3.6418,-3.6618,-3.6589,-3.6286,-3.6764,-3.7134,-3.7289,-3.7548,-3.7739,-3.7891,-3.8089,-3.8202,-3.8202,-3.8281,-3.8514,-3.888,-3.8903,-3.9361,-4.0164,-4.0069,-4.0323,-4.0773,-4.0688,-4.0859,-4.1043,-4.0859,-4.0901,-4.1043,-4.0859,-4.0773,-4.073,0.0,-3.2014,-3.2742,-3.4424,-3.5177,-3.583,-3.6611,-3.6737,-3.7061,-3.7914,-3.8994,-3.9772,-4.0074,-3.9371,-3.8466,-3.7287,-3.6732,-3.6006,-3.5132,-3.5127,-3.5002,-3.4726,-3.5253,-3.5429,-3.5152,-3.5152,-3.4831,-3.4299,-3.4022,-3.3746,-3.3495,-3.3771,-3.3746,-3.3495,-3.3495,-3.3495,-3.3545,0.0,-3.4831,-3.5232,-3.6935,0.0,-3.8467,-3.8743,-3.8843,-3.8818,-3.8542,-3.7563,-3.616,-3.4548,-3.3388,0.0,0.0,-3.0687,-3.0465,0.0,-3.0086,-3.0086,0.0,0.0,0.0,-2.9544,0.0,0.0,0.0,-2.9341,-2.9471,-3.0291,0.0,0.0,0.0,0.0,0.0,0.0,0.0,0.0,0.0,0.0,0.0,0.0,0.0,0.0,-3.4938,-3.5113,-3.5363,-3.5681,-3.5926,-3.5966,-3.5751,-3.6268,-3.6606,-3.6682,-3.73,-3.7663,-3.7739,-3.8052,-3.8202,-3.8202,-3.7976,-3.7997,-3.8265,-3.82,-3.8762,-3.9669,-3.9856,-4.0336,-4.1057,-4.0901,-4.0916,-4.1001,-4.0773,-4.0773,-4.0859,-4.073,-4.0688,-4.0688,0.0,0.0,-3.3018,-3.4981,-3.5956,-3.6759,-3.7839,-3.809,-3.8617,-3.9848,-4.0724,-4.1326,-4.148,-4.0124,-3.9044,-3.8693,-3.7337,-3.6458,0.0,0.0,-3.6006,-3.5487,-3.6081,-3.6332,-3.6163,-3.5934,-3.5483,-3.4831,-3.4831,-3.4424,-3.3571,-3.4248,-3.4248,-3.3765,-3.3847,-3.4022,-3.4248,0.0,0.0,-3.5633,0.0,-3.7839,-3.7965,-3.9094,-3.9546,-3.9471,-3.8843,-3.779,-3.6589,-3.5814,0.0,-3.3342,-3.243,-3.1697,0.0,0.0,0.0,0.0,0.0,0.0,0.0,0.0,0.0,-2.9675,0.0,0.0,0.0,-3.0291,0.0,0.0,0.0,0.0,0.0,0.0,0.0,0.0,0.0,0.0,0.0,0.0,0.0,0.0,0.0,-3.402,-3.4324,-3.4842,-3.5153,-3.5277,-3.524,-3.5723,-3.6014,-3.6117,-3.6978,-3.7444,-3.7548,-3.7938,-3.8127,-3.8127,-3.7749,-3.7625,-3.7586,-3.7749,-3.8251,-3.9175,-3.9643,-4.0419,-4.1269,-4.1029,-4.0916,-4.0916,-4.0773,-4.0688,-4.0688,-4.0688,-4.0688,-4.0688,-3.229,-3.2616,0.0,-3.46,-3.568,-3.6782,-3.7839,-3.8442,-3.9346,-4.0899,-4.12,-4.153,-4.2062,0.0,0.0,0.0,0.0,0.0,-3.912,0.0,0.0,-3.5254,-3.5965,-3.6088,-3.5354,-3.6438,-3.6483,-3.5408,-3.5408,-3.5332,-3.5207,-3.4399,-3.47,-3.5977,-3.4525,0.0,0.0,0.0,-3.5433,0.0,-3.681,-3.7287,0.0,-3.8592,-3.902,-3.8894,-3.8042,-3.7767,-3.7516,0.0,-3.4988,-3.4519,0.0,-3.3092,0.0,0.0,0.0,0.0,0.0,0.0,0.0,0.0,-3.073,0.0,0.0,0.0,-2.8657,-2.8736,0.0,0.0,0.0,0.0,0.0,0.0,0.0,0.0,0.0,0.0,0.0,0.0,0.0,0.0,0.0,-3.402,-3.4122,-3.4209,-3.4638,-3.4768,-3.4589,-3.5147,-3.5667,-3.6089,-3.658,-3.6978,-3.7327,-3.7739,-3.7929,-3.7929,-3.7701,-3.7625,-3.7586,-3.7451,-3.7935,-3.8943,-3.9027,-3.9703,-4.0773,-4.073,-4.073,-4.073,-4.0688,-4.0688,-4.0688,-4.0688,-4.0688,-4.0688,-3.2767,-3.2918,0.0,0.0,-3.5353,-3.6257,-3.7362,-3.9647,-4.1505,-4.2208,-4.2836,-4.3589,0.0,0.0,0.0,0.0,0.0,-3.8717,0.0,0.0,0.0,0.0,0.0,0.0,-3.6599,-3.6997,-3.6748,-3.5796,-3.6121,-3.5843,-3.5031,-3.5253,-3.5353,-3.5403,-3.5027,0.0,-3.5508,0.0,-3.5683,0.0,0.0,0.0,0.0,-3.8166,-3.834,-3.784,-3.7493,-3.7072,-3.6454,0.0,-3.5137,0.0,0.0,0.0,0.0,0.0,0.0,0.0,0.0,0.0,0.0,0.0,0.0,0.0,0.0,0.0,-2.8883,0.0,0.0,0.0,0.0,0.0,0.0,0.0,0.0,0.0,0.0,0.0,0.0,0.0,0.0,0.0,0.0,0.0,0.0,0.0,-3.4278,-3.4247,-3.4142,-3.4497,-3.4973,-3.5555,-3.6184,-3.6779,-3.7289,-3.7586,-3.7739,-3.7739,-3.751,-3.7433,-3.7433,-3.7211,-3.776,-3.8902,-3.9024,-3.9771,-4.0873,-4.0873,-4.0873,-4.083,-4.073,-4.0688,-4.0688,-4.0688,-4.0688,-4.0688,-3.3111,0.0,0.0,0.0,0.0,-3.5984,0.0,0.0,-4.2133,-4.2886,0.0,0.0,-4.6125,-4.4217,0.0,0.0,-4.1993,-4.034,0.0,0.0,-3.7742,0.0,0.0,0.0,0.0,0.0,-3.6604,-3.5908,-3.6404,-3.6154,-3.5173,-3.5719,-3.5815,-3.549,0.0,-3.5762,-3.5959,0.0,-3.6358,-3.6631,-3.6631,-3.6743,-3.6998,-3.7914,-3.7936,-3.744,-3.7192,-3.6628,-3.5941,-3.5478,-3.5332,0.0,-3.4655,0.0,0.0,0.0,0.0,0.0,-3.302,0.0,0.0,0.0,0.0,0.0,0.0,0.0,0.0,0.0,0.0,0.0,0.0,0.0,0.0,0.0,0.0,0.0,0.0,0.0,0.0,0.0,0.0,0.0,0.0,0.0,0.0,0.0,0.0,-3.3779,-3.3882,-3.403,-3.4389,-3.4908,-3.5713,-3.641,-3.6957,-3.7319,-3.751,-3.751,-3.7289,-3.725,-3.7289,-3.7095,-3.7721,-3.8902,-3.9024,-3.9813,-4.0916,-4.0916,-4.0916,-4.0873,-4.0773,-4.0688,-4.0688,-4.0688,-4.0688,-4.0688,-3.3111,-3.3111,0.0,0.0,0.0,0.0,0.0,0.0,0.0,0.0,0.0,0.0,0.0,0.0,0.0,0.0,0.0,-4.3087,-4.3564,0.0,-3.8539,0.0,0.0,-3.621,0.0,0.0,0.0,-3.562,-3.6161,-3.6407,-3.6333,-3.5301,-3.5789,-3.7444,-3.6425,-3.642,-3.7161,-3.7688,-3.7638,-3.7161,-3.7161,-3.7194,-3.7267,0.0,-3.8054,-3.798,-3.7112,0.0,0.0,-3.5961,-3.5742,0.0,0.0,0.0,0.0,0.0,0.0,0.0,0.0,0.0,0.0,-3.3501,0.0,0.0,0.0,0.0,-2.9917,0.0,0.0,0.0,0.0,0.0,0.0,0.0,0.0,0.0,0.0,0.0,0.0,0.0,0.0,0.0,0.0,0.0,0.0,0.0,0.0,0.0,-3.3854,-3.3911,-3.3987,-3.4253,-3.5091,-3.575,-3.6117,-3.6929,-3.7289,-3.7289,-3.7095,-3.7095,-3.7289,-3.7095,-3.7721,-3.8902,-3.8902,-3.9605,-4.0688,-4.0688,-4.0688,-4.0688,-4.0688,-4.0688,-4.0688,-4.0688,-4.0688,-4.0688,0.0,0.0,0.0,0.0,0.0,0.0,0.0,-3.9798,0.0,0.0,0.0,0.0,0.0,-4.9696,-4.8779,0.0,0.0,-4.5047,-4.3251,-4.1373,0.0,0.0,0.0,-3.6405,0.0,0.0,0.0,0.0,0.0,-3.6039,-3.5891,-3.5522,-3.5789,-3.6525,0.0,-3.6245,0.0,0.0,0.0,0.0,0.0,-3.6848,-3.7478,0.0,0.0,-3.6931,-3.6635,-3.6396,0.0,-3.5715,-3.5907,-3.6126,-3.5304,-3.5088,-3.4895,-3.4198,-3.4246,0.0,0.0,0.0,-3.4174,-3.3838,0.0,0.0,0.0,0.0,0.0,0.0,0.0,0.0,0.0,0.0,0.0,0.0,0.0,0.0,0.0,0.0,0.0,0.0,0.0,0.0,0.0,0.0,0.0,0.0,0.0,0.0,0.0,-3.364,-3.3713,-3.4189,-3.4486,-3.5113,-3.6089,-3.639,-3.6701,-3.7095,-3.7017,-3.7017,-3.7095,-3.7017,-3.7428,-3.8243,-3.8733,-3.938,-4.0126,-4.0547,-4.0315,-3.9722,-3.9722,-3.9722,-3.9809,-4.0473,-4.0688,-4.0688,-3.3415,0.0,0.0,0.0,0.0,0.0,0.0,0.0,0.0,0.0,-4.8159,0.0,-5.3356,0.0,-5.1222,0.0,-4.9411,-4.7027,-4.3615,-4.2842,0.0,-3.9181,-3.8279,0.0,0.0,0.0,0.0,0.0,0.0,-3.5648,-3.5332,-3.5332,-3.5524,-3.5885,0.0,-3.6225,-3.643,0.0,-3.6595,0.0,0.0,-3.6597,0.0,0.0,-3.6925,-3.694,0.0,-3.6338,-3.5881,-3.5689,-3.5833,-3.5978,-3.5112,-3.5015,-3.5208,-3.4462,-3.451,-3.4703,-3.4366,-3.427,0.0,-3.3861,-3.326,0.0,-3.1886,0.0,0.0,0.0,0.0,0.0,0.0,0.0,0.0,0.0,0.0,0.0,0.0,-2.7402,0.0,0.0,0.0,0.0,0.0,0.0,0.0,0.0,0.0,0.0,0.0,0.0,-3.3529,-3.3852,-3.4076,-3.4731,-3.578,-3.6005,-3.6427,-3.6978,-3.6978,-3.6978,-3.6978,-3.6978,-3.7316,-3.7934,-3.8355,-3.9043,-3.9816,-4.021,-3.9905,-3.921,-3.921,-3.8988,-3.881,-3.9809,-4.0386,-4.0688,0.0,0.0,0.0,0.0,-3.5968,0.0,0.0,0.0,-4.5271,0.0,-4.9327,-5.1575,-5.3688,-5.3205,-5.2604,-5.2456,-5.1541,0.0,-4.5024,-4.5353,0.0,0.0,-3.9764,-3.931,-3.8465,0.0,0.0,0.0,0.0,0.0,-3.4823,-3.4799,-3.5066,-3.5597,-3.6113,0.0,-3.6433,-3.7169,-3.722,-3.6749,-3.6724,-3.6425,-3.6013,-3.574,-3.6579,-3.7878,-3.7348,-3.6819,-3.629,-3.5809,-3.5641,-3.5521,-3.4967,-3.4799,-3.4799,-3.4799,-3.4799,-3.4775,-3.4775,-3.4775,-3.4534,-3.3573,0.0,0.0,0.0,0.0,-3.1548,0.0,0.0,0.0,0.0,0.0,0.0,0.0,0.0,0.0,0.0,0.0,0.0,0.0,0.0,0.0,0.0,0.0,0.0,0.0,0.0,0.0,0.0,0.0,-3.3431,-3.329,-3.3844,-3.4497,-3.5189,-3.5808,-3.636,-3.694,-3.6978,-3.694,-3.6861,-3.69,-3.7209,-3.773,-3.7786,-3.8527,-3.969,-3.9746,-3.9529,-3.9121,-3.9121,-3.8541,-3.7841,-3.8854,-3.9853,-4.0688,-3.3584,-3.4431,-3.5524,0.0,-3.7091,-3.8316,0.0,0.0,0.0,0.0,-5.2184,-5.4448,-5.6726,-5.5782,-5.4549,-5.3375,-5.2088,0.0,0.0,0.0,0.0,-4.3784,-4.2193,-4.0748,-3.9334,-3.8171,0.0,-3.6194,0.0,0.0,-3.54,-3.5016,-3.4969,-3.5332,0.0,0.0,-3.5812,-3.606,-3.594,-3.5575,-3.538,-3.5716,0.0,0.0,-3.6362,-3.7324,-3.6795,-3.6266,-3.5857,-3.6122,-3.593,-3.5593,-3.5449,-3.5136,-3.4847,-3.5304,-3.5087,-3.4775,-3.4775,-3.4775,-3.4631,-3.3958,-3.3573,-3.3116,0.0,0.0,0.0,0.0,0.0,0.0,0.0,0.0,0.0,0.0,0.0,0.0,0.0,0.0,0.0,0.0,0.0,0.0,0.0,0.0,0.0,0.0,0.0,0.0,0.0,0.0,0.0,-3.3255,-3.332,-3.3928,-3.5189,-3.5808,-3.6091,-3.6044,-3.6705,-3.6322,-3.502,-3.5736,-3.5737,-3.5287,-3.6167,-3.7138,-3.8169,-3.9031,-3.8853,-3.816,-3.816,-3.7566,-3.6871,-3.8585,-3.9853,-4.0772,-3.4219,0.0,0.0,-3.7866,0.0,0.0,-4.2103,0.0,0.0,-5.0419,-5.2754,0.0,-5.5458,-5.5409,-5.4764,-5.3376,-5.2381,0.0,0.0,0.0,0.0,-4.5173,-4.3986,-4.2495,-4.0691,-3.9369,0.0,-3.6411,0.0,0.0,-3.5256,-3.4919,-3.492,0.0,0.0,-3.538,0.0,-3.5476,-3.5405,-3.5356,-3.4968,0.0,0.0,-3.54,-3.5641,-3.6146,-3.6074,-3.5881,-3.5665,-3.5954,-3.5713,-3.528,-3.528,-3.5015,-3.4847,-3.5184,-3.5015,-3.4775,-3.4775,-3.4775,-3.4607,-3.3885,-3.3501,-3.3092,-3.2322,-3.1934,-3.1621,0.0,0.0,0.0,0.0,0.0,0.0,0.0,0.0,0.0,0.0,0.0,0.0,0.0,0.0,0.0,0.0,0.0,0.0,0.0,0.0,0.0,0.0,0.0,0.0,-3.3255,-3.3386,-3.3991,-3.5189,-3.5652,-3.5873,-3.5696,-3.5776,-3.5305,-3.4293,-3.4856,-3.4815,-3.4345,-3.5286,-3.6111,-3.6946,-3.7811,-3.7761,-3.7103,-3.6637,-3.6553,-3.6754,-3.7857,-3.9212,-4.0454,0.0,0.0,0.0,0.0,0.0,0.0,0.0,-4.612,0.0,-5.0322,0.0,-5.3515,-5.2862,-5.3863,-5.4144,-5.3011,0.0,-5.096,-4.8122,-4.9205,-4.8676,-4.579,-4.5453,-4.4323,-4.211,-4.0523,0.0,0.0,0.0,-3.5978,-3.4871,-3.4871,0.0,0.0,0.0,0.0,0.0,-3.5308,-3.5356,-3.5473,-3.5039,-3.4847,-3.4775,-3.4775,-3.4775,-3.4847,-3.5352,-3.5521,-3.5521,-3.5593,-3.5256,-3.4799,-3.4847,-3.4847,-3.4799,-3.4871,-3.4847,-3.4775,-3.4775,-3.4775,-3.4558,-3.3621,-3.338,-3.3092,-3.2054,-3.1813,-3.1789,-3.1717,-3.1356,-3.0995,0.0,0.0,0.0,0.0,0.0,0.0,0.0,0.0,0.0,0.0,0.0,0.0,0.0,0.0,0.0,0.0,0.0,0.0,0.0,0.0,0.0,-3.3086,-3.3455,-3.4126,-3.5077,0.0,-3.5588,-3.564,-3.4794,-3.4324,-3.415,-3.4276,-3.4276,-3.4202,-3.4753,-3.5357,-3.6051,-3.6534,-3.655,-3.6191,-3.5211,-3.5624,-3.6794,-3.6869,-3.8166,-3.9784,0.0,0.0,0.0,0.0,0.0,-4.4377,-4.7449,-4.915,-5.0604,-5.1985,-5.445,-5.5924,-5.5502,-5.491,-5.4151,-5.3128,-5.2211,0.0,0.0,0.0,0.0,-4.8459,-4.7136,-4.5237,-4.2747,-4.1076,-3.92,0.0,-3.706,-3.6507,-3.5473,-3.5473,0.0,0.0,0.0,0.0,-3.4945,-3.5354,0.0,-3.4943,-3.5352,-3.5208,-3.4775,-3.4775,-3.4775,-3.4799,-3.4944,-3.4919,-3.504,-3.5473,-3.5256,-3.4847,-3.5352,-3.5184,-3.4871,-3.5352,-3.516,-3.4775,-3.4775,-3.4775,-3.4631,-3.4006,-3.3862,-3.3598,-3.2587,-3.2346,-3.2226,-3.1813,-3.1645,-3.1428,-3.0995,0.0,0.0,0.0,0.0,0.0,0.0,0.0,0.0,0.0,0.0,0.0,0.0,0.0,0.0,0.0,0.0,0.0,0.0,0.0,0.0,0.0,-3.1993,0.0,0.0,0.0,-3.4855,-3.546,-3.5132,-3.4448,-3.3475,-3.422,-3.4175,-3.35,-3.3991,-3.47,-3.5654,-3.6164,-3.6373,-3.6191,-3.5211,-3.4969,-3.526,-3.5695,-3.6948,-3.8549,0.0,0.0,0.0,0.0,0.0,0.0,0.0,-5.0583,0.0,-5.2024,-5.308,-5.3473,-5.2768,-5.3108,-5.3033,-5.2307,-5.1778,-5.1273,-5.0744,-5.0431,-4.9902,-4.9109,-4.7569,0.0,-4.3277,-4.1629,-3.9609,-3.7204,-3.6916,-3.6242,-3.5208,0.0,0.0,0.0,0.0,-3.4919,0.0,0.0,0.0,-3.5256,-3.5521,-3.5304,-3.4775,-3.4775,-3.4775,-3.4775,-3.4775,-3.4775,-3.4823,-3.5112,-3.4991,-3.4823,-3.5087,-3.504,-3.4823,-3.5087,-3.4967,-3.4775,-3.4775,-3.4775,-3.4655,-3.4126,-3.3982,-3.3718,-3.2731,-3.2491,-3.2346,-3.1813,-3.1717,-3.1548,-3.1019,-3.0663,0.0,0.0,0.0,0.0,0.0,0.0,0.0,0.0,0.0,0.0,0.0,0.0,0.0,0.0,0.0,0.0,0.0,0.0,0.0,0.0,0.0,0.0,0.0,0.0,0.0,-3.456,-3.431,-3.3864,-3.3284,-3.3722,-3.3676,-3.3308,-3.3813,-3.4267,-3.4762,-3.5302,-3.5523,-3.55,-3.5332,-3.54,-3.5713,-3.6242,-3.7105,-3.8056,0.0,-4.2521,0.0,0.0,-4.673,0.0,-4.9586,-5.1273,-5.2357,-5.2057,-5.1625,-5.1049,-5.0201,-5.132,-5.1946,-5.1537,-5.1393,-5.1153,-5.072,-5.0191,-4.9589,-4.894,-4.7497,-4.5669,-4.3494,-4.1942,-3.9922,0.0,-3.6819,-3.6098,0.0,0.0,0.0,0.0,0.0,0.0,0.0,0.0,-3.5881,-3.5785,-3.5905,-3.5569,-3.4943,-3.4943,-3.4919,-3.4775,-3.4775,-3.4775,-3.4775,-3.4775,-3.4775,-3.4775,-3.4775,-3.4775,-3.4775,-3.4775,-3.4775,-3.4775,-3.4775,-3.4775,-3.4679,-3.427,-3.415,-3.391,-3.3044,-3.2731,-3.2515,-3.2006,-3.1789,-3.1573,-3.1163,-3.1091,0.0,0.0,0.0,0.0,0.0,0.0,0.0,0.0,0.0,0.0,0.0,0.0,0.0,0.0,0.0,-2.951,-2.9704,-2.891,-2.9145,0.0,0.0,-3.2012,-3.2397,0.0,-3.418,-3.404,-3.3608,-3.3501,-3.3621,-3.3621,-3.3621,-3.3645,-3.3982,-3.415,-3.4198,-3.4727,-3.4943,-3.4991,-3.5569,-3.605,-3.6459,-3.6988,-3.7445,-3.7781,0.0,0.0,0.0,0.0,0.0,0.0,-4.9133,-5.1345,-5.303,-5.3008,-5.25,-5.2163,-5.2067,-5.173,-5.1537,-5.1489,-5.1056,-5.0768,-5.0696,-5.0191,-4.9421,-4.8411,-4.7305,-4.5501,-4.2964,-4.1749,-4.0114,0.0,0.0,-3.6819,0.0,0.0,0.0,0.0,0.0,0.0,0.0,-3.6843,-3.6771,-3.6362,-3.6843,-3.6435,-3.5545,-3.5545,-3.5256,-3.4775,-3.4775,-3.4775,-3.4775,-3.4775,-3.4775,-3.4775,-3.4775,-3.4775,-3.4775,-3.4775,-3.4775,-3.4775,-3.4775,-3.4775,-3.4775,-3.4727,-3.4703,-3.4558,-3.3982,-3.3549,-3.3068,-3.2539,-3.201,-3.1693,-3.1645,-3.1645,-3.1452,0.0,0.0,0.0,0.0,0.0,0.0,0.0,0.0,0.0,0.0,0.0,0.0,0.0,0.0,-2.8934,-2.9665,-2.891,-2.887,-2.9781,0.0,-3.0804,-3.1743,-3.2381,-3.3375,-3.4703,-3.4174,-3.4174,-3.4679,-3.4679,-3.4679,-3.4631,-3.4679,-3.4703,-3.4751,-3.5328,-3.5545,-3.5593,-3.6122,-3.6362,-3.6459,-3.6988,-3.7228,-3.7324,0.0,0.0,0.0,0.0,0.0,0.0,0.0,-5.1634,-5.2115,-5.2115,-5.2211,-5.2163,-5.1826,-5.1345,-5.1008,-5.1008,-5.0816,-5.0551,-5.0215,-4.9686,-4.906,-4.8315,-4.6968,-4.5453,-4.3746,-4.2062,-4.0306,0.0,0.0,0.0,0.0,0.0,0.0,0.0,0.0,-3.6218,-3.6435,-3.6964,-3.6892,-3.6459,-3.6988,-3.6747,-3.605,-3.5737,-3.5497,-3.5256,-3.4944,-3.4775,-3.4775,-3.4775,-3.4775,-3.4775,-3.4775,-3.4775,-3.4775,-3.4775,-3.4775,-3.4775,-3.4775,-3.4775,-3.4775,-3.4775,-3.4775,-3.4631,-3.4102,-3.3838,-3.3501,-3.2683,-3.2058,-3.1717,-3.1717,-3.1717,-3.1645,0.0,0.0,0.0,0.0,0.0,0.0,0.0,0.0,0.0,0.0,0.0,0.0,0.0,0.0,-2.8657,-2.8949,-2.8657,0.0,-2.8949,0.0,-3.0802,-3.1235,-3.2683,-3.3694,-3.4318,-3.4414,-3.4583,-3.4775,-3.4775,-3.4775,-3.4799,-3.5111,-3.5304,-3.5352,-3.5881,-3.6098,-3.6146,-3.6675,-3.6867,-3.694,-3.7469,-3.7661,-3.7685,-4.7906,0.0,-4.7545,0.0,-4.9493,-4.9638,-5.1537,-5.1489,-5.1249,-5.1249,-5.1586,-5.1682,-5.1297,-5.0936,-5.0696,-5.0696,-5.0696,-5.0527,-5.0143,-4.9469,-4.8844,-4.8315,-4.6776,0.0,-4.4069,-4.2327,-4.0643,-3.9056,-3.795,0.0,0.0,0.0,0.0,0.0,-3.6627,-3.6723,-3.6892,-3.7252,-3.7204,-3.6892,-3.7276,-3.7108,-3.6579,-3.605,-3.5761,-3.5545,-3.4967,-3.4775,-3.4775,-3.4775,-3.4775,-3.4775,-3.4775,-3.4775,-3.4775,-3.4775,-3.4775,-3.4775,-3.4775,-3.4775,-3.4775,-3.4775,-3.4775,-3.4679,-3.4318,-3.4102,-3.3694,-3.2707,-3.2178,-3.191,-3.1741,-3.1717,-3.1717,-3.1717,0.0,0.0,0.0,0.0,0.0,0.0,0.0,-2.8522,-2.8522,0.0,0.0,0.0,0.0,0.0,0.0,0.0,0.0,0.0,0.0,0.0,0.0,-3.3044,-3.3982,-3.4006,-3.4534,-3.4775,-3.4775,-3.4775,-3.4943,-3.5304,-3.5521,-3.5713,-3.5881,-3.6411,-3.6627,-3.6699,-3.7228,-3.7421,-3.7469,-3.7853,-3.7974,-3.7974,-4.8844,-4.9036,-4.9397,-5.0503,-5.0672,-5.0696,-5.072,-5.072,-5.072,-5.072,-5.072,-5.072,-5.072,-5.0696,-5.0696,-5.0696,-5.0696,-5.0696,-5.0696,-4.9686,-4.8844,0.0,0.0,-4.5164,-4.3553,-4.2495,-4.1172,-3.9609,0.0,0.0,-3.795,0.0,-3.718,-3.718,-3.718,-3.7469,-3.7974,-3.7974,-3.7974,-3.7974,-3.7974,-3.7661,-3.7132,-3.6603,-3.6074,-3.5545,-3.4967,-3.4775,-3.4775,-3.4775,-3.4775,-3.4775,-3.4775,-3.4775,-3.4775,-3.4775,-3.4775,-3.4775,-3.4775,-3.4775,-3.4775,-3.4775,-3.4775,-3.4775,-3.4775,-3.4366,-3.3694,-3.2707,-3.2491,-3.2322,-3.1813,-3.1717,-3.1717,-3.1717,0.0,0.0,0.0,0.0,0.0,0.0,-2.8835,-2.8522,-2.8522,0.0,0.0,0.0,0.0,0.0,0.0,0.0,0.0,-2.9268,-3.0326,0.0,-3.1693,-3.3236,-3.3982,-3.4006,-3.4534,-3.4775,-3.4775,-3.4775,-3.54,-3.6362,-3.5833,-3.5905,-3.6435,-3.6964,-3.718,-3.7228,-3.7757,-3.7974,-3.7974,-3.7974,-3.7974,-3.7974,-5.0119,-5.0191,-5.0287,-5.0648,-5.0696,-5.0696,-5.0696,-5.0696,-5.0696,-5.0696,-5.0696,-5.0696,-5.0696,-5.0696,-5.0696,0.0,-5.0696,-5.0383,0.0,-4.9277,-4.8507,-4.7281,-4.6391,-4.5164,-4.3553,-4.2495,-4.1365,-4.0138,0.0,0.0,0.0,-3.7805,-3.7733,-3.7733,-3.7733,-3.7829,-3.7974,-3.7974,-3.7974,-3.7974,-3.7974,-3.7878,-3.7685,-3.7156,-3.6627,-3.6074,-3.5545,-3.5087,-3.4775,-3.4775,-3.4775,-3.4775,-3.4775,-3.4775,-3.4775,-3.4775,-3.4775,-3.4775,-3.4775,-3.4775,-3.4775,-3.4775,-3.4775,-3.4775,-3.4775,-3.4366,-3.391,-3.3574,-3.2996,-3.2442,-3.2274,-3.1958,-3.1717,-3.1717,-3.1717,0.0,0.0,0.0,0.0,0.0,-2.9917,-2.9581,0.0,-2.9268,0.0,0.0,0.0,0.0,0.0,0.0,0.0,0.0,-3.124,0.0,-3.2779,-3.3982,-3.4703,-3.5063,-3.528,-3.5545,-3.5905,-3.5905,-3.6098,-3.6411,-3.6603,-3.6795,-3.6988,-3.7517,-3.7733,-3.7733,-3.7926,-3.7974,-3.7974,-3.7974,-3.7974,-3.7974,-5.0696,-5.0696,-5.0696,-5.0696,-5.0696,-5.0696,-5.0696,-5.0696,-5.0767,-5.0908,-5.0767,-5.0767,-5.0908,-5.0767,0.0,-5.0696,-5.0696,-5.0335,-4.9421,-4.9181,-4.8459,-4.7064,-4.6319,-4.5164,-4.3553,0.0,0.0,-4.0403,-3.9345,-3.8527,-3.7974,-3.7974,-3.7974,-3.7974,-3.7974,-3.7974,-3.7974,-3.7974,-3.7974,-3.7974,-3.7974,-3.7974,-3.7926,-3.7397,-3.6867,-3.6338,-3.5809,-3.528,-3.4775,-3.4775,-3.4775,-3.4775,-3.4775,-3.4775,-3.4775,-3.4775,-3.4775,-3.4775,-3.4775,-3.4775,-3.4775,-3.4775,-3.4775,-3.4775,-3.4775,-3.4534,-3.4222,-3.403,-3.3478,-3.302,-3.2827,-3.2346,-3.203,-3.203,-3.1837,-3.1717,-3.1717,0.0,0.0,0.0,0.0,0.0,0.0,-2.9965,0.0,0.0,0.0,0.0,0.0,0.0,0.0,-3.0374,-3.1961,0.0,-3.3861,-3.4703,-3.54,-3.5905,-3.5905,-3.6194,-3.6699,-3.6483,-3.6627,-3.7012,-3.7132,-3.73,-3.7517,-3.7853,-3.7974,-3.7974,-3.7974,-3.7974,-3.7974,-3.7974,-3.7974,-3.7974,-5.0696,-5.0696,-5.0696,0.0,-5.0696,0.0,-5.0696,-5.0696,-5.0837,-5.1141,-5.0884,-5.0837,-5.1141,-5.0884,-5.0696,-5.0696,0.0,0.0,0.0,-4.9277,-4.8507,-4.7449,-4.6415,-4.5116,-4.3505,-4.3505,-4.2495,-4.0403,-3.9345,-3.8527,-3.7974,-3.7974,-3.7974,-3.7974,-3.7974,-3.7974,-3.7974,-3.7974,-3.7974,-3.7974,-3.7974,-3.7974,-3.7926,-3.7445,-3.6916,-3.6386,-3.5857,-3.5328,-3.4823,-3.4799,-3.4775,-3.4775,-3.4775,-3.4775,-3.4775,-3.4775,-3.4775,-3.4775,-3.4775,-3.4775,-3.4775,-3.4775,-3.4775,-3.4799,-3.4823,-3.4847,-3.4703,-3.4198,-3.4078,-3.3886,-3.3428,-3.2875,-3.2491,-3.2491,-3.2034,-3.1717,-3.1717,0.0,0.0,0.0,0.0,0.0,0.0,-3.0663,-3.0585,0.0,0.0,0.0,0.0,0.0,-3.0567,-3.1023,-3.2563,-3.3885,-3.4871,-3.5425,-3.593,-3.6459,-3.6507,-3.6771,-3.7228,-3.6747,-3.706,-3.795,-3.7469,-3.7517,-3.7974,-3.7974,-3.7974,-3.7974,-3.7974,-3.7974,-3.7974,-3.7974,-3.7974,-3.7974,0.0,0.0,-5.0696,-5.0696,-5.0696,-5.0696,-5.0696,-5.0696,-5.0837,-5.1141,-5.0884,-5.0837,-5.1141,-5.0884,-5.0696,-5.0696,-5.0311,-4.983,-4.9301,-4.8387,-4.7401,-4.6343,-4.5669,-4.4563,-4.2976,-4.3313,-4.2495,-4.0403,-3.9345,-3.8527,-3.7974,-3.7974,-3.7974,-3.7974,-3.7974,-3.7974,-3.7974,-3.7974,-3.7974,-3.7974,-3.7974,-3.7974,-3.7974,-3.7829,-3.7469,-3.694,-3.6411,-3.5881,-3.5376,-3.4968,-3.4775,-3.4775,-3.4775,-3.4775,-3.4775,-3.4775,-3.4775,-3.4775,-3.4775,-3.4775,-3.4775,-3.4775,-3.4775,-3.4944,-3.5352,-3.5425,-3.54,-3.528,-3.4919,-3.4438,-3.391,-3.3116,-3.2491,-3.2491,-3.2034,-3.1717,-3.1717,-3.1597,0.0,0.0,-3.1745,-3.1937,-3.1937,-3.1693,-3.1597,0.0,0.0,0.0,0.0,-3.237,-3.2996,-3.2731,-3.3861,-3.4968,-3.6026,-3.6146,-3.6483,-3.7012,-3.7421,-3.7685,-3.7781,-3.7661,-3.7733,-3.7974,-3.7853,-3.7853,-3.7974,-3.7974,-3.7974,-3.7974,-3.7974,-3.7974,-3.7974,-3.7974,-3.7974,-3.7974,-5.0696,-5.0696,-5.0696,-5.0696,-5.0696,-5.0696,-5.0696,-5.0837,-5.1025,-5.1446,-5.1165,-5.1095,-5.1446,-5.1049,-5.0696,-5.0696,-5.0191,-4.9638,-4.9109,-4.8315,-4.7281,-4.5982,-4.5645,-4.4756,-4.3144,-4.3361,-4.2495,-4.0403,-3.9345,-3.8527,-3.7974,-3.7974,-3.7974,-3.7974,-3.7974,-3.7974,-3.7974,-3.7974,-3.7974,-3.7974,-3.7974,-3.7974,-3.7974,-3.7974,-3.7661,-3.7156,-3.6867,-3.6266,-3.5617,-3.5569,-3.5232,-3.4871,-3.54,-3.5208,-3.4823,-3.5063,-3.4967,-3.4775,-3.4775,-3.4775,-3.4847,-3.5087,-3.5184,-3.5328,-3.5857,-3.5978,-3.5978,-3.5978,-3.5737,-3.54,-3.4799,-3.3862,-3.314,-3.2899,-3.2223,-3.1717,-3.1717,-3.1717,0.0,-3.2054,-3.2322,-3.2683,-3.3164,-3.2923,-3.2779,-3.2851,0.0,0.0,-3.2464,-3.3909,-3.4366,-3.3645,-3.4871,-3.593,-3.6771,-3.7012,-3.7276,-3.7565,-3.7853,-3.7974,-3.7974,-3.7974,-3.7974,-3.7974,-3.7974,-3.7974,-3.7974,-3.7974,-3.7974,-3.7974,-3.7974,-3.7974,-3.7974,-3.7974,-3.7974,-3.7974,-5.0696,-5.0696,-5.0696,-5.0696,-5.0696,-5.0696,-5.0696,-5.0954,-5.1306,-5.1681,-5.1376,-5.1306,-5.1681,-5.1119,-5.0696,-5.0696,-5.0191,-4.9638,-4.9109,-4.8435,-4.7425,-4.5982,-4.5766,-4.4972,-4.3433,-4.3096,-4.2086,-4.0403,-3.9248,-3.8455,-3.7974,-3.7974,-3.7974,-3.7974,-3.7974,-3.7974,-3.7974,-3.7974,-3.7974,-3.7974,-3.7974,-3.7974,-3.7974,-3.7974,-3.7709,-3.73,-3.7228,-3.6627,-3.5905,-3.6266,-3.5809,-3.5232,-3.6122,-3.5785,-3.516,-3.5593,-3.5425,-3.4991,-3.4919,-3.4992,-3.5184,-3.5617,-3.5737,-3.5881,-3.6411,-3.6531,-3.6531,-3.6531,-3.6531,-3.6338,-3.5737,-3.4775,-3.3934,-3.3477,-3.2491,-3.1837,-3.1837,0.0,-3.201,-3.2563,-3.2755,-3.3236,-3.4126,-3.4222,-3.4078,-3.3789,-3.4487,-3.4607,-3.3813,-3.5088,-3.5449,-3.4486,-3.5833,-3.6771,-3.73,-3.7757,-3.7974,-3.7974,-3.7974,-3.7974,-3.7974,-3.7974,-3.7974,-3.7974,-3.7974,-3.7974,-3.7974,-3.7974,-3.7974,-3.7974,-3.7974,-3.7974,-3.7974,-3.7974,-3.7974,-3.7974,-5.0696,-5.0696,-5.0696,-5.0696,-5.0696,-5.0696,-5.0696,-5.0767,-5.0908,-5.1236,-5.0954,-5.0908,-5.1306,-5.0954,-5.0696,-5.0696,-5.0191,-4.9638,-4.9109,-4.7738,-4.6655,-4.5958,-4.5005,-4.4058,-4.2904,-4.1124,-4.0282,-4.0403,-3.8864,-3.807,-3.7974,-3.7974,-3.7974,-3.7974,-3.7974,-3.7974,-3.7974,-3.7974,-3.7974,-3.7974,-3.7974,-3.7974,-3.7974,-3.7974,-3.7926,-3.7805,-3.7348,-3.7084,-3.6892,-3.6531,-3.629,-3.6194,-3.6362,-3.629,-3.617,-3.6266,-3.6218,-3.6074,-3.5617,-3.5833,-3.617,-3.6266,-3.629,-3.6411,-3.694,-3.706,-3.706,-3.706,-3.706,-3.6771,-3.5785,-3.5063,-3.4486,-3.3958,-3.3044,-3.237,-3.237,0.0,-3.2563,-3.3092,-3.3933,-3.4655,-3.5304,-3.5376,-3.5521,-3.5881,-3.5665,-3.5617,-3.5905,-3.6579,-3.6867,-3.6723,-3.694,-3.7324,-3.7853,-3.795,-3.7974,-3.7974,-3.7974,-3.7974,-3.7974,-3.7974,-3.7974,-3.7974,-3.7974,-3.7974,-3.7974,-3.7974,-3.7974,-3.7974,-3.7974,-3.7974,-3.7974,-3.7974,-3.7974,-3.7974,-5.0696,-5.0696,-5.0696,-5.0696,-5.0696,-5.0696,-5.0696,-5.0837,-5.1025,-5.1141,-5.1095,-5.1025,-5.1141,-5.0884,-5.0696,-5.0696,-5.0191,-4.9638,-4.9109,-4.8122,-4.7209,-4.6391,-4.5269,-4.3866,-4.1966,-4.0691,-3.9874,-3.9537,-3.8503,-3.7974,-3.7974,-3.7974,-3.7974,-3.7974,-3.7974,-3.7974,-3.7974,-3.7974,-3.7974,-3.7974,-3.7974,-3.7974,-3.7974,-3.7974,-3.7974,-3.795,-3.7709,-3.7445,-3.7204,-3.7252,-3.6867,-3.6507,-3.7084,-3.6867,-3.6459,-3.6747,-3.6627,-3.6362,-3.6098,-3.6218,-3.6483,-3.6771,-3.6819,-3.6964,-3.7493,-3.7613,-3.7613,-3.7613,-3.7613,-3.7372,-3.6603,-3.5809,-3.5184,-3.4871,-3.3549,0.0,0.0,-3.3092,-3.3212,-3.403,-3.4799,-3.5569,-3.6386,-3.6218,-3.6266,-3.6795,-3.6338,-3.6266,-3.6795,-3.706,-3.7324,-3.7613,-3.7613,-3.7733,-3.7974,-3.7974,-3.7974,-3.7974,-3.7974,-3.8142,-3.8431,-3.8118,-3.8142,-3.8407,-3.8118,-3.7974,-3.7974,-3.7974,-3.7974,-3.7974,-3.7974,-3.7974,-3.7974,-3.7974,-3.7974,-3.7974,-5.0696,-5.0696,-5.0696,-5.0696,-5.0696,-5.0696,-5.0696,-5.0884,-5.1095,-5.1095,-5.1095,-5.1047,-5.0901,-5.0715,-5.0503,-5.0503,-5.0119,-4.9638,-4.9109,-4.87,-4.7954,-4.6776,-4.5453,-4.3625,-4.1244,-4.0547,-3.9801,-3.9008,-3.831,-3.7974,-3.7974,-3.7974,-3.7974,-3.7974,-3.7974,-3.7974,-3.7974,-3.7974,-3.7974,-3.7974,-3.7974,-3.7974,-3.7974,-3.7974,-3.7974,-3.7974,-3.7974,-3.7733,-3.7445,-3.7853,-3.7445,-3.6916,-3.7733,-3.7421,-3.6843,-3.7252,-3.7084,-3.6771,-3.6771,-3.6771,-3.6867,-3.7276,-3.7372,-3.7493,-3.7878,-3.7974,-3.7974,-3.7974,-3.7974,-3.7829,-3.73,-3.6531,-3.5905,-3.5665,0.0,0.0,0.0,-3.3982,-3.4174,-3.5088,-3.5665,-3.6338,-3.7276,-3.7012,-3.694,-3.7348,-3.7012,-3.694,-3.7348,-3.7372,-3.7565,-3.7974,-3.7974,-3.7974,-3.7974,-3.7974,-3.8046,-3.819,-3.819,-3.8455,-3.8984,-3.8551,-3.8599,-3.896,-3.8407,-3.819,-3.8166,-3.8046,-3.7974,-3.7998,-3.8118,-3.8094,-3.8022,-3.8262,-3.8286,-3.819,-5.0696,-5.0696,-5.0696,-5.0696,-5.0696,-5.0696,-5.0696,-5.0696,-5.0767,-5.0767,-5.0767,-5.0574,-5.0044,-4.9996,-4.9926,-4.9926,-4.9878,-4.9638,-4.9109,-4.9036,-4.8339,-4.6776,-4.4732,-4.2856,-4.122,-4.0186,-3.9633,-3.9561,-3.8503,-3.7974,-3.7974,-3.7974,-3.7974,-3.7974,-3.7974,-3.7974,-3.7974,-3.7974,-3.7974,-3.7974,-3.7974,-3.7974,-3.7974,-3.7974,-3.7974,-3.7974,-3.7974,-3.795,-3.7926,-3.7974,-3.7926,-3.7878,-3.795,-3.7926,-3.7878,-3.7902,-3.7902,-3.7853,-3.7853,-3.7853,-3.7878,-3.7902,-3.7926,-3.7926,-3.7974,-3.7974,-3.7974,-3.7974,-3.7974,-3.7829,-3.73,-3.7132,-3.6771,-3.5785,0.0,0.0,-3.4775,-3.516,-3.5665,-3.6218,-3.6747,-3.73,-3.7878,-3.7878,-3.7878,-3.7926,-3.7878,-3.7878,-3.7926,-3.7926,-3.795,-3.7974,-3.7974,-3.7974,-3.7974,-3.7974,-3.8238,-3.8767,-3.8767,-3.9032,-3.9537,-3.9513,-3.9513,-3.9513,-3.8984,-3.8767,-3.8719,-3.819,-3.7974,-3.8046,-3.8551,-3.8431,-3.8094,-3.9104,-3.9176,-3.8815,-5.0696,-5.0696,-5.0696,-5.0696,-5.0696,-5.0696,-5.0696,-5.0696,-5.0696,-5.0696,-5.0696,-5.0503,-4.9926,-5.0191,-5.0239,-4.9902,-5.0191,-5.0022,-4.9133,-4.9084,-4.793,-4.5357,-4.4405,-4.2976,-4.0739,-4.0306,-3.9777,-3.9128,-3.8695,-3.8334,-3.7974,-3.7974,-3.7974,-3.7974,-3.7974,-3.7974,-3.7974,-3.7974,-3.7974,-3.7974,-3.7974,-3.7974,-3.7974,-3.7974,-3.7974,-3.7974,-3.7974,-3.7974,-3.7974,-3.7974,-3.7974,-3.7974,-3.7974,-3.7974,-3.7974,-3.7974,-3.7974,-3.7974,-3.7974,-3.7974,-3.7974,-3.7974,-3.7974,-3.7974,-3.7974,-3.7974,-3.7974,-3.7974,-3.7974,-3.7926,-3.7709,-3.7421,-3.718,-3.7108,0.0,-3.5785,-3.6218,-3.6194,-3.6314,-3.6819,-3.7348,-3.7757,-3.7974,-3.8286,-3.8503,-3.8503,-3.8503,-3.8503,-3.8503,-3.8503,-3.8503,-3.8503,-3.8815,-3.8671,-3.7998,-3.8334,-3.8599,-3.8815,-3.9152,-3.9585,-4.009,-3.9753,-3.9777,-4.0066,-3.9537,-3.9128,-3.8791,-3.8599,-3.8286,-3.8046,-3.8599,-3.8695,-3.8599,-3.9345,-3.9489,-3.9345,-5.0696,-5.0696,-5.0696,-5.0696,-5.0696,-5.0696,-5.0696,-5.0696,-5.0696,-5.0696,-5.0696,-5.0431,-4.971,-5.0119,-5.0143,-4.9421,-4.9878,-4.9806,-4.8892,-4.8507,-4.7209,-4.4645,-4.4381,-4.3204,-4.0932,-4.0571,-3.997,-3.9056,-3.9056,-3.8695,-3.7998,-3.8166,-3.8142,-3.7974,-3.7974,-3.7974,-3.7974,-3.7974,-3.7974,-3.7974,-3.7974,-3.7974,-3.7974,-3.7974,-3.7974,-3.7974,-3.7974,-3.7974,-3.7974,-3.7974,-3.7974,-3.7974,-3.7974,-3.7974,-3.7974,-3.7974,-3.7974,-3.7974,-3.7974,-3.7974,-3.7974,-3.7974,-3.7974,-3.7974,-3.7974,-3.7974,-3.8046,-3.8214,-3.8238,-3.8238,-3.8238,-3.795,-3.7709,-3.7733,-3.6964,-3.6603,-3.7348,-3.7276,-3.7348,-3.7878,-3.8262,-3.8503,-3.8503,-3.8839,-3.9056,-3.9056,-3.8912,-3.8815,-3.8815,-3.8984,-3.9056,-3.9056,-3.9417,-3.9248,-3.8503,-3.8864,-3.9152,-3.932,-3.9681,-4.0138,-4.0643,-4.0258,-4.0306,-4.0619,-4.009,-3.9657,-3.9296,-3.896,-3.8695,-3.8527,-3.8912,-3.9056,-3.9152,-3.985,-3.9994,-3.9874,-5.0696,-5.0696,-5.0696,-5.0696,-5.0696,-5.0696,-5.0696,-5.0696,-5.0696,-5.0696,-5.0696,-5.0287,-4.9205,-4.9541,-4.9445,-4.8387,-4.8772,-4.8868,-4.8315,-4.7305,-4.6247,-4.5125,-4.4573,-4.3601,-4.2014,-4.0956,-4.0138,-3.9609,-3.9609,-3.9056,-3.7998,-3.8551,-3.8527,-3.7974,-3.7974,-3.7974,-3.7974,-3.7974,-3.7974,-3.7974,-3.7974,-3.7974,-3.7974,-3.7974,-3.7974,-3.7974,-3.7974,-3.7974,-3.7974,-3.7974,-3.7974,-3.7974,-3.7974,-3.7974,-3.7974,-3.7974,-3.7974,-3.7974,-3.7998,-3.7998,-3.7998,-3.7974,-3.7974,-3.7974,-3.7998,-3.7998,-3.8142,-3.8719,-3.8815,-3.8815,-3.8815,-3.8815,-3.8479,-3.7397,-3.7661,-3.7998,-3.7998,-3.8479,-3.9008,-3.9537,-3.9609,-3.9609,-3.9609,-3.9609,-3.9609,-3.9609,-3.9128,-3.8815,-3.8815,-3.932,-3.9609,-3.9609,-3.9609,-3.9609,-3.9609,-3.9609,-3.9874,-4.0403,-4.0403,-4.0691,-4.1172,-4.1172,-4.1172,-4.1148,-4.0643,-4.0403,-4.0306,-3.9272,-3.9128,-3.9609,-3.9609,-3.9609,-3.9753,-4.0787,-4.086,-4.0475,-5.0696,-5.0696,-5.0696,-5.0696,-5.0696,-5.0696,-5.0696,-5.0696,-5.0696,-5.0696,-5.0359,-4.9998,-4.9662,-4.9782,-4.9589,-4.8892,-4.9325,-4.9253,-4.8339,-4.7642,-4.6968,-4.6271,-4.4957,-4.3601,-4.2014,-4.1677,-4.1244,-4.0715,-4.0331,-3.9801,-3.9128,-3.8912,-3.8527,-3.7974,-3.7974,-3.7974,-3.7974,-3.7974,-3.7974,-3.7974,-3.7974,-3.7974,-3.7974,-3.7974,-3.7974,-3.7974,-3.7974,-3.7974,-3.7974,-3.7974,-3.7974,-3.7974,-3.7974,-3.7974,-3.7974,-3.7974,-3.7974,-3.807,-3.8455,-3.8575,-3.8479,-3.807,-3.7974,-3.8094,-3.8479,-3.8575,-3.8719,-3.9272,-3.9369,-3.9369,-3.9369,-3.9369,-3.9272,-3.8936,-3.9008,-3.9128,-3.9128,-3.9272,-3.9441,-3.9585,-3.9609,-3.9609,-3.9609,-3.9946,-4.0162,-4.0162,-4.0018,-3.9753,-3.9393,-3.9874,-4.0162,-4.0162,-4.0523,-4.0715,-4.0715,-4.0355,-4.0234,-4.0403,-4.0763,-4.1028,-4.1172,-4.1172,-4.1172,-4.1172,-4.1028,-4.0739,-4.0379,-4.0042,-3.9801,-3.9657,-4.0018,-4.0162,-4.0234,-4.0932,-4.1076,-4.098,-5.0696,-5.0696,-5.0696,-5.0696,-5.0696,-5.0696,-5.0696,-5.0696,-5.0696,-5.0696,-5.0407,-5.0119,-4.9878,-5.007,-4.9806,-4.8844,-4.8868,-4.8579,-4.7714,-4.7377,-4.704,-4.6728,-4.5534,-4.4227,-4.2615,-4.2182,-4.1605,-4.086,-4.0763,-4.021,-3.9296,-3.9176,-3.8719,-3.7974,-3.7974,-3.7974,-3.7974,-3.7974,-3.7974,-3.7974,-3.7974,-3.7974,-3.7974,-3.7974,-3.7974,-3.7974,-3.7974,-3.7974,-3.7974,-3.7974,-3.7974,-3.7974,-3.7974,-3.7974,-3.8022,-3.8238,-3.831,-3.8431,-3.8984,-3.9128,-3.9056,-3.8695,-3.8623,-3.8719,-3.9056,-3.9128,-3.9272,-3.9801,-3.9922,-3.9922,-3.9922,-3.9922,-3.985,-3.9633,-3.9609,-3.9681,-3.9898,-3.9922,-3.9994,-4.021,-4.0234,-4.0234,-4.0234,-4.0523,-4.0619,-4.0403,-4.0595,-4.0475,-3.9946,-4.0427,-4.0715,-4.0715,-4.1028,-4.1172,-4.1172,-4.086,-4.0715,-4.0715,-4.1028,-4.1172,-4.1172,-4.1172,-4.1172,-4.1172,-4.1172,-4.1004,-4.0691,-4.0475,-4.0331,-4.0234,-4.0355,-4.0523,-4.0739,-4.1076,-4.1172,-4.1172,-5.0696,-5.0696,-5.0696,-5.0696,-5.0696,-5.0696,-5.0696,-5.0696,-5.0696,-5.0624,-5.0624,-5.0431,-4.9926,-5.0335,-5.0046,-4.8555,-4.7906,-4.7329,-4.6752,-4.6704,-4.6704,-4.6704,-4.6199,-4.5237,-4.377,-4.2711,-4.1677,-4.0595,-4.1052,-4.0499,-3.9032,-3.9417,-3.9056,-3.8046,-3.7998,-3.7974,-3.7974,-3.7974,-3.7974,-3.7974,-3.7974,-3.7974,-3.7974,-3.7974,-3.7974,-3.7974,-3.7974,-3.7974,-3.7974,-3.7974,-3.7974,-3.7974,-3.7974,-3.8022,-3.8166,-3.8671,-3.8839,-3.9008,-3.9537,-3.9681,-3.9681,-3.9729,-3.9753,-3.9729,-3.9681,-3.9681,-3.9826,-4.0355,-4.0475,-4.0475,-4.0475,-4.0475,-4.0306,-3.9826,-3.9753,-3.9922,-4.0403,-4.0475,-4.0643,-4.1124,-4.1172,-4.1172,-4.1172,-4.1172,-4.098,-4.0499,-4.0908,-4.098,-4.0499,-4.098,-4.1244,-4.1244,-4.1244,-4.1244,-4.1244,-4.1196,-4.1172,-4.1172,-4.1172,-4.1172,-4.1172,-4.1172,-4.1172,-4.1172,-4.1172,-4.1172,-4.1148,-4.0667,-4.0739,-4.1124,-4.0643,-4.0763,-4.1172,-4.1172,-4.1172,-4.1172,-5.0696,-5.0696,-5.0696,-5.0696,-5.0696,-5.0696,-5.0696,-5.0696,-5.0551,-5.0095,-5.0046,-4.9998,-4.9878,-4.9974,-4.9902,-4.9565,-4.8652,-4.7714,-4.6776,-4.6704,-4.6704,-4.6704,-4.6199,-4.5766,-4.5405,-4.4371,-4.3313,-4.2313,-4.2,-4.1413,-4.0643,-3.9946,-3.9272,-3.8623,-3.819,-3.7974,-3.7974,-3.7974,-3.7974,-3.7974,-3.7974,-3.7974,-3.7974,-3.7974,-3.7974,-3.7974,-3.7974,-3.7974,-3.7974,-3.7974,-3.7974,-3.7974,-3.7974,-3.8286,-3.8671,-3.8791,-3.9104,-3.9561,-4.009,-4.0234,-4.0331,-4.0739,-4.0836,-4.0739,-4.0306,-4.0234,-4.0379,-4.0908,-4.1004,-4.1004,-4.1004,-4.1004,-4.098,-4.086,-4.0836,-4.0884,-4.1004,-4.1004,-4.1052,-4.1172,-4.1172,-4.1172,-4.1172,-4.1172,-4.1124,-4.1028,-4.1124,-4.1124,-4.1028,-4.1509,-4.1798,-4.1798,-4.1798,-4.1798,-4.1798,-4.1389,-4.1172,-4.1172,-4.1172,-4.1172,-4.1172,-4.1172,-4.1172,-4.1172,-4.1172,-4.1172,-4.1172,-4.1052,-4.1076,-4.1172,-4.1052,-4.1076,-4.1172,-4.1172,-4.1172,-4.1172,-5.0696,-5.0696,-5.0696,-5.0696,-5.0696,-5.06,-5.0335,-5.0311,-5.0119,-4.9565,-4.9493,-4.9589,-4.983,-4.9878,-4.9662,-4.9157,-4.8387,-4.7569,-4.6776,-4.6704,-4.6824,-4.7064,-4.6583,-4.6295,-4.6295,-4.5766,-4.4708,-4.312,-4.2351,-4.1701,-4.1172,-4.0355,-3.9705,-3.9176,-3.8888,-3.8743,-3.8743,-3.8743,-3.8623,-3.8383,-3.8383,-3.8214,-3.8022,-3.8286,-3.8383,-3.8407,-3.8671,-3.8599,-3.8334,-3.807,-3.7974,-3.8022,-3.8286,-3.8575,-3.8912,-3.9417,-3.9753,-4.009,-4.0619,-4.0763,-4.0836,-4.1124,-4.1172,-4.1124,-4.0836,-4.0763,-4.086,-4.1124,-4.1172,-4.1172,-4.1172,-4.1172,-4.1172,-4.1172,-4.1172,-4.1172,-4.1172,-4.1172,-4.1172,-4.1172,-4.1172,-4.1172,-4.1172,-4.1172,-4.1293,-4.1533,-4.1557,-4.1677,-4.1918,-4.2265,-4.223,-4.199,-4.1966,-4.1846,-4.1605,-4.1317,-4.1172,-4.1172,-4.1172,-4.1172,-4.1172,-4.1172,-4.1172,-4.1172,-4.1172,-4.1172,-4.1172,-4.1172,-4.1172,-4.1172,-4.1172,-4.1172,-4.1172,-4.1172,-4.1172,-4.1172,-5.0696,-5.0624,-5.06,-5.0696,-5.0624,-5.0431,-5.007,-4.9926,-4.9686,-4.9157,-4.9084,-4.9205,-4.9565,-4.9686,-4.9421,-4.8628,-4.8074,-4.7545,-4.7016,-4.6896,-4.704,-4.7473,-4.6992,-4.6752,-4.6848,-4.6752,-4.5718,-4.3649,-4.2711,-4.1918,-4.1293,-4.0691,-4.0162,-3.9729,-3.9657,-3.9609,-3.9609,-3.9609,-3.9345,-3.896,-3.896,-3.8623,-3.819,-3.8743,-3.8888,-3.8888,-3.9417,-3.932,-3.8888,-3.8407,-3.8262,-3.8334,-3.8815,-3.9008,-3.9272,-4.0138,-4.0451,-4.0643,-4.1172,-4.1317,-4.1341,-4.1437,-4.1389,-4.1341,-4.1437,-4.1317,-4.1172,-4.1172,-4.1172,-4.1172,-4.1172,-4.1244,-4.1293,-4.1196,-4.1268,-4.1293,-4.1196,-4.1172,-4.122,-4.1317,-4.1389,-4.1461,-4.1461,-4.1461,-4.1629,-4.2062,-4.2169,-4.2313,-4.2675,-4.2867,-4.2699,-4.211,-4.2169,-4.1894,-4.1461,-4.1268,-4.1172,-4.1172,-4.1172,-4.1172,-4.1172,-4.1172,-4.1172,-4.1172,-4.1172,-4.1172,-4.1172,-4.1172,-4.1172,-4.1172,-4.1172,-4.1172,-4.1172,-4.1172,-4.1172,-4.1172,-5.0696,-5.0311,-5.0143,-5.0624,-5.0311,-5.0119,-5.0527,-5.0191,-4.9686,-4.9157,-4.9084,-4.894,-4.8555,-4.8916,-4.9325,-4.9683,-4.9181,-4.8628,-4.8098,-4.7642,-4.7425,-4.7497,-4.6992,-4.692,-4.7377,-4.6944,-4.591,-4.4165,-4.3601,-4.2808,-4.1846,-4.086,-4.0355,-4.0258,-3.9801,-3.9609,-3.9609,-3.9609,-3.9561,-3.9489,-3.9489,-3.9176,-3.8767,-3.9296,-3.9224,-3.8888,-3.9417,-3.9561,-3.9489,-3.9417,-3.9393,-3.9393,-3.9465,-3.9801,-4.021,-4.0355,-4.0715,-4.1196,-4.1725,-4.187,-4.1966,-4.2482,-4.2265,-4.199,-4.2506,-4.1904,-4.1172,-4.1172,-4.1172,-4.1172,-4.1172,-4.1557,-4.1701,-4.1268,-4.1581,-4.1701,-4.1244,-4.1172,-4.1365,-4.1822,-4.2338,-4.2602,-4.2602,-4.2602,-4.2627,-4.2699,-4.2699,-4.2554,-4.2169,-4.2928,-4.3168,-4.2723,-4.2699,-4.2675,-4.2602,-4.1629,-4.1172,-4.1172,-4.1172,-4.1172,-4.1172,-4.1172,-4.1172,-4.1172,-4.1172,-4.1172,-4.1172,-4.1172,-4.1172,-4.1172,-4.1172,-4.1172,-4.1172,-4.1172,-4.1172,-4.1172,-5.0696,-5.0503,-5.0407,-5.0648,-5.0503,-5.0215,-4.9854,-4.9589,-4.9133,-4.8315,-4.8195,-4.8339,-4.87,-4.9205,-4.9614,-4.9924,-4.9373,-4.8988,-4.8748,-4.8243,-4.8074,-4.8363,-4.7593,-4.7401,-4.793,-4.7425,-4.6655,-4.5669,-4.4539,-4.3601,-4.2891,-4.1832,-4.1124,-4.0836,-4.0595,-4.0499,-4.0499,-4.0499,-4.0306,-4.0042,-4.0042,-3.9729,-3.932,-3.985,-3.9898,-3.9729,-3.997,-4.0042,-3.9994,-3.9705,-3.9609,-3.9657,-3.9946,-4.0403,-4.0884,-4.1196,-4.1653,-4.2169,-4.241,-4.2482,-4.2602,-4.3048,-4.3,-4.288,-4.312,-4.2808,-4.2399,-4.211,-4.2062,-4.2062,-4.2062,-4.2313,-4.2386,-4.211,-4.2254,-4.2327,-4.2169,-4.2062,-4.2158,-4.2434,-4.2675,-4.2819,-4.2819,-4.2819,-4.294,-4.3168,-4.3168,-4.3216,-4.3289,-4.3721,-4.3721,-4.3192,-4.3168,-4.2904,-4.2386,-4.1846,-4.1485,-4.1172,-4.1485,-4.1461,-4.1172,-4.1172,-4.1172,-4.1172,-4.1172,-4.1172,-4.1172,-4.1172,-4.1172,-4.1172,-4.1172,-4.1172,-4.1172,-4.1172,-4.1172,-4.1172]},{"header":{"parameterUnit":"m.s-1","parameterCategory":1,"la1":30.6,"la2":28.766,"lo1":-90.7593,"lo2":-88.6598,"dy":0.0162,"dx":0.0183,"nx":116,"ny":114,"refTime":"2023-04-19T06:00:00:Z","depth":0,"parameterNumber":3,"parameterNumberName":"V-component_of_WINDS"},"data":[0.0,0.0,0.0,0.0,0.0,0.0,0.0,0.0,0.0,0.0,0.0,0.0,0.0,0.0,0.0,0.0,0.0,0.0,0.0,0.0,0.0,0.0,0.0,0.0,0.0,0.0,0.0,0.0,0.0,0.0,0.0,0.0,0.0,0.0,0.0,0.0,0.0,0.0,0.0,0.0,0.0,0.0,0.0,0.0,0.0,0.0,0.0,0.0,0.0,0.0,0.0,0.0,0.0,0.0,0.0,0.0,0.0,0.0,0.0,0.0,0.0,0.0,0.0,0.0,0.0,0.0,0.0,0.0,0.0,0.0,0.0,0.0,0.0,0.0,0.0,0.0,0.0,0.0,0.0,0.0,0.0,0.0,0.0,0.0,0.0,0.0,0.0,0.0,0.0,0.0,0.0,0.0,0.0,0.0,0.0,0.0,0.0,0.0,0.0,0.0,0.0,0.0,0.0,0.0,0.0,0.0,0.0,0.0,0.0,0.0,0.0,0.0,0.0,0.0,0.0,0.0,0.0,0.0,0.0,0.0,0.0,0.0,0.0,0.0,0.0,0.0,0.0,0.0,0.0,0.0,0.0,0.0,0.0,0.0,0.0,0.0,0.0,0.0,0.0,0.0,0.0,0.0,0.0,0.0,0.0,0.0,0.0,0.0,0.0,0.0,0.0,0.0,0.0,0.0,0.0,0.0,0.0,0.0,0.0,0.0,0.0,0.0,0.0,0.0,0.0,0.0,0.0,0.0,0.0,0.0,0.0,0.0,0.0,0.0,0.0,0.0,0.0,0.0,0.0,0.0,0.0,0.0,0.0,0.0,0.0,0.0,0.0,0.0,0.0,0.0,0.0,0.0,0.0,0.0,0.0,0.0,0.0,0.0,0.0,0.0,0.0,0.0,0.0,0.0,0.0,0.0,0.0,0.0,0.0,0.0,0.0,0.0,0.0,0.0,0.0,0.0,0.0,0.0,0.0,0.0,0.0,0.0,0.0,0.0,0.0,0.0,0.0,0.0,0.0,0.0,0.0,0.0,0.0,0.0,0.0,0.0,0.0,0.0,0.0,0.0,0.0,0.0,0.0,0.0,0.0,0.0,0.0,0.0,0.0,0.0,0.0,0.0,0.0,0.0,0.0,0.0,0.0,0.0,0.0,0.0,0.0,0.0,0.0,0.0,0.0,0.0,0.0,0.0,0.0,0.0,0.0,0.0,0.0,0.0,0.0,0.0,0.0,0.0,0.0,0.0,0.0,0.0,0.0,0.0,0.0,0.0,0.0,0.0,0.0,0.0,0.0,0.0,0.0,0.0,0.0,0.0,0.0,0.0,0.0,0.0,0.0,0.0,0.0,0.0,0.0,0.0,0.0,0.0,0.0,0.0,0.0,0.0,0.0,0.0,0.0,0.0,0.0,0.0,0.0,0.0,0.0,0.0,0.0,0.0,0.0,0.0,0.0,0.0,0.0,0.0,0.0,0.0,0.0,0.0,0.0,0.0,0.0,0.0,0.0,0.0,0.0,0.0,0.0,0.0,0.0,0.0,0.0,0.0,0.0,0.0,0.0,0.0,0.0,0.0,0.0,0.0,0.0,0.0,0.0,0.0,0.0,0.0,0.0,0.0,0.0,0.0,0.0,0.0,0.0,0.0,0.0,0.0,0.0,0.0,0.0,0.0,0.0,0.0,0.0,0.0,0.0,0.0,0.0,0.0,0.0,0.0,0.0,0.0,0.0,0.0,0.0,0.0,0.0,0.0,0.0,0.0,0.0,0.0,0.0,0.0,0.0,0.0,0.0,0.0,0.0,0.0,0.0,0.0,0.0,0.0,0.0,0.0,0.0,0.0,0.0,0.0,0.0,0.0,0.0,0.0,0.0,0.0,0.0,0.0,0.0,0.0,0.0,0.0,0.0,0.0,0.0,0.0,0.0,0.0,0.0,0.0,0.0,0.0,0.0,0.0,0.0,0.0,0.0,0.0,0.0,0.0,0.0,0.0,0.0,0.0,0.0,0.0,0.0,0.0,0.0,0.0,0.0,0.0,0.0,0.0,0.0,0.0,0.0,0.0,0.0,0.0,0.0,0.0,0.0,0.0,0.0,0.0,0.0,0.0,0.0,0.0,0.0,0.0,0.0,0.0,0.0,0.0,0.0,0.0,0.0,0.0,0.0,0.0,0.0,0.0,0.0,0.0,0.0,0.0,0.0,0.0,0.0,0.0,0.0,0.0,0.0,0.0,0.0,0.0,0.0,0.0,0.0,0.0,0.0,0.0,0.0,0.0,0.0,0.0,0.0,0.0,0.0,0.0,0.0,0.0,0.0,0.0,0.0,0.0,0.0,0.0,0.0,0.0,0.0,0.0,0.0,0.0,0.0,0.0,0.0,0.0,0.0,0.0,0.0,0.0,0.0,0.0,0.0,0.0,0.0,0.0,0.0,0.0,0.0,0.0,0.0,0.0,0.0,0.0,0.0,0.0,0.0,0.0,0.0,0.0,0.0,0.0,0.0,0.0,0.0,0.0,0.0,0.0,0.0,0.0,0.0,0.0,0.0,0.0,0.0,0.0,0.0,0.0,0.0,0.0,0.0,0.0,0.0,0.0,0.0,0.0,0.0,0.0,0.0,0.0,0.0,0.0,0.0,0.0,0.0,0.0,0.0,0.0,0.0,0.0,0.0,0.0,0.0,0.0,0.0,0.0,0.0,0.0,0.0,0.0,0.0,0.0,0.0,0.0,0.0,0.0,0.0,0.0,0.0,0.0,0.0,0.0,0.0,0.0,0.0,0.0,0.0,0.0,0.0,0.0,0.0,0.0,0.0,0.0,0.0,0.0,0.0,0.0,0.0,0.0,0.0,0.0,0.0,0.0,0.0,0.0,0.0,0.0,0.0,0.0,0.0,0.0,0.0,0.0,0.0,0.0,0.0,0.0,0.0,0.0,0.0,0.0,0.0,0.0,0.0,0.0,0.0,0.0,0.0,0.0,0.0,0.0,0.0,0.0,0.0,0.0,0.0,0.0,0.0,0.0,0.0,0.0,0.0,0.0,0.0,0.0,0.0,0.0,0.0,0.0,0.0,0.0,0.0,0.0,0.0,0.0,0.0,0.0,0.0,0.0,0.0,0.0,0.0,0.0,0.0,0.0,0.0,0.0,0.0,0.0,0.0,0.0,0.0,0.0,0.0,0.0,0.0,0.0,0.0,0.0,0.0,0.0,0.0,0.0,0.0,0.0,0.0,0.0,0.0,0.0,0.0,0.0,0.0,0.0,0.0,0.0,0.0,0.0,0.0,0.0,0.0,0.0,0.0,0.0,0.0,0.0,0.0,0.0,0.0,0.0,0.0,0.0,0.0,0.0,0.0,0.0,0.0,0.0,0.0,0.0,0.0,0.0,0.0,0.0,0.0,0.0,0.0,0.0,0.0,0.0,0.0,0.0,0.0,0.0,0.0,0.0,0.0,0.0,0.0,0.0,0.0,0.0,0.0,0.0,0.0,0.0,0.0,0.0,0.0,0.0,0.0,0.0,0.0,0.0,0.0,0.0,0.0,0.0,0.0,0.0,0.0,0.0,0.0,0.0,0.0,0.0,0.0,0.0,0.0,0.0,0.0,0.0,0.0,0.0,0.0,0.0,0.0,0.0,0.0,0.0,0.0,0.0,0.0,0.0,0.0,0.0,0.0,0.0,0.0,0.0,0.0,0.0,0.0,0.0,0.0,0.0,0.0,0.0,0.0,0.0,0.0,0.0,0.0,0.0,0.0,0.0,0.0,0.0,0.0,0.0,0.0,0.0,0.0,0.0,0.0,0.0,0.0,0.0,0.0,0.0,0.0,0.0,0.0,0.0,0.0,0.0,0.0,0.0,0.0,0.0,0.0,0.0,0.0,0.0,0.0,0.0,0.0,0.0,0.0,0.0,0.0,0.0,0.0,0.0,0.0,0.0,0.0,0.0,0.0,0.0,0.0,0.0,0.0,0.0,0.0,0.0,0.0,0.0,0.0,0.0,0.0,0.0,0.0,0.0,0.0,0.0,0.0,0.0,0.0,0.0,0.0,0.0,0.0,0.0,0.0,0.0,0.0,0.0,0.0,0.0,0.0,0.0,0.0,0.0,0.0,0.0,0.0,0.0,0.0,0.0,0.0,0.0,0.0,0.0,0.0,0.0,0.0,0.0,0.0,0.0,0.0,0.0,0.0,0.0,0.0,0.0,0.0,0.0,0.0,0.0,0.0,0.0,0.0,0.0,0.0,0.0,0.0,0.0,0.0,0.0,0.0,0.0,0.0,0.0,0.0,0.0,0.0,0.0,0.0,0.0,0.0,0.0,0.0,0.0,0.0,0.0,0.0,0.0,0.0,0.0,0.0,0.0,0.0,0.0,0.0,0.0,0.0,0.0,0.0,0.0,0.0,0.0,0.0,0.0,0.0,0.0,0.0,0.0,0.0,0.0,0.0,0.0,0.0,0.0,0.0,0.0,0.0,0.0,0.0,0.0,0.0,0.0,0.0,0.0,0.0,0.0,0.0,0.0,0.0,0.0,0.0,0.0,0.0,0.0,0.0,0.0,0.0,0.0,0.0,0.0,0.0,0.0,0.0,0.0,0.0,0.0,0.0,0.0,0.0,0.0,0.0,0.0,0.0,0.0,0.0,0.0,0.0,0.0,0.0,0.0,0.0,0.0,0.0,0.0,0.0,0.0,0.0,0.0,0.0,0.0,0.0,0.0,0.0,0.0,0.0,0.0,0.0,0.0,0.0,0.0,0.0,0.0,0.0,0.0,0.0,0.0,0.0,0.0,0.0,0.0,0.0,0.0,0.0,0.0,0.0,0.0,0.0,0.0,0.0,0.0,0.0,0.0,0.0,0.0,0.0,0.0,0.0,0.0,0.0,0.0,0.0,0.0,0.0,0.0,0.0,0.0,0.0,0.0,0.0,0.0,0.0,0.0,0.0,0.0,0.0,0.0,0.0,0.0,0.0,0.0,0.0,0.0,0.0,0.0,0.0,0.0,0.0,0.0,0.0,0.0,0.0,0.0,0.0,0.0,0.0,0.0,0.0,0.0,0.0,0.0,0.0,0.0,0.0,0.0,0.0,0.0,0.0,0.0,0.0,0.0,0.0,0.0,0.0,0.0,0.0,0.0,0.0,0.0,0.0,0.0,0.0,0.0,0.0,0.0,0.0,0.0,0.0,0.0,0.0,0.0,0.0,0.0,0.0,0.0,0.0,0.0,0.0,0.0,0.0,0.0,0.0,0.0,0.0,0.0,0.0,0.0,0.0,0.0,0.0,0.0,0.0,0.0,0.0,0.0,0.0,0.0,0.0,0.0,0.0,0.0,0.0,0.0,0.0,0.0,0.0,0.0,0.0,0.0,0.0,0.0,0.0,0.0,0.0,0.0,0.0,0.0,0.0,0.0,0.0,0.0,0.0,0.0,0.0,0.0,0.0,0.0,0.0,0.0,0.0,0.0,0.0,0.0,0.0,0.0,0.0,0.0,0.0,0.0,0.0,0.0,0.0,0.0,0.0,0.0,0.0,0.0,0.0,0.0,0.0,0.0,0.0,0.0,0.0,0.0,0.0,0.0,0.0,0.0,0.0,0.0,0.0,0.0,0.0,0.0,0.0,0.0,0.0,0.0,0.0,0.0,0.0,0.0,0.0,0.0,0.0,0.0,0.0,0.0,0.0,0.0,0.0,0.0,0.0,0.0,0.0,0.0,0.0,0.0,0.0,0.0,0.0,0.0,0.0,0.0,0.0,0.0,0.0,0.0,0.0,0.0,0.0,0.0,0.0,0.0,0.0,0.0,0.0,0.0,0.0,0.0,0.0,0.0,0.0,0.0,0.0,0.0,0.0,0.0,0.0,0.0,0.0,0.0,0.0,0.0,0.0,0.0,0.0,0.0,0.0,0.0,0.0,0.0,0.0,0.0,0.0,0.0,0.0,0.0,0.0,0.0,0.0,0.0,0.0,0.0,0.0,0.0,0.0,0.0,0.0,0.0,0.0,0.0,0.0,0.0,0.0,0.0,0.0,0.0,0.0,0.0,0.0,0.0,0.0,0.0,0.0,0.0,0.0,0.0,0.0,0.0,0.0,0.0,0.0,0.0,0.0,0.0,0.0,0.0,0.0,0.0,2.5716,0.0,0.0,0.0,0.0,0.0,0.0,0.0,0.0,0.0,0.0,0.0,0.0,0.0,0.0,0.0,0.0,0.0,0.0,0.0,0.0,0.0,0.0,0.0,0.0,0.0,0.0,0.0,0.0,0.0,0.0,0.0,0.0,0.0,0.0,0.0,0.0,0.0,0.0,3.5286,3.5286,3.5443,3.5704,3.6227,3.573,3.4397,0.0,0.0,0.0,0.0,0.0,0.0,0.0,0.0,0.0,0.0,0.0,0.0,0.0,0.0,0.0,0.0,0.0,0.0,0.0,0.0,0.0,0.0,0.0,0.0,0.0,0.0,0.0,0.0,0.0,0.0,0.0,0.0,0.0,0.0,0.0,0.0,0.0,0.0,0.0,0.0,0.0,0.0,0.0,0.0,0.0,0.0,0.0,0.0,0.0,0.0,0.0,0.0,0.0,0.0,0.0,0.0,0.0,0.0,0.0,0.0,0.0,0.0,0.0,0.0,0.0,0.0,0.0,0.0,0.0,0.0,0.0,2.7133,0.0,0.0,0.0,0.0,0.0,0.0,0.0,0.0,0.0,0.0,0.0,0.0,0.0,0.0,0.0,0.0,0.0,0.0,0.0,0.0,0.0,0.0,0.0,3.0237,3.0507,3.0637,3.0933,3.1124,0.0,0.0,0.0,0.0,0.0,0.0,0.0,3.5234,3.5286,3.5286,3.5809,3.6488,3.7351,3.8893,3.8344,3.6044,3.573,0.0,0.0,0.0,0.0,0.0,0.0,0.0,0.0,0.0,0.0,0.0,0.0,0.0,0.0,0.0,0.0,0.0,0.0,0.0,0.0,0.0,0.0,0.0,0.0,0.0,0.0,0.0,0.0,0.0,0.0,0.0,0.0,0.0,0.0,0.0,0.0,0.0,0.0,0.0,0.0,0.0,0.0,0.0,0.0,0.0,0.0,0.0,0.0,0.0,0.0,0.0,0.0,0.0,0.0,0.0,0.0,0.0,0.0,0.0,0.0,0.0,0.0,0.0,3.5051,3.5521,3.5887,3.5887,3.5391,3.4371,3.224,3.0459,2.9013,2.9231,0.0,0.0,0.0,0.0,0.0,0.0,0.0,0.0,0.0,0.0,0.0,0.0,0.0,0.0,0.0,0.0,0.0,0.0,0.0,0.0,0.0,3.1336,3.1811,3.164,3.2209,3.2515,3.2239,0.0,0.0,0.0,0.0,0.0,3.4528,3.5025,3.5286,3.5286,3.7821,4.0095,4.2134,4.284,4.2997,4.2448,3.8527,3.7273,3.8004,0.0,0.0,0.0,0.0,0.0,0.0,0.0,0.0,0.0,0.0,0.0,0.0,0.0,0.0,0.0,0.0,0.0,0.0,0.0,0.0,0.0,0.0,0.0,0.0,0.0,0.0,0.0,0.0,0.0,0.0,0.0,0.0,0.0,0.0,0.0,0.0,0.0,0.0,0.0,0.0,0.0,2.9757,2.9621,0.0,0.0,0.0,0.0,0.0,0.0,0.0,0.0,0.0,0.0,0.0,0.0,0.0,3.5391,3.6985,3.7534,3.7874,3.8031,3.8632,3.8684,3.8266,3.8266,3.8187,3.8031,3.7671,0.0,3.1249,2.9876,0.0,0.0,0.0,0.0,0.0,0.0,0.0,0.0,0.0,0.0,0.0,0.0,0.0,0.0,0.0,0.0,0.0,0.0,0.0,0.0,0.0,3.2288,3.2928,3.2449,3.4452,3.4951,3.3204,3.4826,0.0,0.0,0.0,3.4816,3.4894,3.5155,3.6253,3.8161,4.1716,4.4147,4.5425,4.6682,4.6917,4.6212,4.4173,4.1768,3.9102,3.7456,0.0,0.0,0.0,0.0,0.0,0.0,0.0,0.0,0.0,0.0,0.0,0.0,0.0,0.0,0.0,0.0,0.0,0.0,0.0,0.0,0.0,0.0,0.0,0.0,0.0,0.0,0.0,0.0,0.0,0.0,0.0,0.0,0.0,0.0,0.0,0.0,0.0,0.0,0.0,3.1498,3.2241,3.1512,3.1823,3.1601,0.0,0.0,0.0,0.0,0.0,0.0,0.0,0.0,0.0,3.675,3.7403,3.824,3.9311,4.02,4.0984,4.1611,4.2213,4.2369,4.2108,4.2108,4.1742,4.1141,4.1141,3.9577,3.6888,3.3901,3.2071,3.0999,0.0,0.0,0.0,0.0,2.9039,2.9892,0.0,0.0,0.0,0.0,0.0,0.0,0.0,0.0,0.0,0.0,0.0,0.0,3.2264,3.4099,3.5135,3.4984,3.7234,3.7652,3.5286,3.6149,3.6123,3.4685,3.4633,3.4842,3.5286,3.6149,3.837,4.1951,4.5584,4.7937,4.9113,5.0551,5.0838,5.0132,4.9714,4.6552,4.1455,3.9573,3.8031,3.6724,0.0,0.0,0.0,0.0,0.0,0.0,0.0,0.0,0.0,0.0,0.0,0.0,0.0,0.0,0.0,0.0,0.0,0.0,0.0,0.0,0.0,0.0,0.0,0.0,0.0,0.0,0.0,0.0,0.0,0.0,0.0,0.0,0.0,0.0,0.0,0.0,0.0,3.3688,3.458,3.3273,3.4319,3.4214,0.0,0.0,0.0,0.0,0.0,0.0,3.6724,3.7508,3.8684,4.0435,4.1063,4.1716,4.2396,4.3127,4.399,4.4983,4.5114,4.5192,4.5192,4.5036,4.4354,4.3415,4.3415,4.2892,4.1664,3.7612,3.5103,3.3639,3.2045,3.1522,3.1627,3.1313,3.1575,3.2058,0.0,0.0,0.0,0.0,0.0,0.0,0.0,0.0,0.0,0.0,0.0,3.229,3.4724,3.7486,3.9519,4.0508,4.0687,4.0346,3.9342,3.7325,3.5887,3.5286,3.526,3.526,3.5286,3.8501,4.2134,4.6159,4.8564,5.1126,5.387,5.4524,5.5072,5.5438,5.3844,5.0838,4.6626,4.2788,4.1089,4.0723,3.7351,0.0,0.0,0.0,0.0,0.0,0.0,0.0,0.0,0.0,0.0,0.0,0.0,0.0,0.0,0.0,0.0,0.0,0.0,0.0,0.0,0.0,0.0,0.0,0.0,0.0,0.0,0.0,0.0,0.0,0.0,0.0,0.0,0.0,0.0,0.0,0.0,0.0,0.0,3.4528,3.7273,0.0,0.0,0.0,0.0,3.5809,3.7403,3.9128,4.0906,4.2082,4.3467,4.5218,4.5846,4.6656,4.778,4.731,4.7388,4.7963,4.6891,4.6395,4.6369,4.582,4.519,4.4589,4.4589,4.4304,4.3441,3.9416,3.7377,3.6515,3.3692,3.296,3.3326,3.2163,3.215,3.2568,0.0,0.0,0.0,0.0,0.0,0.0,0.0,0.0,3.0105,3.1009,3.1913,3.3726,3.7053,3.9699,4.1955,4.3643,4.4193,4.3727,4.1925,3.9285,3.7534,3.7011,3.5521,3.594,3.8527,4.1977,4.5558,4.9244,5.2276,5.468,5.6432,5.7033,5.7216,5.7007,5.6405,5.4707,5.2014,4.7231,4.3912,4.1611,3.8867,3.709,0.0,0.0,0.0,0.0,0.0,0.0,0.0,0.0,0.0,0.0,0.0,0.0,0.0,0.0,0.0,0.0,0.0,0.0,0.0,0.0,0.0,0.0,0.0,0.0,0.0,0.0,0.0,0.0,0.0,0.0,0.0,0.0,0.0,0.0,0.0,0.0,0.0,3.9939,4.203,0.0,3.9437,3.9155,3.939,3.9965,4.1272,4.2788,4.4539,4.5375,4.6421,4.7806,4.8041,4.8355,4.8773,4.8564,4.8355,4.8172,4.778,4.7179,4.6473,4.6264,4.5637,4.4668,4.4668,4.4617,4.4278,4.2474,4.0749,3.8998,3.6881,3.6175,3.6305,3.5887,3.5861,3.6018,0.0,0.0,0.0,0.0,0.0,0.0,0.0,0.0,3.0181,3.126,3.2541,3.4881,3.8832,4.1953,4.4694,4.695,4.6939,4.6029,4.4304,4.02,3.7769,3.7612,3.6671,3.7874,4.1507,4.5375,4.8878,5.1936,5.4994,5.7007,5.7948,5.834,5.8314,5.7948,5.7808,5.7033,5.5726,5.1858,4.7885,4.3964,4.1455,3.9886,3.871,0.0,0.0,0.0,0.0,0.0,0.0,0.0,0.0,0.0,0.0,0.0,0.0,0.0,0.0,0.0,0.0,0.0,0.0,0.0,0.0,0.0,0.0,0.0,0.0,0.0,0.0,0.0,0.0,0.0,0.0,0.0,0.0,0.0,0.0,0.0,4.3049,4.3807,4.595,4.6395,4.3912,4.3807,4.4095,4.4487,4.5741,4.697,4.8146,4.8747,4.9348,4.9923,4.9923,4.9923,4.9923,4.9557,4.9165,4.8747,4.8381,4.7571,4.6473,4.6473,4.5846,4.4668,4.4668,4.4668,4.467,4.3912,4.2683,4.1167,3.986,3.9102,3.8736,3.8553,3.8344,3.8135,0.0,0.0,0.0,0.0,0.0,0.0,0.0,2.9804,3.0181,3.126,3.2893,3.5684,4.0208,4.427,4.7774,5.0568,4.8669,4.7048,4.6473,3.9939,3.6358,3.6985,3.8762,4.1089,4.399,4.8538,5.2014,5.4314,5.6562,5.7974,5.8523,5.8523,5.8523,5.8497,5.7921,5.7756,5.7678,5.6458,5.306,4.8198,4.5218,4.365,4.2788,0.0,0.0,0.0,0.0,0.0,0.0,0.0,0.0,0.0,0.0,0.0,0.0,0.0,0.0,0.0,0.0,0.0,0.0,0.0,0.0,0.0,0.0,0.0,0.0,0.0,0.0,0.0,0.0,0.0,0.0,0.0,0.0,0.0,3.871,4.284,4.5712,4.5846,4.8852,4.9819,4.6996,4.8224,4.9218,4.9218,5.0734,5.1648,5.1622,5.2171,5.2223,5.1622,5.1596,5.1596,5.157,5.0446,4.9871,4.9819,4.8695,4.7545,4.6447,4.6447,4.582,4.4668,4.4668,4.4668,4.4617,4.3493,4.3023,4.2944,4.2369,4.1428,4.0357,3.9834,3.9233,3.8632,0.0,0.0,0.0,0.0,0.0,0.0,0.0,2.9804,3.0181,3.126,3.3922,3.7331,4.1637,4.5488,4.8842,5.1428,4.8655,4.629,4.5297,3.9128,3.5966,3.6959,4.0671,4.4434,4.8146,5.1152,5.4001,5.6719,5.7765,5.8366,5.8523,5.8523,5.8523,5.8497,5.834,5.8287,5.8235,5.7477,5.6118,5.4053,4.9479,4.6552,4.4485,0.0,0.0,0.0,0.0,0.0,0.0,0.0,0.0,0.0,0.0,0.0,0.0,0.0,0.0,0.0,0.0,0.0,0.0,0.0,0.0,0.0,0.0,0.0,0.0,0.0,0.0,0.0,0.0,0.0,0.0,0.0,0.0,4.2082,4.2396,4.6081,4.9191,5.0446,5.2563,5.3426,5.2197,5.2145,5.2223,5.2223,5.2642,5.272,5.2276,5.2406,5.2223,5.1622,5.1596,5.1413,5.1021,5.0263,4.9479,4.8643,4.7911,4.697,4.5872,4.5872,4.5454,4.4668,4.4668,4.4487,4.4095,4.3781,4.3154,4.2343,4.1768,4.1089,4.0409,4.0252,3.9573,3.8632,0.0,0.0,0.0,0.0,0.0,0.0,0.0,2.9804,3.0105,3.0959,3.4198,3.7684,4.0947,4.4996,4.824,5.0059,4.7268,4.4959,4.3808,3.9311,3.7456,3.9102,4.3127,4.71,5.089,5.3269,5.5517,5.773,5.8235,5.8523,5.8523,5.8523,5.8523,5.8523,5.8523,5.8523,5.8497,5.8157,5.7817,5.7216,5.3739,5.1073,4.8852,4.5375,4.3859,4.331,4.1324,4.1219,4.1742,3.9808,0.0,0.0,0.0,0.0,0.0,0.0,0.0,0.0,0.0,0.0,0.0,0.0,0.0,0.0,0.0,0.0,0.0,0.0,0.0,0.0,0.0,0.0,0.0,0.0,4.331,4.6264,4.7963,5.0028,5.2093,5.4079,5.5203,5.5674,5.5334,5.4785,5.4367,5.4131,5.4105,5.3739,5.2929,5.2877,5.2485,5.1622,5.1596,5.1335,5.0812,5.0185,4.9453,4.8564,4.7728,4.6865,4.5976,4.5741,4.5297,0.0,4.4668,4.4539,4.4199,4.3702,4.3127,0.0,0.0,0.0,0.0,0.0,3.9364,3.8318,0.0,0.0,0.0,0.0,0.0,0.0,0.0,2.9804,2.998,3.0532,3.3947,3.6956,3.8788,4.315,4.6302,4.7212,4.5028,4.3101,4.2002,4.0069,4.0069,4.2448,4.6003,4.9453,5.272,5.4968,5.6641,5.7835,5.8261,5.8523,5.8523,5.8523,5.8523,5.8523,5.8523,5.8523,5.8523,5.8523,5.8523,5.8418,5.7399,5.5909,5.3949,5.0707,4.9401,4.8982,4.6813,4.5192,4.3964,4.3127,0.0,0.0,0.0,0.0,0.0,0.0,0.0,0.0,0.0,0.0,0.0,0.0,0.0,0.0,0.0,0.0,0.0,0.0,0.0,0.0,0.0,0.0,0.0,0.0,4.7127,5.0106,5.3949,5.4131,5.4602,5.6588,5.6876,5.6902,5.6902,5.6353,5.5804,5.5334,5.5229,5.468,5.3452,0.0,0.0,0.0,0.0,5.1335,5.0812,5.0185,4.9584,4.8956,4.7806,4.6944,4.6369,4.5794,4.5245,4.4668,4.4668,4.4696,4.4539,4.3467,4.2892,4.2762,4.2186,4.1611,4.0984,3.9913,3.8841,3.79,0.0,0.0,0.0,0.0,0.0,0.0,0.0,2.9804,2.998,3.0532,3.3552,3.583,3.6204,4.0313,4.3287,4.3932,4.2684,4.1324,4.0174,4.054,4.2056,4.4826,4.9165,5.2485,5.455,5.6379,5.766,5.834,5.847,5.8523,5.8523,5.8523,5.8523,5.8523,5.8523,5.8523,5.8523,5.8523,5.8523,5.8497,5.8261,5.6876,5.4707,5.2616,5.1256,5.0289,4.8904,4.9374,5.0289,4.7832,4.7048,4.6552,4.3493,4.0488,0.0,0.0,0.0,0.0,0.0,0.0,0.0,0.0,0.0,0.0,0.0,0.0,0.0,0.0,0.0,0.0,0.0,0.0,0.0,4.6369,4.9949,5.3295,5.5935,5.6615,5.6824,5.6824,5.7216,5.7503,5.7503,5.6981,5.6588,5.6484,5.604,5.5072,5.3478,5.34,5.2851,5.1622,5.1596,5.1335,5.0812,5.0185,4.9374,4.8355,0.0,0.0,4.5767,4.5166,4.4826,4.4668,4.4668,4.446,4.399,4.331,4.2474,4.1585,4.0984,4.0409,3.986,3.9128,3.8475,3.79,0.0,0.0,0.0,0.0,0.0,0.0,0.0,2.9804,2.9905,3.0156,3.2591,3.4299,3.4299,3.7419,3.9546,3.9671,3.9103,3.9076,3.9965,4.1638,4.4408,4.8433,5.1648,5.4158,5.5909,5.7085,5.7948,5.8523,5.8523,5.8523,5.8523,5.8523,5.8523,5.8523,5.881,5.8784,5.8523,5.881,5.8784,5.8523,5.8523,5.7843,5.6693,5.5517,5.455,5.3687,5.2825,5.2877,5.3086,5.1361,5.0211,4.9087,4.6761,4.4068,4.1298,0.0,0.0,0.0,0.0,0.0,0.0,0.0,0.0,0.0,0.0,0.0,0.0,0.0,0.0,4.0461,0.0,0.0,4.7832,5.076,5.34,5.57,5.7425,5.7895,5.7974,5.7686,5.7921,5.7869,5.7294,5.6981,5.6562,5.5987,5.5386,5.4576,5.3452,5.3112,5.2537,5.1622,5.1596,5.1204,5.0342,5.0054,4.9322,4.8172,4.731,4.6604,4.6029,4.5454,4.5009,4.4668,4.4668,4.4408,4.3807,4.2944,4.2082,4.1246,4.0644,4.0095,3.9573,3.9259,3.8632,3.79,0.0,0.0,0.0,0.0,0.0,0.0,0.0,2.9804,2.9804,2.9804,3.1512,3.2667,3.2466,3.4591,3.6024,3.5936,3.6345,3.7848,4.0723,4.3206,4.6708,5.157,5.3556,5.5255,5.6771,5.7373,5.7948,5.8523,5.8523,5.8523,5.8523,5.8523,5.8523,5.8523,5.8993,5.8941,5.8549,5.8993,5.8941,5.8523,5.8523,5.8523,5.8444,5.7869,5.7451,5.7059,5.6327,5.5125,5.3844,5.3635,5.1936,4.9766,4.9061,4.7283,4.4774,4.1428,4.0357,0.0,0.0,0.0,0.0,0.0,0.0,0.0,0.0,0.0,4.0043,4.2343,4.3363,4.4696,4.7492,4.9505,5.1727,5.4759,5.6223,5.7346,5.8366,5.8523,5.8444,5.8209,5.8287,5.7974,5.7059,5.6876,5.6379,5.5334,5.4707,5.4079,5.3426,5.2825,5.2223,5.1622,5.1596,5.11,5.008,4.9949,4.9374,4.8355,4.7545,4.6917,4.6447,4.5767,4.5192,4.4668,4.4668,4.433,4.3624,4.2709,4.1873,4.1089,4.0592,4.0017,3.9442,3.9442,3.8789,3.79,0.0,0.0,0.0,0.0,0.0,0.0,0.0,0.0,2.9804,2.9804,3.0834,3.121,3.0256,3.2057,3.3698,3.4533,3.694,3.9651,4.2526,4.5375,4.859,5.2223,5.4524,5.6066,5.6798,5.7373,5.7948,5.8523,5.8523,5.8523,5.8523,5.8523,5.8523,5.8523,5.8575,5.8575,5.8523,5.8575,5.8575,5.8523,5.8523,5.8523,5.8444,5.7869,5.7948,5.8183,5.7085,5.4968,5.2825,5.3792,5.2223,5.0054,5.0943,4.9636,4.7231,4.4251,0.0,3.9285,3.7325,3.6567,3.6776,3.8736,3.8919,3.9965,0.0,0.0,4.5428,4.7728,4.9087,4.9949,5.0342,5.2223,5.4184,5.5595,5.6798,5.7791,5.8418,5.8523,5.8131,5.7111,5.7451,5.7712,5.7651,5.7111,5.6536,5.5857,5.5308,5.4524,5.3452,5.2825,5.2223,5.1622,5.1596,5.1309,5.0707,5.0159,4.9584,4.8956,4.7336,4.6552,4.6447,4.5323,4.4746,4.4668,4.4668,4.4121,4.3101,4.2971,4.1977,4.0514,4.0435,3.9756,3.8815,3.8815,3.8423,3.79,0.0,0.0,0.0,0.0,0.0,0.0,0.0,0.0,0.0,2.9804,3.0181,3.0281,2.9854,3.0775,3.164,3.2214,3.4653,3.8004,4.2239,4.5218,4.8826,5.3295,5.5046,5.604,5.6275,5.719,5.7791,5.8026,5.834,5.8523,5.8523,5.8523,5.8523,5.8523,5.8862,5.8836,5.8523,5.8862,5.881,5.8523,5.8523,5.8314,5.7921,5.6981,5.5961,5.4916,5.4079,5.238,0.0,5.0655,4.9897,4.9087,5.0237,4.9035,4.6761,4.4539,4.2552,0.0,3.9364,0.0,0.0,0.0,4.2422,4.4539,4.7649,4.8224,4.8773,5.1126,5.2223,5.3086,5.4105,5.536,5.6484,0.0,5.7843,5.8131,5.8026,5.7739,5.7085,5.5961,5.5438,5.5308,5.5621,5.5752,5.5438,5.4524,5.4236,5.3739,5.2929,5.2302,5.1858,5.1596,5.1596,5.1335,5.0812,5.0185,4.961,4.9087,4.7989,4.7127,4.6447,4.5976,4.5375,4.4642,4.4382,4.3781,4.2997,4.2657,4.169,4.0383,4.0069,3.9442,3.871,3.871,3.837,3.79,0.0,0.0,0.0,0.0,0.0,0.0,0.0,0.0,0.0,0.0,2.9804,2.9818,2.9934,3.0216,3.0482,3.0773,3.2854,3.6123,4.0697,4.399,4.7858,5.2589,5.4341,5.536,5.5674,5.6667,5.7268,5.7425,5.8,5.8287,5.8287,5.8444,5.8523,5.8523,5.8941,5.8915,5.8549,5.8967,5.8889,5.8497,5.834,5.7843,5.7007,5.536,5.3191,5.1047,5.076,4.9165,4.7127,4.6865,4.6447,4.629,4.778,4.71,4.548,4.4042,4.2605,4.1272,4.0435,0.0,0.0,4.3101,4.5715,4.846,5.0132,5.1047,5.2119,5.4158,5.4889,5.5491,5.6615,5.7137,5.7556,5.7974,5.8183,5.8131,5.7712,5.7033,5.6013,5.455,5.3217,5.2537,5.2772,5.3766,5.4105,5.3452,5.3243,5.2955,5.2511,5.1936,5.1596,5.1596,5.1596,5.1335,5.0812,5.0185,4.961,4.9087,4.8303,4.744,4.6473,4.6159,4.5532,4.4696,4.4121,4.3546,4.2971,4.2239,4.1246,4.0148,3.9573,3.8998,3.8475,3.8475,3.824,3.79,0.0,0.0,0.0,0.0,0.0,0.0,0.0,0.0,0.0,0.0,0.0,0.0,0.0,3.0406,3.0558,3.0962,3.2594,3.4868,3.7848,4.1742,4.5532,4.9087,5.1962,5.4001,5.5099,5.5674,5.6249,5.685,5.7399,5.7756,5.7756,5.8261,5.8523,5.8523,5.8523,5.8523,5.8523,5.8523,5.8523,5.847,5.7895,5.6981,5.5647,5.2798,4.9949,4.7513,4.8094,4.5741,4.2499,4.2997,4.2056,4.1063,4.3337,4.4016,0.0,4.3232,4.1455,3.9677,3.9651,0.0,4.2866,4.5637,4.8094,5.0551,5.34,5.4916,5.6066,5.7268,5.7599,5.7399,5.6902,5.6824,5.685,5.685,5.732,5.7756,5.773,5.6667,5.5099,5.2851,5.1047,4.9793,0.0,5.1256,5.2798,5.3347,5.2851,5.2511,5.2485,5.1936,5.1596,5.1596,5.1596,5.1335,5.0812,5.0185,4.961,4.9061,4.7911,4.7048,4.6447,4.5297,4.4694,4.4696,4.4121,4.3546,4.2944,4.1821,4.0671,3.9573,3.8972,3.8397,3.7926,3.7926,3.7926,3.79,0.0,0.0,0.0,0.0,0.0,0.0,0.0,0.0,0.0,0.0,0.0,0.0,0.0,0.0,0.0,0.0,3.1862,3.3639,3.6515,3.9442,4.2422,4.548,4.8773,5.089,5.1622,5.3347,5.4707,5.5674,5.6223,5.6693,5.7111,5.7294,5.7373,5.7399,5.7791,5.7948,5.7948,5.7948,5.7503,5.6693,5.5752,5.4445,5.2772,5.0289,4.731,4.4251,0.0,4.0801,3.9311,3.9102,3.8632,3.837,3.9547,3.9625,3.9285,3.9076,3.9547,4.0488,4.203,0.0,4.6865,4.974,5.2197,5.4341,5.6092,5.6798,5.7085,5.7085,5.5883,5.4654,5.4053,5.3949,5.4184,5.4968,5.6223,5.7085,5.7085,5.6405,5.4785,5.1727,5.0838,0.0,0.0,0.0,0.0,5.1596,5.2171,5.2328,5.191,5.2093,5.2014,5.1596,5.1596,5.1518,5.1335,5.0368,4.9793,4.9584,4.7675,4.6656,4.6447,4.5271,4.4513,4.4147,4.3964,4.3337,4.2396,4.1638,4.0644,3.9547,3.8945,3.837,3.79,3.79,3.79,3.79,0.0,0.0,0.0,0.0,0.0,0.0,0.0,0.0,0.0,0.0,0.0,0.0,0.0,0.0,0.0,0.0,0.0,3.2489,3.4737,3.6881,3.9181,4.1638,4.467,4.6578,4.7127,4.8799,5.0159,5.11,5.1858,5.2746,5.3739,5.3949,5.4367,5.4942,5.5125,5.5438,5.5804,5.5595,5.4811,5.3661,5.2511,5.076,4.859,4.629,4.352,0.0,3.8057,3.6671,3.6018,3.5835,3.5783,3.5887,3.6462,3.6802,3.7116,3.7743,3.9703,4.2239,4.4983,4.7702,5.0368,5.3034,5.5125,5.6719,5.7547,5.7346,5.6771,5.5778,5.3739,5.1831,5.0838,5.0315,5.0472,5.1831,5.2981,5.4236,5.5674,5.4837,5.3504,5.191,5.0629,4.9584,0.0,0.0,0.0,5.0681,5.1858,5.2223,5.1622,5.2171,5.2223,5.1622,5.1596,5.1518,5.1309,5.0577,5.0002,4.9584,4.7466,4.6473,4.6447,4.5271,4.4408,4.3912,4.365,4.3023,4.2133,4.1115,4.0278,3.952,3.8736,3.8318,3.8161,3.7978,3.8031,3.8161,0.0,0.0,0.0,0.0,0.0,0.0,0.0,0.0,0.0,0.0,0.0,0.0,0.0,0.0,0.0,0.0,0.0,0.0,3.2542,3.4214,3.5913,3.756,3.986,4.135,4.2002,4.2579,4.318,4.3834,4.4905,4.629,4.7937,4.8512,4.9636,5.1126,5.0655,5.1047,5.2067,5.1465,5.0551,4.9427,4.825,4.6133,4.3415,4.1141,3.8919,3.6776,3.5025,3.3692,3.2829,3.3404,3.3639,3.3822,3.4397,3.5757,3.7508,3.9337,4.1873,4.4853,4.8355,5.0969,5.3243,5.5491,5.6824,5.7678,5.7651,5.6562,5.5177,5.353,5.1204,4.8982,0.0,0.0,4.6055,4.778,4.825,4.9793,5.3739,5.2459,5.1675,0.0,0.0,0.0,0.0,0.0,0.0,5.076,0.0,5.2223,5.1622,5.2197,5.225,5.1622,5.1596,5.1361,5.0838,5.076,5.0159,4.9008,4.731,4.6473,4.6447,4.5271,4.4408,4.3807,4.3258,4.2683,4.2054,4.0331,3.9651,3.9547,3.8423,3.8292,3.8658,3.8161,3.8266,3.8606,0.0,0.0,0.0,0.0,0.0,0.0,0.0,0.0,0.0,0.0,0.0,0.0,0.0,0.0,0.0,0.0,0.0,0.0,3.1392,3.2646,3.3561,3.4005,3.6645,3.837,3.8972,4.0357,4.1585,4.2656,4.2892,4.3493,4.4356,4.4487,4.48,4.5218,4.5506,4.6029,4.6682,4.6081,4.5428,4.4643,4.3049,4.1716,4.054,3.9102,3.79,3.6776,3.5025,3.3953,3.3378,3.3535,0.0,0.0,0.0,3.79,3.9547,4.2552,4.5166,4.7832,5.1361,5.3975,5.6066,5.7503,5.7425,5.6902,5.6458,5.4158,5.1727,5.0446,4.697,4.3729,0.0,0.0,0.0,4.6003,4.9165,0.0,5.5099,5.536,0.0,5.4105,0.0,5.2929,5.1936,5.157,0.0,0.0,5.2328,5.2223,5.1622,5.2589,5.2694,5.1622,5.1596,5.1518,5.1387,5.0551,4.9557,4.8407,4.71,4.6473,4.6447,4.5271,4.4173,4.3232,4.3075,4.2448,4.1455,4.0566,4.02,4.0148,3.9442,3.8972,3.8736,3.905,3.8736,3.8135,0.0,0.0,0.0,0.0,0.0,0.0,0.0,0.0,0.0,0.0,0.0,0.0,0.0,0.0,0.0,0.0,0.0,0.0,0.0,3.1575,3.194,3.194,3.3509,3.4528,3.4868,3.5783,3.6724,3.7639,3.7874,3.8553,3.9651,3.9886,4.0409,4.1141,4.1455,4.2056,4.2788,4.1951,4.1298,0.0,0.0,3.8031,3.7246,3.6619,3.5835,3.5025,3.4293,3.4162,3.445,0.0,0.0,3.7534,3.9233,4.0906,4.2866,4.6055,0.0,5.1126,5.4079,5.6196,5.7712,5.8366,5.7451,5.5987,5.4393,5.1544,4.8512,4.582,4.2814,0.0,0.0,0.0,0.0,0.0,0.0,0.0,5.3922,5.4707,5.5125,0.0,5.536,0.0,5.4053,5.353,5.3243,0.0,5.2772,5.2223,5.1622,5.2485,5.2563,5.1622,5.1596,5.1492,5.1256,5.0342,4.9453,4.8564,4.7153,4.6473,4.6421,4.5009,4.3859,4.2997,0.0,4.2134,4.1272,4.0671,4.0409,4.0357,3.9834,3.9547,3.9468,3.9573,3.9207,3.8658,0.0,0.0,0.0,0.0,0.0,0.0,0.0,0.0,0.0,0.0,0.0,0.0,0.0,0.0,0.0,0.0,0.0,0.0,0.0,0.0,3.0973,3.0973,3.0973,3.0973,3.0973,3.0973,3.1235,3.1693,3.2228,3.3247,3.4737,3.5208,3.6227,3.7691,3.7691,3.8266,3.9207,3.8135,3.7508,3.7116,3.5913,3.4972,3.4293,0.0,3.3613,3.2881,3.3404,3.4162,3.5286,3.7586,3.8867,3.9913,4.2239,4.4617,4.7074,4.9871,5.2145,5.421,5.6432,5.7765,5.8497,5.8418,5.6981,5.4811,5.1936,4.8799,4.5297,4.0984,0.0,3.7429,3.5443,3.6567,3.8397,4.0226,0.0,4.6787,5.1884,5.2746,5.4053,5.7268,5.6405,5.5726,5.6196,5.5229,5.4471,5.4341,5.3269,5.2354,5.1753,5.2223,5.2223,5.1622,5.1518,5.123,5.0681,5.008,4.9505,4.893,4.7283,4.6473,4.6421,4.467,4.3572,4.2997,4.2422,0.0,4.1272,4.0749,4.054,4.0488,4.0017,4.0069,4.0357,3.9991,3.973,3.9547,0.0,0.0,0.0,0.0,0.0,0.0,0.0,0.0,0.0,0.0,3.0958,3.0622,0.0,0.0,0.0,0.0,0.0,0.0,0.0,0.0,0.0,3.0973,3.0973,3.0973,3.0973,3.0973,3.1026,3.113,3.1235,3.1444,3.1731,3.1836,3.2045,3.2333,3.2333,3.2698,3.3233,3.262,3.2829,3.3483,3.2333,3.262,3.3666,3.3169,0.0,0.0,3.3561,3.3404,3.3927,3.8998,4.2056,4.4121,4.6421,4.9061,5.1779,5.4158,5.5151,5.5883,5.7712,5.8366,5.8392,5.7921,5.5804,5.3086,5.0185,4.582,0.0,0.0,3.6279,3.4345,3.3953,3.5678,3.8031,4.0723,0.0,0.0,0.0,0.0,5.5412,0.0,0.0,0.0,0.0,0.0,0.0,0.0,0.0,5.2981,5.238,5.2433,5.2223,5.1622,5.1178,5.0655,5.0054,4.9505,4.893,4.8329,4.7074,4.6473,4.6421,4.467,4.3572,4.2997,4.2422,0.0,4.1298,4.1193,4.1167,4.1141,4.1063,4.0775,4.0461,4.088,4.0409,3.9599,0.0,0.0,0.0,0.0,0.0,0.0,0.0,3.0783,3.0849,3.158,3.1519,3.1358,3.1125,3.0955,3.0887,0.0,0.0,0.0,0.0,0.0,0.0,0.0,3.0973,3.0973,3.0973,3.0973,3.0973,3.0973,0.0,3.0973,3.0999,3.1287,3.1444,3.1444,3.1731,3.2019,3.2254,3.1679,3.1914,3.262,3.1757,3.2123,3.3091,0.0,0.0,0.0,0.0,3.3796,3.4659,3.8632,4.1899,4.4905,4.8433,5.1309,5.3713,5.5412,5.6327,5.7059,5.8209,5.8523,5.8366,5.7791,5.4837,5.1126,4.7623,0.0,0.0,0.0,3.3875,3.2934,3.2333,3.458,0.0,0.0,0.0,0.0,0.0,0.0,0.0,0.0,0.0,0.0,0.0,0.0,0.0,0.0,0.0,5.3295,5.2093,5.2014,5.1884,5.1596,5.1073,5.0368,4.9479,4.9218,4.8643,4.7728,4.6891,4.6316,4.5976,4.4225,4.3284,4.2971,4.2108,0.0,4.1324,4.1324,4.1324,4.1324,4.1324,4.1141,4.0906,4.1219,4.0775,4.0043,0.0,0.0,0.0,0.0,0.0,0.0,0.0,3.1256,3.1201,3.1975,3.2051,3.1986,3.1746,3.1254,3.0941,0.0,0.0,0.0,0.0,0.0,0.0,0.0,0.0,0.0,0.0,0.0,0.0,0.0,0.0,0.0,0.0,0.0,0.0,0.0,0.0,3.2333,3.2306,3.1928,3.2137,0.0,0.0,3.2333,0.0,0.0,0.0,0.0,0.0,3.3979,3.5155,3.7821,4.0435,4.3337,4.7597,5.11,5.3844,5.4863,5.617,5.7425,5.8131,5.8418,5.834,5.766,5.4001,4.9531,4.548,4.0906,0.0,0.0,3.2097,3.2097,3.1313,3.3456,3.573,0.0,0.0,0.0,0.0,0.0,0.0,0.0,0.0,0.0,0.0,0.0,0.0,0.0,0.0,0.0,5.1858,5.1779,5.1727,5.1596,5.0943,5.0106,4.9087,4.8826,4.825,4.7278,4.663,4.6055,4.5558,4.3754,4.3023,4.2971,4.1821,0.0,0.0,4.1324,4.1324,4.1324,4.1324,4.1324,4.1324,4.1324,4.101,4.0592,0.0,0.0,0.0,0.0,0.0,0.0,0.0,3.2255,3.2349,3.3115,3.251,3.2074,3.2289,3.1967,3.151,0.0,0.0,0.0,0.0,0.0,0.0,0.0,0.0,0.0,0.0,0.0,0.0,0.0,0.0,0.0,0.0,0.0,0.0,0.0,0.0,0.0,0.0,3.1615,0.0,0.0,0.0,0.0,0.0,0.0,0.0,0.0,0.0,0.0,0.0,0.0,0.0,3.8972,4.2004,4.7048,5.1962,5.2616,0.0,0.0,5.7425,5.8131,5.8261,5.7163,5.34,4.893,4.4905,0.0,0.0,3.2424,3.147,3.1261,3.1641,3.2437,3.3875,3.6567,0.0,4.0775,0.0,0.0,0.0,0.0,0.0,0.0,0.0,0.0,0.0,0.0,0.0,0.0,5.2459,5.2406,5.2171,5.1622,5.0551,4.9688,4.9087,4.8015,4.7383,4.7278,4.6212,4.5663,4.5558,4.3754,4.3023,4.2971,4.1821,0.0,0.0,4.1324,4.1324,4.1324,4.1324,4.1324,4.1324,4.1324,4.1272,4.1167,0.0,0.0,0.0,0.0,0.0,0.0,3.2993,3.2025,3.1685,3.2928,3.2746,3.2412,3.2058,3.2202,3.1993,3.1078,0.0,0.0,0.0,0.0,0.0,0.0,0.0,0.0,0.0,0.0,0.0,3.0973,0.0,0.0,0.0,0.0,0.0,0.0,0.0,0.0,0.0,0.0,0.0,0.0,0.0,0.0,0.0,0.0,0.0,0.0,0.0,0.0,0.0,0.0,0.0,0.0,3.675,4.0148,0.0,0.0,5.1779,5.4341,5.6536,5.7817,5.8157,5.6641,5.2537,4.7806,4.3781,0.0,3.4371,3.1836,3.1156,3.1052,3.1287,3.1784,3.2908,3.5077,0.0,0.0,0.0,0.0,0.0,0.0,0.0,0.0,0.0,0.0,0.0,0.0,0.0,0.0,5.2537,5.2825,5.2589,5.1622,5.0838,4.9819,4.8564,4.7728,4.7153,4.6813,4.6003,4.5373,4.5007,4.4016,4.3337,4.2971,4.2186,0.0,0.0,4.1324,4.1324,4.1324,4.1324,4.1324,4.1324,4.1324,4.1324,4.1272,0.0,0.0,0.0,0.0,0.0,3.2292,3.3081,3.1873,3.1387,3.272,3.2793,3.2559,3.2098,3.215,3.194,3.1287,3.1078,0.0,0.0,0.0,0.0,0.0,0.0,0.0,0.0,0.0,3.0973,3.0973,3.0973,0.0,0.0,0.0,0.0,0.0,0.0,0.0,0.0,0.0,0.0,0.0,0.0,0.0,0.0,0.0,0.0,0.0,0.0,0.0,0.0,0.0,0.0,0.0,3.3195,3.4972,3.8344,0.0,4.8433,5.1805,5.4524,5.6353,5.7163,5.5752,5.1518,4.6656,0.0,0.0,3.3744,3.147,3.0973,3.0973,3.0973,3.1313,3.2097,3.3639,0.0,3.458,3.9259,0.0,0.0,0.0,0.0,0.0,0.0,0.0,0.0,0.0,0.0,0.0,5.2825,5.3164,5.2772,5.1413,5.0812,4.9766,4.8198,4.744,4.6865,4.6473,4.5715,4.5085,4.4642,4.4121,4.365,4.3232,4.25,0.0,0.0,4.1376,4.1324,4.1324,4.1324,4.1324,4.1324,4.1324,4.1324,4.1324,0.0,0.0,0.0,0.0,0.0,0.0,3.2528,3.2074,3.198,3.2813,3.2555,3.2394,3.2672,3.1679,3.1235,3.1745,3.1313,0.0,0.0,0.0,0.0,0.0,0.0,0.0,0.0,0.0,3.0973,3.0973,3.0973,3.0973,3.0973,3.0973,0.0,0.0,0.0,0.0,0.0,0.0,0.0,0.0,0.0,0.0,0.0,0.0,0.0,0.0,0.0,0.0,0.0,0.0,0.0,0.0,0.0,3.2672,3.4554,3.9155,4.4173,4.8721,5.1021,5.3347,5.4994,5.4367,5.0315,4.5584,0.0,3.7743,3.3744,3.147,3.0973,3.0973,3.0973,3.0999,3.1365,3.2515,3.3195,0.0,0.0,0.0,0.0,0.0,0.0,0.0,0.0,0.0,0.0,0.0,0.0,0.0,5.3452,5.34,5.2589,5.0864,5.0211,4.9348,4.8198,4.7048,4.6499,4.6473,4.5297,4.4694,4.4642,4.4121,4.3912,0.0,0.0,0.0,0.0,4.1559,4.1324,4.1324,4.1324,4.1324,4.1324,4.1324,4.1324,4.1324,0.0,0.0,0.0,0.0,0.0,0.0,0.0,3.2579,3.2411,3.3023,3.3038,3.3071,3.33,3.262,3.2228,3.2411,3.1548,0.0,0.0,0.0,0.0,0.0,0.0,0.0,0.0,0.0,3.1182,3.1536,3.1536,3.1757,3.215,3.1757,3.1536,3.151,0.0,0.0,0.0,0.0,0.0,0.0,0.0,0.0,0.0,0.0,0.0,0.0,0.0,0.0,0.0,0.0,0.0,0.0,0.0,0.0,0.0,3.4607,3.9102,0.0,4.5794,4.8015,4.9374,4.7597,4.5378,4.2631,3.9155,3.6305,3.3744,3.147,3.0973,3.0973,3.0973,3.0973,3.1757,3.4084,3.4293,0.0,0.0,0.0,0.0,0.0,0.0,0.0,0.0,0.0,0.0,0.0,0.0,0.0,5.2223,5.2171,5.191,5.1361,5.0394,4.9139,4.7623,4.6865,4.629,4.5898,4.5114,4.4668,4.4668,4.4539,4.4042,0.0,0.0,0.0,0.0,4.1402,4.1324,4.1324,4.1324,4.1324,4.1324,4.1324,4.1324,4.1324,0.0,0.0,0.0,0.0,0.0,0.0,0.0,3.3311,3.3252,3.4033,3.4059,3.4032,3.406,3.3529,3.3106,3.3052,3.2176,0.0,0.0,0.0,0.0,0.0,0.0,0.0,3.0973,3.0973,3.1365,3.2111,3.2111,3.2463,3.3012,3.2672,3.2215,3.1797,3.147,3.1182,0.0,0.0,0.0,0.0,0.0,0.0,3.0973,0.0,0.0,0.0,0.0,0.0,0.0,0.0,0.0,0.0,0.0,0.0,0.0,0.0,3.5077,3.8684,4.1507,4.3938,4.5349,4.3912,4.2369,0.0,0.0,3.5338,3.3509,3.1418,3.0973,3.0973,3.0973,3.0973,3.1653,3.3666,3.3875,0.0,0.0,0.0,0.0,0.0,0.0,0.0,0.0,0.0,0.0,0.0,0.0,0.0,5.1648,5.1413,5.11,5.0655,4.974,4.8643,4.7278,4.6552,4.5976,4.5555,4.5009,4.4617,4.4408,4.4408,4.3912,0.0,0.0,0.0,0.0,4.1402,4.1324,4.1324,4.1324,4.1324,4.1324,4.1324,4.1324,4.1324,0.0,0.0,0.0,0.0,0.0,0.0,0.0,3.414,3.4325,3.5409,3.5302,3.4974,3.4733,3.4179,3.3787,3.3616,0.0,0.0,0.0,0.0,0.0,0.0,0.0,0.0,3.0973,3.0973,3.1548,3.2698,3.2725,3.3091,3.3718,3.3666,3.3038,3.1928,3.185,3.1484,3.0973,3.0973,3.0973,3.0973,3.0973,3.0973,0.0,0.0,0.0,0.0,0.0,0.0,0.0,0.0,0.0,0.0,0.0,0.0,0.0,0.0,0.0,0.0,0.0,4.0671,4.2317,0.0,0.0,0.0,3.6305,3.4633,0.0,3.1339,3.0973,3.1026,3.1156,3.1078,3.1261,3.2032,0.0,0.0,0.0,0.0,0.0,0.0,0.0,0.0,0.0,0.0,0.0,0.0,0.0,0.0,5.1596,5.1021,5.0211,4.9113,4.8433,4.778,4.7148,4.6104,4.5555,4.5558,4.4955,4.4434,4.3912,4.3912,4.3546,0.0,0.0,0.0,0.0,4.1533,4.1324,4.1324,4.1324,4.1324,4.1324,4.1324,4.1324,4.1324,0.0,0.0,0.0,0.0,0.0,0.0,0.0,0.0,0.0,0.0,3.4033,3.3967,3.3885,3.3357,3.3146,0.0,0.0,0.0,0.0,0.0,0.0,0.0,0.0,0.0,3.0999,3.0973,3.1548,3.2698,3.3143,3.3901,3.4894,3.4424,3.3849,3.3143,3.2189,3.1484,3.0973,3.0973,3.0973,3.0973,3.0973,3.0973,0.0,0.0,0.0,0.0,3.0973,3.0973,0.0,0.0,0.0,0.0,0.0,0.0,0.0,0.0,3.1601,3.2241,3.3338,0.0,3.56,3.4643,3.4737,3.4633,0.0,3.2881,3.2542,3.1261,3.0973,3.1392,3.2725,3.1888,3.2045,0.0,0.0,0.0,0.0,0.0,0.0,0.0,0.0,0.0,0.0,0.0,0.0,0.0,0.0,5.1727,5.1021,5.042,4.9793,4.9113,4.7649,4.6604,4.6029,4.5712,4.5401,4.4931,4.4746,4.4434,4.3912,4.3912,4.3363,0.0,0.0,0.0,4.1507,4.1376,4.1324,4.1324,4.1324,4.1324,4.1324,4.1324,4.1324,4.1324,0.0,0.0,0.0,0.0,0.0,0.0,0.0,0.0,0.0,0.0,0.0,0.0,0.0,0.0,0.0,0.0,0.0,0.0,0.0,0.0,0.0,0.0,0.0,3.1667,3.1392,3.1392,3.2071,3.3483,3.4084,3.4946,3.607,3.5469,3.4737,3.3901,3.2424,3.1484,3.0973,3.0973,3.0973,3.0973,3.0973,0.0,0.0,0.0,0.0,0.0,3.0973,3.0973,0.0,3.1575,3.1601,3.1418,0.0,0.0,0.0,0.0,3.1209,3.1444,3.1444,3.2672,3.3822,3.3169,3.3483,3.3718,3.2855,3.2463,3.2045,3.1182,3.0973,3.1365,3.2568,3.181,0.0,0.0,0.0,0.0,0.0,0.0,0.0,0.0,0.0,0.0,0.0,0.0,0.0,0.0,0.0,5.0969,5.042,4.9819,4.9008,4.7911,4.697,4.6316,4.6029,4.548,4.5007,4.4668,4.446,4.4042,4.3467,4.3206,4.2605,0.0,0.0,0.0,4.1324,4.1324,4.1324,4.1324,4.1324,4.1324,4.1324,4.1324,4.1324,4.1324,0.0,0.0,0.0,0.0,0.0,0.0,0.0,0.0,0.0,0.0,0.0,0.0,0.0,0.0,0.0,0.0,0.0,0.0,0.0,0.0,0.0,0.0,3.2424,3.2032,3.1928,3.1928,3.2685,3.4267,3.5051,3.5966,3.6985,3.6567,3.5626,3.4214,3.2672,3.1601,3.0973,3.0973,3.0973,3.0973,3.0973,0.0,0.0,0.0,0.0,0.0,0.0,0.0,0.0,3.2097,3.2097,3.1771,3.228,0.0,0.0,0.0,0.0,0.0,3.1313,3.2934,3.4424,3.3979,3.4005,3.3979,3.3352,3.2411,3.1536,3.1078,0.0,0.0,0.0,3.1836,0.0,0.0,0.0,0.0,0.0,0.0,0.0,0.0,0.0,0.0,0.0,0.0,0.0,0.0,0.0,5.0524,4.9923,4.9296,4.8224,4.6656,4.6447,4.629,4.6212,4.5218,4.4668,4.4668,4.4147,4.3572,4.2997,4.2422,4.1847,4.1324,0.0,0.0,4.1324,4.1324,4.1324,4.1324,4.1324,4.1324,4.1324,4.1324,4.1324,4.1324,0.0,0.0,0.0,0.0,0.0,0.0,0.0,0.0,0.0,0.0,0.0,0.0,0.0,0.0,0.0,0.0,0.0,0.0,0.0,0.0,0.0,3.4868,3.3875,3.3091,3.2568,3.2568,3.2934,3.3718,3.5234,3.6332,3.7011,3.7429,3.6227,3.3692,3.2908,3.1967,3.0973,3.0973,3.0973,3.0973,3.0973,0.0,0.0,0.0,0.0,0.0,0.0,0.0,0.0,3.1182,3.1182,3.113,3.1209,0.0,0.0,0.0,0.0,0.0,3.2803,3.4162,3.458,3.2123,3.2228,3.2672,3.1627,3.1235,3.1078,3.0999,0.0,0.0,0.0,3.3927,3.4607,0.0,0.0,0.0,0.0,0.0,0.0,0.0,0.0,0.0,0.0,0.0,0.0,0.0,0.0,5.0524,4.9923,4.8904,4.7989,4.7231,4.6264,4.5506,4.5009,4.4772,4.4668,4.4668,4.4147,4.3572,4.2997,4.2422,4.1847,4.1324,0.0,4.1324,4.1324,4.1324,4.1324,4.1324,4.1324,4.1324,4.1324,4.1324,4.1324,4.1324,0.0,0.0,0.0,0.0,0.0,0.0,0.0,0.0,0.0,0.0,0.0,0.0,0.0,0.0,0.0,0.0,0.0,0.0,0.0,0.0,3.3613,3.4763,3.4319,3.3901,3.3613,3.4214,3.4816,3.5443,3.7456,3.8579,3.8841,3.7874,3.6201,3.3979,3.3091,3.2228,3.1418,3.1104,3.1235,3.1579,0.0,0.0,0.0,0.0,0.0,0.0,0.0,0.0,0.0,0.0,3.1444,3.1444,3.1444,0.0,0.0,0.0,0.0,0.0,3.1967,3.3012,3.3561,3.2254,3.3221,3.4241,3.3091,3.2359,3.1993,3.2333,0.0,0.0,0.0,0.0,0.0,0.0,0.0,0.0,0.0,0.0,0.0,0.0,0.0,0.0,0.0,0.0,0.0,0.0,0.0,0.0,4.9008,4.8172,4.731,4.6447,4.5611,4.4879,4.4278,4.3964,4.3807,4.3807,4.3546,4.3127,4.2552,4.1951,4.1559,4.1324,0.0,4.1324,4.1324,4.1324,4.1324,4.1324,4.1324,4.1324,4.1324,4.1324,4.1324,4.1272,0.0,0.0,0.0,0.0,0.0,0.0,0.0,0.0,0.0,0.0,0.0,0.0,0.0,0.0,0.0,0.0,0.0,0.0,0.0,3.2948,3.3404,3.4554,3.4607,3.4607,3.4607,3.573,3.6671,3.7403,3.9573,4.054,4.0383,3.8344,3.641,3.4554,3.3404,3.2594,3.2014,3.131,3.1431,3.2037,0.0,0.0,0.0,0.0,0.0,0.0,0.0,0.0,0.0,0.0,0.0,0.0,0.0,0.0,0.0,3.1104,3.0973,3.1078,3.1496,3.2228,3.2934,3.3064,3.4214,3.5208,3.4868,3.3927,3.3378,3.4397,3.492,0.0,0.0,3.6854,0.0,0.0,0.0,0.0,0.0,0.0,0.0,0.0,0.0,0.0,0.0,0.0,0.0,0.0,0.0,0.0,4.8198,4.7388,4.6417,4.5399,4.4853,4.4225,4.352,4.318,4.3023,4.3023,4.2892,4.2605,4.2185,4.1585,4.1324,4.1324,4.1324,4.1324,4.1324,4.1324,4.1324,4.1324,4.1324,4.1324,4.1324,4.1324,4.1324,4.1246,0.0,0.0,0.0,0.0,0.0,0.0,0.0,0.0,0.0,0.0,0.0,0.0,0.0,0.0,0.0,0.0,0.0,0.0,0.0,3.3595,3.4031,3.5182,3.5234,3.5234,3.5234,3.6358,3.7482,3.8579,4.0383,4.0958,4.0383,3.9155,3.7377,3.5182,3.4031,3.3317,3.282,3.1547,3.1431,3.2074,3.2037,0.0,0.0,0.0,0.0,0.0,0.0,0.0,0.0,0.0,0.0,0.0,0.0,0.0,3.1026,3.0999,3.0973,3.1339,3.296,3.3456,3.3639,3.4136,3.3613,3.3483,3.5521,3.5103,3.492,3.7142,3.7612,0.0,0.0,0.0,0.0,0.0,0.0,0.0,0.0,0.0,0.0,0.0,0.0,0.0,0.0,0.0,0.0,0.0,0.0,0.0,4.8172,4.663,4.5454,4.48,4.4225,4.3468,4.2342,4.2762,4.3023,4.3023,4.2474,4.2264,4.2185,4.1585,4.1324,4.1324,4.1324,4.1324,4.1324,4.1324,4.1324,4.1324,4.1324,4.1324,4.1324,4.1324,4.1324,4.1298,0.0,0.0,0.0,0.0,0.0,0.0,0.0,0.0,0.0,0.0,0.0,0.0,0.0,0.0,0.0,0.0,0.0,0.0,0.0,3.3357,3.3778,3.549,3.5544,3.5482,3.5286,3.7482,3.9181,4.0331,4.1895,4.1895,4.0383,3.9104,3.7631,3.5984,3.4331,3.3872,3.4224,3.283,3.2453,3.2791,3.2791,3.272,0.0,0.0,0.0,0.0,0.0,0.0,0.0,0.0,3.2019,3.2055,3.1559,3.1299,3.1198,3.1198,3.1086,3.113,3.1784,3.2489,3.3247,3.4162,3.4345,3.4737,3.6305,3.7429,3.8501,3.9756,4.1455,0.0,0.0,0.0,0.0,0.0,0.0,0.0,0.0,0.0,0.0,0.0,0.0,0.0,0.0,0.0,0.0,0.0,0.0,0.0,0.0,4.5428,4.4589,4.3702,4.3101,4.2656,4.2211,4.203,4.1951,4.1951,4.2108,4.1977,4.1638,4.1402,4.1324,4.1324,4.1324,4.1324,4.1324,4.1324,4.1324,4.1324,4.1324,4.1324,4.1324,4.1324,4.1324,4.1324,0.0,0.0,0.0,0.0,0.0,0.0,0.0,0.0,0.0,0.0,0.0,0.0,0.0,0.0,0.0,0.0,0.0,0.0,3.4399,3.3913,3.4135,3.5519,3.5572,3.5782,3.6241,3.8247,3.9886,4.1036,4.2395,4.2119,4.024,3.8692,3.7806,3.7414,3.5035,3.4866,3.6221,3.4233,3.3592,3.3845,3.3646,3.3526,0.0,0.0,0.0,0.0,0.0,0.0,0.0,0.0,3.2596,3.2408,3.2046,3.1643,3.131,3.131,3.1161,3.0973,3.0973,3.1548,3.2437,3.3561,3.458,3.5887,3.8109,3.9991,4.1611,4.2944,4.4253,4.4933,4.4331,0.0,0.0,0.0,0.0,0.0,0.0,0.0,0.0,0.0,0.0,0.0,0.0,0.0,0.0,0.0,0.0,0.0,0.0,4.4382,4.3755,4.2788,4.2369,4.2133,4.1899,4.1507,4.1324,4.1324,4.1716,4.169,4.1324,4.1324,4.1324,4.1324,4.1324,4.1324,4.1324,4.1324,4.1324,4.1324,4.1324,4.1324,4.1324,4.1324,4.1324,4.1324,0.0,0.0,0.0,0.0,0.0,0.0,0.0,0.0,0.0,0.0,0.0,0.0,0.0,0.0,0.0,0.0,0.0,0.0,3.5825,3.5533,3.5286,3.5329,3.5329,3.6241,3.8228,3.8542,3.9259,4.0409,4.1636,4.1425,3.9942,3.796,3.795,3.9564,3.6288,3.6426,3.889,3.5585,3.464,3.5247,3.4574,3.3973,3.3665,0.0,0.0,0.0,0.0,0.0,0.0,0.0,3.3665,3.2036,3.2525,3.2055,3.131,3.131,3.1161,3.0999,3.0973,3.0999,3.1287,3.2437,3.4031,3.6541,4.1191,4.2631,4.3859,4.6704,4.5671,4.4335,4.475,4.3572,0.0,0.0,0.0,0.0,0.0,0.0,0.0,0.0,0.0,0.0,0.0,0.0,0.0,0.0,0.0,0.0,0.0,4.365,4.2762,4.2238,4.2211,4.1873,4.1324,4.1324,4.1324,4.1324,4.1324,4.1324,4.1324,4.1324,4.1324,4.1324,4.1324,4.1324,4.1324,4.1324,4.1324,4.1324,4.1324,4.1324,4.1324,4.1324,4.1324,4.1324,0.0,0.0,0.0,0.0,0.0,0.0,0.0,0.0,0.0,0.0,0.0,0.0,0.0,0.0,0.0,0.0,0.0,0.0,3.5939,3.535,3.5372,3.6383,3.5886,3.5871,3.6469,3.676,3.8352,4.1304,4.17,4.0908,3.9003,3.9016,3.8811,3.8343,3.7873,3.7929,3.8205,3.6374,3.5466,3.5281,3.5204,3.4806,3.438,0.0,0.0,0.0,0.0,0.0,0.0,0.0,0.0,0.0,3.3318,3.2952,3.2717,3.1961,3.175,3.1686,3.1303,3.1803,3.2765,3.4177,3.6123,3.8684,4.25,4.3493,4.48,4.8904,4.8085,4.6622,4.6608,0.0,0.0,0.0,0.0,0.0,0.0,0.0,0.0,0.0,0.0,0.0,0.0,0.0,0.0,0.0,0.0,0.0,0.0,4.2605,4.216,4.1585,4.1559,4.1481,4.1324,4.1324,4.1324,4.1324,4.1324,4.1324,4.1324,4.1324,4.1324,4.1324,4.1324,4.1324,4.1324,4.1324,4.1324,4.1324,4.1324,4.1324,4.1324,4.1324,4.1324,4.1324,0.0,0.0,0.0,0.0,0.0,0.0,0.0,0.0,0.0,0.0,3.3905,3.3973,0.0,0.0,0.0,0.0,0.0,0.0,0.0,3.5806,3.5869,3.6678,3.6292,3.6252,3.6741,3.7407,3.863,4.0375,4.0421,3.9672,3.829,3.9619,3.9939,3.9544,4.0253,4.04,4.0021,3.8502,3.7334,3.6521,3.6339,3.5889,3.5422,0.0,0.0,0.0,0.0,0.0,0.0,0.0,0.0,0.0,3.4279,3.3712,3.3118,3.249,3.2105,3.1834,3.149,3.2193,3.337,3.501,3.7056,3.9677,4.3389,4.5297,0.0,0.0,4.979,4.7964,4.7733,0.0,0.0,0.0,0.0,0.0,0.0,0.0,0.0,0.0,0.0,0.0,0.0,0.0,0.0,0.0,0.0,0.0,0.0,4.1951,4.1664,4.1324,4.1324,4.1324,4.1324,4.1324,4.1324,4.1324,4.1324,4.1324,4.1324,4.1324,4.1324,4.1324,4.1324,4.1167,4.0958,4.0958,4.0958,4.0958,4.0958,4.1115,4.1324,4.1324,4.1324,4.1324,0.0,0.0,0.0,0.0,0.0,0.0,0.0,0.0,0.0,0.0,3.4312,3.4375,0.0,0.0,0.0,0.0,0.0,0.0,0.0,3.6671,3.6511,3.6428,3.6565,3.7177,3.8347,3.9529,3.9658,3.8589,3.8472,3.8253,3.7957,3.9899,4.1281,4.2117,4.2823,4.3107,4.2932,4.1047,3.9499,3.8332,3.7614,3.6985,3.6543,3.6781,0.0,0.0,0.0,0.0,0.0,0.0,0.0,0.0,3.5204,3.4375,3.3157,3.2995,3.2372,3.175,3.1676,3.2323,3.3436,3.5268,3.7539,4.0331,4.4068,4.7414,5.0368,5.2563,0.0,4.8568,4.8257,0.0,0.0,0.0,0.0,0.0,0.0,0.0,0.0,0.0,0.0,0.0,0.0,0.0,0.0,0.0,0.0,0.0,0.0,4.1611,4.1324,4.1324,4.1324,4.1324,4.1324,4.1324,4.1324,4.1324,4.1272,4.1246,4.1246,4.1246,4.1246,4.1246,4.1193,4.088,4.0409,4.0357,4.0357,4.0357,4.0409,4.0749,4.1246,4.1298,4.1324,4.1374,0.0,0.0,0.0,0.0,0.0,0.0,0.0,0.0,0.0,0.0,0.0,0.0,0.0,0.0,0.0,0.0,0.0,0.0,0.0,3.685,3.654,3.5886,3.6998,3.7945,3.8657,3.8555,3.9173,4.0725,3.9741,3.9099,3.8861,4.0874,4.1852,4.2046,4.2887,4.2592,4.1387,3.9565,3.8661,3.8302,3.7135,3.6596,3.645,3.6107,3.5999,0.0,0.0,0.0,0.0,0.0,0.0,0.0,3.5529,3.5366,3.5054,3.3564,3.3115,3.2991,3.2386,3.2614,3.3607,3.6096,4.0409,4.4487,4.582,4.7388,4.8826,4.9819,4.9487,4.8806,0.0,0.0,0.0,0.0,0.0,0.0,0.0,0.0,0.0,0.0,0.0,0.0,0.0,0.0,0.0,0.0,0.0,0.0,4.1507,4.1376,4.1324,4.1324,4.1324,4.1324,4.1324,4.1324,4.1324,0.0,4.0827,4.0618,4.0618,4.0618,4.0618,4.0592,4.0148,4.0148,4.0383,3.9965,3.9782,3.9834,4.0252,4.0488,4.0671,4.1141,4.1398,4.1597,0.0,0.0,0.0,0.0,0.0,0.0,0.0,0.0,0.0,0.0,0.0,0.0,0.0,0.0,0.0,0.0,0.0,0.0,0.0,0.0,3.6699,3.6267,3.7151,3.8196,3.9356,3.8924,3.9337,4.0604,4.0474,4.03,4.0139,4.2496,4.3407,4.306,4.4217,4.3734,4.2,4.0479,3.926,3.8332,3.7674,3.7015,3.648,3.6255,3.6054,3.5879,3.6101,0.0,0.0,0.0,0.0,0.0,0.0,0.0,3.5522,3.4534,3.41,3.3726,3.2891,3.3571,3.5156,3.7952,4.1324,4.4251,4.5375,4.6107,4.6708,4.731,4.7649,0.0,0.0,0.0,0.0,0.0,0.0,0.0,0.0,0.0,0.0,0.0,0.0,0.0,0.0,0.0,0.0,0.0,0.0,4.088,4.088,4.088,4.0775,4.0514,4.0749,4.088,4.088,4.088,4.088,4.088,4.0566,4.0122,3.9599,3.9886,4.0043,4.0017,3.973,3.9599,3.9573,3.9285,3.9181,3.9233,3.9808,4.02,4.0488,4.1089,4.1448,4.1696,0.0,0.0,0.0,0.0,0.0,0.0,0.0,0.0,0.0,0.0,0.0,0.0,0.0,0.0,0.0,0.0,0.0,0.0,0.0,0.0,0.0,3.7229,3.7549,3.8475,4.0126,4.0008,4.0035,4.0345,4.1263,4.1941,4.2404,4.4269,4.4822,4.435,4.5459,4.4904,4.309,4.1773,4.0127,3.8392,3.8272,3.7524,3.651,3.6493,3.62,3.5784,3.607,3.6196,3.6289,3.6445,0.0,0.0,0.0,0.0,3.5561,3.5432,3.4945,3.4274,3.3396,3.462,3.6755,3.9333,4.101,0.0,4.3938,4.4434,4.467,4.4957,0.0,0.0,0.0,0.0,0.0,0.0,0.0,0.0,0.0,0.0,0.0,0.0,0.0,0.0,0.0,0.0,0.0,0.0,0.0,4.0278,4.0278,4.0278,4.0069,3.9625,4.0043,4.0278,4.0278,4.0278,4.0278,4.0278,4.0174,3.9573,3.8579,3.9076,3.9364,3.9442,3.9364,3.9076,3.871,3.8606,3.8579,3.8632,3.9233,3.973,4.02,4.0801,4.1209,4.1505,0.0,0.0,0.0,0.0,0.0,0.0,0.0,0.0,0.0,0.0,3.682,3.7446,0.0,0.0,0.0,0.0,0.0,0.0,0.0,0.0,0.0,3.8659,3.8822,3.9506,4.0833,4.1057,4.1694,4.2822,4.3001,4.4504,4.7298,4.5352,4.4695,4.515,4.4755,4.3808,4.244,4.1085,3.9709,3.8332,3.7764,3.7105,3.6417,3.5881,3.5776,3.5973,3.6005,3.6195,3.6445,3.6476,3.6507,0.0,0.0,0.0,3.6226,3.5593,3.5237,3.4898,3.446,3.5332,3.6665,3.7945,3.9834,4.1611,0.0,0.0,4.3729,0.0,0.0,0.0,0.0,0.0,0.0,0.0,0.0,0.0,0.0,0.0,0.0,0.0,0.0,0.0,0.0,0.0,0.0,0.0,3.9756,3.973,3.973,3.973,3.9677,3.9599,3.9677,3.973,3.973,3.973,3.973,3.9703,3.9181,3.8606,3.8004,3.8083,3.8397,3.8789,3.8344,3.8344,3.8684,3.8214,3.8004,3.8057,3.8606,3.8867,3.8998,3.9625,4.0123,4.0558,0.0,0.0,0.0,0.0,0.0,0.0,0.0,0.0,0.0,0.0,0.0,3.8482,0.0,0.0,0.0,0.0,0.0,0.0,0.0,0.0,0.0,3.8504,3.889,3.9556,4.0633,4.0645,4.1163,4.2252,4.2931,4.4825,4.7728,4.7279,4.7638,4.8506,4.5992,4.4347,4.3329,4.1265,3.9409,3.7823,3.7524,3.6806,3.5908,3.5609,3.5587,3.5748,3.5941,3.61,3.6258,3.6445,3.6507,3.6507,3.6507,0.0,0.0,0.0,3.5943,3.5769,3.5251,3.5095,3.5413,0.0,3.79,3.9128,4.0017,0.0,4.135,0.0,0.0,0.0,0.0,0.0,0.0,0.0,0.0,0.0,0.0,0.0,0.0,0.0,0.0,0.0,0.0,0.0,0.0,0.0,3.9285,3.9102,3.9102,3.9102,3.8972,3.8658,3.8945,3.9102,3.9102,3.9102,3.9102,3.9102,3.8527,3.8135,3.79,3.79,3.8031,3.824,3.8004,3.8031,3.824,3.8004,3.79,3.7952,3.8501,3.871,3.8789,3.9506,4.0002,4.0387,0.0,0.0,0.0,0.0,0.0,0.0,0.0,0.0,0.0,0.0,0.0,0.0,0.0,0.0,0.0,0.0,0.0,0.0,0.0,0.0,0.0,3.8501,3.8902,3.9488,4.0397,4.0212,4.0536,4.1422,4.2701,4.4904,4.8057,4.9045,5.0661,5.2516,4.8386,4.5813,4.4407,4.2132,4.0187,3.8601,3.7943,3.6985,3.5968,3.5818,3.5791,3.5827,3.5906,0.0,0.0,0.0,0.0,0.0,0.0,0.0,0.0,0.0,0.0,3.6251,3.5578,3.4784,3.4388,3.5364,3.5956,3.6645,0.0,0.0,0.0,0.0,0.0,0.0,0.0,0.0,0.0,0.0,0.0,0.0,0.0,0.0,0.0,0.0,0.0,0.0,0.0,0.0,0.0,0.0,3.8762,3.8501,3.8501,3.8501,3.8318,3.7926,3.8292,3.8501,3.8501,3.8344,3.8187,3.8057,3.7795,3.7665,3.7691,3.7821,3.79,3.79,3.79,3.79,3.79,3.79,3.79,3.7952,3.8344,3.8501,3.86,3.9254,3.9726,4.0121,0.0,0.0,0.0,0.0,0.0,0.0,0.0,0.0,0.0,0.0,0.0,0.0,3.9343,3.9409,3.9083,3.8315,0.0,0.0,0.0,0.0,0.0,3.9337,3.9367,0.0,4.0397,4.039,4.0719,4.1422,4.2701,4.5622,5.0046,5.0106,5.2546,5.6585,5.1959,4.8207,4.5155,4.3808,4.283,4.1931,3.9349,3.7913,3.7255,3.6656,3.6517,3.6559,0.0,0.0,0.0,0.0,0.0,0.0,0.0,0.0,0.0,0.0,0.0,0.0,3.5329,3.4703,0.0,3.4245,3.4393,0.0,0.0,0.0,0.0,0.0,0.0,0.0,0.0,0.0,0.0,0.0,0.0,0.0,0.0,0.0,0.0,0.0,0.0,0.0,0.0,0.0,0.0,0.0,3.7978,3.7952,3.7952,3.7952,3.7926,3.79,3.7926,3.7952,3.7952,3.7377,3.6802,3.6253,3.6802,3.7063,3.7063,3.7639,3.79,3.79,3.79,3.79,3.79,3.79,3.79,3.79,3.7926,3.7952,3.7998,3.8201,3.8845,3.9554,0.0,0.0,0.0,0.0,0.0,0.0,0.0,0.0,0.0,0.0,0.0,0.0,0.0,3.9373,3.9265,3.901,3.9228,0.0,0.0,0.0,0.0,3.9373,3.9373,3.9493,3.9768,3.9768,3.9888,4.0127,4.1444,4.3778,4.71,4.8386,5.0092,5.2055,5.0361,4.8716,4.698,4.3569,4.1474,4.0337,3.896,3.8003,3.7375,3.7165,0.0,0.0,0.0,0.0,0.0,0.0,0.0,0.0,0.0,0.0,0.0,0.0,0.0,3.6164,0.0,0.0,0.0,3.4237,3.4159,3.4378,0.0,0.0,0.0,0.0,0.0,0.0,0.0,0.0,0.0,0.0,0.0,0.0,0.0,0.0,0.0,0.0,0.0,0.0,0.0,0.0,0.0,0.0,0.0,3.7325,3.7325,3.7691,3.7717,3.7325,3.7325,3.7325,3.7325,3.6724,3.6515,3.6671,3.6907,3.6802,3.6462,3.7456,3.7782,3.7603,3.7789,3.79,3.79,3.79,3.79,3.79,3.79,3.79,3.7946,3.833,3.8527,3.8758,0.0,0.0,0.0,0.0,0.0,0.0,0.0,0.0,0.0,3.932,0.0,0.0,0.0,0.0,3.9373,3.9373,3.9373,3.9156,3.8612,3.9119,3.9373,3.9373,3.9373,3.9373,3.9373,3.9373,3.9373,3.9373,4.0516,4.2402,4.5005,4.6561,4.8117,4.9553,4.8686,4.8297,4.8057,4.4766,4.2611,4.1265,3.9948,0.0,3.8751,0.0,0.0,0.0,0.0,0.0,0.0,0.0,0.0,0.0,0.0,0.0,0.0,0.0,0.0,0.0,3.5623,0.0,0.0,0.0,0.0,3.3928,0.0,0.0,0.0,0.0,0.0,0.0,0.0,0.0,0.0,0.0,0.0,0.0,0.0,0.0,0.0,0.0,0.0,0.0,0.0,0.0,0.0,0.0,0.0,0.0,3.6831,3.7269,3.7295,3.6857,3.6742,3.6619,3.6436,3.6044,3.594,3.6123,3.6515,3.6488,3.6149,3.7351,3.7828,3.7685,3.7899,3.8011,3.8011,3.8011,3.7992,3.79,3.7965,3.7992,3.7946,3.8421,3.8618,3.8705,0.0,0.0,0.0,0.0,0.0,0.0,0.0,0.0,3.8661,3.932,0.0,0.0,0.0,0.0,0.0,3.9439,3.9439,3.9403,3.9373,3.9373,3.9373,3.9373,0.0,0.0,3.9373,3.9373,3.9373,3.9373,4.0068,4.1683,4.4257,4.4885,4.692,4.9897,4.7355,4.695,4.8087,4.7429,4.6411,4.5005,0.0,4.1414,4.1444,0.0,0.0,0.0,4.0427,3.9667,0.0,0.0,0.0,0.0,0.0,0.0,0.0,0.0,0.0,0.0,0.0,0.0,0.0,0.0,0.0,0.0,0.0,0.0,0.0,0.0,0.0,0.0,0.0,0.0,0.0,0.0,0.0,0.0,0.0,0.0,0.0,0.0,0.0,0.0,0.0,0.0,0.0,0.0,3.6314,3.6445,3.6445,3.6661,3.6661,3.6471,3.6201,3.5809,3.5312,3.5286,3.4972,3.4424,3.5547,3.607,3.6123,3.7325,3.7985,3.8187,3.8187,3.8213,3.8213,3.8213,3.8103,3.7946,3.8122,3.8103,3.7992,3.8421,3.8948,3.9467,0.0,0.0,0.0,0.0,0.0,0.0,3.8392,3.8811,3.92,0.0,0.0,0.0,4.0127,4.0546,4.0636,4.0157,4.0127,3.9918,3.9403,3.9373,3.9373,3.9373,3.9373,3.9373,3.9373,3.9373,3.9373,3.9373,3.9619,4.0546,4.2192,4.2372,4.3718,4.5891,4.5185,4.4796,4.4605,4.4018,0.0,4.3678,4.2043,4.1953,0.0,0.0,0.0,0.0,0.0,4.0094,3.8736,0.0,3.826,3.7114,0.0,0.0,0.0,0.0,0.0,0.0,3.632,0.0,0.0,0.0,0.0,0.0,0.0,0.0,0.0,0.0,0.0,0.0,0.0,0.0,0.0,0.0,0.0,0.0,0.0,0.0,0.0,0.0,0.0,0.0,0.0,0.0,0.0,0.0,3.5736,3.5864,3.5864,3.6035,3.6077,3.5864,3.54,3.5194,3.5286,3.4868,3.4789,3.5051,3.5365,3.5521,3.5574,3.6928,3.7651,3.7874,3.8299,3.8575,3.8684,3.853,3.8349,3.8122,3.8421,3.833,3.8167,3.8639,3.8818,3.8906,0.0,0.0,0.0,0.0,0.0,3.9649,3.9649,3.9978,4.0247,0.0,0.0,0.0,4.1564,4.1953,4.1923,4.1265,4.0965,4.0516,3.9858,3.9828,3.9709,3.9403,3.9373,3.9373,3.9373,3.9373,3.9373,3.9373,3.9373,3.9798,4.0576,4.0576,4.1324,4.2671,4.2671,4.2462,4.2102,4.2321,0.0,0.0,4.2701,0.0,0.0,4.3509,4.303,0.0,0.0,0.0,4.0942,4.0402,3.9009,0.0,0.0,0.0,0.0,0.0,0.0,0.0,0.0,0.0,0.0,0.0,0.0,0.0,3.4279,3.3837,3.3431,0.0,0.0,0.0,0.0,0.0,0.0,0.0,0.0,0.0,0.0,0.0,0.0,0.0,0.0,0.0,0.0,3.4439,3.4361,3.468,3.4914,3.5201,3.5607,3.5675,3.5633,3.5508,3.5065,3.4873,3.5089,3.4622,3.458,3.492,3.5267,3.5414,3.5467,3.6885,3.759,3.775,3.8425,3.88,3.8908,3.889,3.8666,3.8395,3.8621,3.8575,3.8395,3.8774,3.8819,3.8756,0.0,0.0,3.8123,4.0068,4.0935,4.1452,4.1512,4.1542,4.1542,0.0,4.1713,4.2282,4.3499,4.3618,4.3359,4.259,4.1961,4.1294,4.0546,4.0427,4.0127,3.9559,3.9553,3.9619,3.9493,3.9553,3.9619,3.9493,3.9469,3.9469,3.9493,3.9403,3.9768,4.0397,4.0337,4.0277,4.0367,0.0,0.0,4.241,4.3748,4.4407,0.0,0.0,4.5843,0.0,4.5992,4.5334,4.3808,4.1333,3.9576,0.0,0.0,0.0,0.0,0.0,3.6722,0.0,0.0,0.0,0.0,0.0,0.0,0.0,3.4341,3.407,3.3728,0.0,0.0,0.0,0.0,0.0,0.0,0.0,0.0,0.0,0.0,0.0,0.0,0.0,0.0,0.0,3.3027,3.2817,3.2987,3.3713,3.406,3.4607,3.5561,3.5481,3.5426,3.5386,3.5044,3.4797,3.4797,3.4522,3.4397,3.4397,3.5131,3.5505,3.5653,3.6927,3.7616,3.7794,3.8523,3.8899,3.8953,3.9203,3.9051,3.8647,3.8863,3.8845,3.8692,3.8863,3.8953,3.8997,0.0,0.0,3.8661,4.0127,4.0935,4.1602,4.2141,4.2201,4.241,4.288,4.3868,4.4855,4.5663,4.5681,4.4994,4.3299,4.2991,4.2462,4.1265,4.0696,4.0337,4.0217,4.0726,4.0756,4.0217,4.0726,4.0756,4.0217,3.9679,3.9679,4.0187,3.9679,3.9768,4.0367,3.9858,3.9619,3.9709,0.0,0.0,4.1782,4.3569,0.0,4.5903,4.5603,4.5394,4.5304,4.5454,4.4646,4.3159,0.0,3.9925,3.965,0.0,0.0,0.0,0.0,0.0,0.0,0.0,0.0,0.0,0.0,0.0,0.0,3.5655,3.5655,3.5497,0.0,0.0,0.0,0.0,0.0,0.0,0.0,0.0,0.0,0.0,0.0,0.0,0.0,0.0,0.0,3.2988,3.2817,3.279,3.2935,3.3701,3.442,3.4965,3.5425,3.5548,3.5386,3.5168,3.4962,3.4797,3.4522,3.4397,3.4397,3.4544,3.4984,3.5627,3.612,3.6946,3.8031,3.8357,3.8769,3.9203,3.9292,3.9114,3.8863,3.9114,3.9069,3.8863,3.9114,3.9203,3.9247,0.0,3.8153,3.902,4.1025,4.1923,4.2701,4.3728,4.3878,4.4167,4.5185,4.6471,4.7399,4.7758,4.692,4.5741,4.4436,4.3678,4.291,4.1961,4.1863,4.1713,4.1384,4.2013,4.2222,4.1893,4.1893,4.1602,4.0876,4.0546,4.0217,3.9918,4.0247,4.0217,3.9918,3.9918,3.9918,3.9978,0.0,4.1602,4.2081,4.4018,0.0,4.5843,4.6172,4.6292,4.6262,4.5933,4.4766,4.3189,4.2191,4.1322,0.0,0.0,3.9277,3.8906,0.0,3.8508,3.8508,0.0,0.0,0.0,3.7393,0.0,0.0,0.0,3.5752,3.5593,3.4846,0.0,0.0,0.0,0.0,0.0,0.0,0.0,0.0,0.0,0.0,0.0,0.0,0.0,0.0,3.2296,3.2105,3.2121,3.241,3.3356,3.4056,3.4224,3.4871,3.5196,3.5116,3.5089,3.5044,3.4962,3.4564,3.4397,3.4397,3.4647,3.4971,3.5372,3.6014,3.6784,3.7644,3.8071,3.8529,3.8962,3.9069,3.8997,3.8908,3.9203,3.9203,3.9114,3.9247,3.9292,3.9292,0.0,0.0,3.9349,4.1782,4.2851,4.3808,4.5095,4.5394,4.6022,4.7489,4.864,4.9359,4.9434,4.7818,4.6531,4.6112,4.4496,4.3449,0.0,0.0,4.291,4.2479,4.3,4.3299,4.3289,4.292,4.2381,4.1602,4.1602,4.1025,4.0008,4.0816,4.0816,4.0151,4.0337,4.0546,4.0816,0.0,0.0,4.256,0.0,4.5095,4.5244,4.6591,4.713,4.704,4.6394,4.5136,4.3798,4.3931,0.0,4.1359,4.1137,4.057,0.0,0.0,0.0,0.0,0.0,0.0,0.0,0.0,0.0,3.714,0.0,0.0,0.0,3.4846,0.0,0.0,0.0,0.0,0.0,0.0,0.0,0.0,0.0,0.0,0.0,0.0,0.0,0.0,0.0,3.1447,3.1521,3.1997,3.2925,3.3477,3.3515,3.4197,3.4627,3.4802,3.4861,3.4993,3.5168,3.4688,3.4481,3.4481,3.4895,3.5086,3.5127,3.5979,3.6697,3.7257,3.7785,3.8272,3.8737,3.8935,3.8997,3.8997,3.9203,3.9292,3.9292,3.9292,3.9292,3.9292,3.8482,3.8871,0.0,4.1235,4.2521,4.3738,4.5095,4.5813,4.689,4.885,4.9209,4.9494,5.0016,0.0,0.0,0.0,0.0,0.0,4.6621,0.0,0.0,4.2672,4.3148,4.3199,4.2793,4.3618,4.3479,4.2291,4.2291,4.2201,4.2051,4.0995,4.1354,4.2781,4.1145,0.0,0.0,0.0,4.2321,0.0,4.3868,4.4436,0.0,4.5891,4.6399,4.6352,4.5842,4.541,4.5008,0.0,4.3594,4.2818,0.0,4.2355,0.0,0.0,0.0,0.0,0.0,0.0,0.0,0.0,3.9244,0.0,0.0,0.0,3.6352,3.6289,0.0,0.0,0.0,0.0,0.0,0.0,0.0,0.0,0.0,0.0,0.0,0.0,0.0,0.0,0.0,3.1447,3.1336,3.1415,3.216,3.2707,3.2896,3.35,3.4143,3.4775,3.4486,3.4633,3.5345,3.4962,3.4756,3.4756,3.5003,3.5086,3.5127,3.5385,3.6236,3.7443,3.7524,3.8174,3.9203,3.9247,3.9247,3.9247,3.9292,3.9292,3.9292,3.9292,3.9292,3.9292,3.905,3.923,0.0,0.0,4.2132,4.321,4.4526,4.7249,4.9464,5.0301,5.105,5.1947,0.0,0.0,0.0,0.0,0.0,4.6449,0.0,0.0,0.0,0.0,0.0,0.0,4.4398,4.4981,4.4579,4.3136,4.3527,4.3097,4.1841,4.2013,4.2132,4.2192,4.1743,0.0,4.241,0.0,4.262,0.0,0.0,0.0,0.0,4.5992,4.6304,4.6109,4.5889,4.5274,4.4518,0.0,4.4075,0.0,0.0,0.0,0.0,0.0,0.0,0.0,0.0,0.0,0.0,0.0,0.0,0.0,0.0,0.0,3.6969,0.0,0.0,0.0,0.0,0.0,0.0,0.0,0.0,0.0,0.0,0.0,0.0,0.0,0.0,0.0,0.0,0.0,0.0,0.0,3.1686,3.2006,3.2118,3.288,3.3625,3.426,3.4337,3.4674,3.5386,3.5127,3.4962,3.4962,3.5208,3.529,3.529,3.5467,3.6306,3.7485,3.7358,3.799,3.9042,3.9042,3.9042,3.9087,3.9247,3.9292,3.9292,3.9292,3.9292,3.9292,3.9373,0.0,0.0,0.0,0.0,4.298,0.0,0.0,5.0212,5.1109,0.0,0.0,5.497,5.2695,0.0,0.0,5.0379,4.8503,0.0,0.0,4.5684,0.0,0.0,0.0,0.0,0.0,4.5101,4.3754,4.4458,4.3956,4.2385,4.2947,4.2968,4.2578,0.0,4.2809,4.295,0.0,4.3329,4.3559,4.3559,4.4178,4.5183,4.6301,4.6535,4.6234,4.6133,4.5434,4.4582,4.4602,4.4618,0.0,4.4257,0.0,0.0,0.0,0.0,0.0,4.2263,0.0,0.0,0.0,0.0,0.0,0.0,0.0,0.0,0.0,0.0,0.0,0.0,0.0,0.0,0.0,0.0,0.0,0.0,0.0,0.0,0.0,0.0,0.0,0.0,0.0,0.0,0.0,0.0,3.1362,3.1596,3.2293,3.2992,3.3637,3.4039,3.4552,3.5224,3.5183,3.5208,3.5208,3.5386,3.5426,3.5386,3.5588,3.6347,3.7485,3.7358,3.7946,3.8997,3.8997,3.8997,3.9042,3.9203,3.9292,3.9292,3.9292,3.9292,3.9292,3.9373,3.9373,0.0,0.0,0.0,0.0,0.0,0.0,0.0,0.0,0.0,0.0,0.0,0.0,0.0,0.0,0.0,5.1349,5.1917,0.0,4.6647,0.0,0.0,4.4716,0.0,0.0,0.0,4.3988,4.4655,4.4959,4.4868,4.3593,4.3901,4.5423,4.4187,4.3888,4.4287,4.4915,4.4855,4.4287,4.4287,4.492,4.6022,0.0,4.6993,4.6902,4.6448,0.0,0.0,4.5616,4.544,0.0,0.0,0.0,0.0,0.0,0.0,0.0,0.0,0.0,0.0,4.2879,0.0,0.0,0.0,0.0,3.8292,0.0,0.0,0.0,0.0,0.0,0.0,0.0,0.0,0.0,0.0,0.0,0.0,0.0,0.0,0.0,0.0,0.0,0.0,0.0,0.0,0.0,3.1569,3.1622,3.2112,3.3078,3.3446,3.4,3.4802,3.5197,3.5386,3.5386,3.5588,3.5588,3.5386,3.5588,3.6347,3.7485,3.7485,3.8163,3.9292,3.9292,3.9292,3.9292,3.9292,3.9292,3.9292,3.9292,3.9292,3.9292,0.0,0.0,0.0,0.0,0.0,0.0,0.0,4.7429,0.0,0.0,0.0,0.0,0.0,5.9621,5.8911,0.0,0.0,5.5505,5.2937,5.1091,0.0,0.0,0.0,4.5563,0.0,0.0,0.0,0.0,0.0,4.4904,4.4322,4.3866,4.3901,4.4308,0.0,4.3677,0.0,0.0,0.0,0.0,0.0,4.5707,4.6905,0.0,0.0,4.6741,4.6576,4.6168,0.0,4.561,4.5856,4.6032,4.5187,4.491,4.4764,4.387,4.3932,0.0,0.0,0.0,4.384,4.3408,0.0,0.0,0.0,0.0,0.0,0.0,0.0,0.0,0.0,0.0,0.0,0.0,0.0,0.0,0.0,0.0,0.0,0.0,0.0,0.0,0.0,0.0,0.0,0.0,0.0,0.0,0.0,3.1853,3.2343,3.3088,3.323,3.3761,3.4775,3.4912,3.521,3.5588,3.5669,3.5669,3.5588,3.5669,3.6144,3.6931,3.7323,3.7946,3.8749,3.9156,3.9618,4.0158,4.0158,4.0158,4.0071,3.9513,3.9292,3.9292,4.0898,0.0,0.0,0.0,0.0,0.0,0.0,0.0,0.0,0.0,5.7648,0.0,6.3588,0.0,6.2414,0.0,6.1018,5.8725,5.4101,5.3619,0.0,4.8493,4.8015,0.0,0.0,0.0,0.0,0.0,0.0,4.5017,4.422,4.422,4.4065,4.3823,0.0,4.3847,4.3319,0.0,4.4098,0.0,0.0,4.6009,0.0,0.0,4.6944,4.7281,0.0,4.6511,4.5926,4.568,4.5865,4.6049,4.4941,4.4918,4.5064,4.4209,4.4271,4.4517,4.4086,4.3963,0.0,4.334,4.2571,0.0,4.072,0.0,0.0,0.0,0.0,0.0,0.0,0.0,0.0,0.0,0.0,0.0,0.0,3.5152,0.0,0.0,0.0,0.0,0.0,0.0,0.0,0.0,0.0,0.0,0.0,0.0,3.2308,3.2762,3.2979,3.3539,3.4477,3.4694,3.51,3.571,3.571,3.571,3.571,3.571,3.6035,3.6632,3.7039,3.7621,3.845,3.883,3.9644,4.0603,4.0603,4.0817,4.0986,4.0071,3.9601,3.9292,0.0,0.0,0.0,0.0,4.3247,0.0,0.0,0.0,5.3952,0.0,5.9573,6.2427,6.4125,6.483,6.4816,6.3776,6.3365,0.0,5.5724,5.6762,0.0,0.0,5.0327,5.0088,4.8466,0.0,0.0,0.0,0.0,0.0,4.4671,4.4641,4.4381,4.4057,4.4695,0.0,4.3419,4.489,4.5152,4.468,4.5757,4.5896,4.5375,4.554,4.6819,4.8481,4.7804,4.7127,4.6449,4.5834,4.5618,4.5464,4.4856,4.4641,4.4641,4.4641,4.4641,4.461,4.461,4.461,4.4302,4.2971,0.0,0.0,0.0,0.0,4.029,0.0,0.0,0.0,0.0,0.0,0.0,0.0,0.0,0.0,0.0,0.0,0.0,0.0,0.0,0.0,0.0,0.0,0.0,0.0,0.0,0.0,0.0,0.0,3.2073,3.2218,3.2826,3.3387,3.3908,3.4504,3.5113,3.575,3.571,3.575,3.5831,3.579,3.6089,3.6675,3.6729,3.7368,3.8412,3.8467,3.9357,4.0689,4.0689,4.1239,4.1935,4.0944,4.0027,3.9292,4.2316,4.3189,4.4065,0.0,4.4498,4.5663,0.0,0.0,0.0,0.0,6.2328,6.5322,6.8509,6.8273,6.7513,6.6503,6.5631,0.0,0.0,0.0,0.0,5.5664,5.3883,5.2038,5.0119,4.8747,0.0,4.6326,0.0,0.0,4.5311,4.4818,4.4458,4.422,0.0,0.0,4.3832,4.4234,4.4382,4.4425,4.488,4.551,0.0,0.0,4.6542,4.7773,4.7096,4.6419,4.5895,4.6234,4.5988,4.5557,4.5372,4.4972,4.4702,4.5187,4.501,4.461,4.461,4.461,4.4425,4.3562,4.2971,4.2386,0.0,0.0,0.0,0.0,0.0,0.0,0.0,0.0,0.0,0.0,0.0,0.0,0.0,0.0,0.0,0.0,0.0,0.0,0.0,0.0,0.0,0.0,0.0,0.0,0.0,0.0,0.0,3.2255,3.3247,3.3854,3.3908,3.4504,3.5389,3.6598,3.5991,3.6322,3.7472,3.6844,3.7007,3.7758,3.8699,3.8965,3.8672,3.9632,4.0675,4.1645,4.1645,4.2181,4.279,4.1197,4.0027,3.9373,4.3407,0.0,0.0,4.6037,0.0,0.0,5.0288,0.0,0.0,6.0086,6.3429,0.0,6.7276,6.8577,6.8693,6.7102,6.6594,0.0,0.0,0.0,0.0,5.7949,5.63,5.4391,5.2082,5.0389,0.0,4.6603,0.0,0.0,4.5126,4.4795,4.4496,0.0,0.0,4.4181,0.0,4.4104,4.4411,4.4849,4.4657,0.0,0.0,4.5311,4.5618,4.6265,4.6172,4.5926,4.5649,4.6018,4.5711,4.5157,4.5157,4.4918,4.4702,4.5033,4.4918,4.461,4.461,4.461,4.4394,4.3371,4.2879,4.2355,4.137,4.0782,4.0382,0.0,0.0,0.0,0.0,0.0,0.0,0.0,0.0,0.0,0.0,0.0,0.0,0.0,0.0,0.0,0.0,0.0,0.0,0.0,0.0,0.0,0.0,0.0,0.0,3.2255,3.3678,3.4289,3.3908,3.5112,3.6108,3.6883,3.6805,3.7204,3.8086,3.7625,3.7663,3.8144,3.9189,3.9495,3.9361,4.0371,4.148,4.2589,4.2991,4.3369,4.3608,4.2602,4.1412,4.0366,0.0,0.0,0.0,0.0,0.0,0.0,0.0,5.533,0.0,6.0371,0.0,6.5938,6.4556,6.7563,6.8836,6.6793,0.0,6.5226,6.1594,6.2979,6.2302,5.8608,5.8177,5.673,5.3899,5.1867,0.0,0.0,0.0,4.6049,4.4733,4.4733,0.0,0.0,0.0,0.0,0.0,4.4388,4.4849,4.5403,4.4949,4.4702,4.461,4.461,4.461,4.4702,4.5249,4.5464,4.5464,4.5557,4.5126,4.4641,4.4702,4.4702,4.4641,4.4733,4.4702,4.461,4.461,4.461,4.4332,4.3033,4.2725,4.2355,4.0935,4.0628,4.0597,4.0505,4.0043,3.9582,0.0,0.0,0.0,0.0,0.0,0.0,0.0,0.0,0.0,0.0,0.0,0.0,0.0,0.0,0.0,0.0,0.0,0.0,0.0,0.0,0.0,3.2372,3.4268,3.5032,3.447,0.0,3.7257,3.7639,3.8054,3.8373,3.8684,3.8573,3.8573,3.8743,3.9455,3.9964,4.0392,4.1113,4.2138,4.3418,4.4266,4.4486,4.4339,4.4429,4.3424,4.2108,0.0,0.0,0.0,0.0,0.0,5.5292,5.8334,6.0425,6.2213,6.391,6.7091,6.9215,6.9154,6.8877,6.8382,6.7696,6.6678,0.0,0.0,0.0,0.0,6.2025,6.0332,5.79,5.4591,5.2575,5.0174,0.0,4.7434,4.6726,4.5403,4.5403,0.0,0.0,0.0,0.0,4.4526,4.5149,0.0,4.4825,4.5249,4.5064,4.461,4.461,4.461,4.4641,4.4726,4.4795,4.4849,4.5403,4.5126,4.4702,4.5249,4.5033,4.4733,4.5249,4.5003,4.461,4.461,4.461,4.4425,4.3624,4.3439,4.31,4.1709,4.1401,4.1247,4.0628,4.0413,4.0136,3.9582,0.0,0.0,0.0,0.0,0.0,0.0,0.0,0.0,0.0,0.0,0.0,0.0,0.0,0.0,0.0,0.0,0.0,0.0,0.0,0.0,0.0,3.5532,0.0,0.0,0.0,3.9051,4.1427,3.9797,3.9979,4.1803,4.1145,4.1182,4.1833,4.2541,4.247,4.193,4.2624,4.3061,4.3418,4.4266,4.4557,4.4626,4.5178,4.5022,4.4541,0.0,0.0,0.0,0.0,0.0,0.0,0.0,6.3734,0.0,6.4532,6.5988,6.6925,6.6338,6.7066,6.7423,6.695,6.6273,6.5626,6.4949,6.4549,6.3872,6.2856,6.0886,0.0,5.5267,5.3283,5.0697,4.7619,4.725,4.6388,4.5064,0.0,0.0,0.0,0.0,4.4795,0.0,0.0,0.0,4.5126,4.5464,4.5187,4.461,4.461,4.461,4.461,4.461,4.461,4.4671,4.4941,4.4887,4.4671,4.501,4.4849,4.4671,4.501,4.4856,4.461,4.461,4.461,4.4456,4.3778,4.3593,4.3254,4.1894,4.1586,4.1401,4.0628,4.0505,4.029,3.9613,3.9247,0.0,0.0,0.0,0.0,0.0,0.0,0.0,0.0,0.0,0.0,0.0,0.0,0.0,0.0,0.0,0.0,0.0,0.0,0.0,0.0,0.0,0.0,0.0,0.0,0.0,4.137,4.107,4.1539,4.2602,4.2206,4.2242,4.2633,4.3279,4.337,4.3024,4.3692,4.3966,4.4035,4.4818,4.5311,4.5711,4.6388,4.6752,4.6891,0.0,5.3575,0.0,0.0,5.9012,0.0,6.3325,6.5626,6.6564,6.5006,6.4901,6.461,6.3537,6.5391,6.6488,6.5965,6.578,6.5472,6.4918,6.4241,6.3472,6.2641,6.0794,5.8454,5.5544,5.3683,5.1097,0.0,4.7127,4.6203,0.0,0.0,0.0,0.0,0.0,0.0,0.0,0.0,4.5926,4.5803,4.5957,4.5526,4.4825,4.4825,4.4695,4.461,4.461,4.461,4.461,4.461,4.461,4.461,4.461,4.461,4.461,4.461,4.461,4.461,4.461,4.461,4.4486,4.3963,4.3809,4.3501,4.2294,4.1894,4.1617,4.0874,4.0597,4.032,3.9797,3.9705,0.0,0.0,0.0,0.0,0.0,0.0,0.0,0.0,0.0,0.0,0.0,0.0,0.0,0.0,0.0,3.5561,3.54,3.6101,3.5911,0.0,0.0,3.7898,3.7105,0.0,4.128,4.1294,4.2346,4.2879,4.3033,4.3033,4.3033,4.3063,4.3593,4.3809,4.387,4.4548,4.4825,4.4887,4.5526,4.6142,4.6665,4.7342,4.7927,4.8358,0.0,0.0,0.0,0.0,0.0,0.0,6.2887,6.5719,6.7723,6.7542,6.7047,6.6616,6.6493,6.6211,6.5965,6.5903,6.5349,6.498,6.4888,6.4241,6.3256,6.1963,6.0547,5.8239,5.4868,5.3437,5.1344,0.0,0.0,4.7127,0.0,0.0,0.0,0.0,0.0,0.0,0.0,4.7157,4.7065,4.6542,4.7157,4.6634,4.5495,4.5495,4.5126,4.461,4.461,4.461,4.461,4.461,4.461,4.461,4.461,4.461,4.461,4.461,4.461,4.461,4.461,4.461,4.461,4.4548,4.4517,4.4332,4.3593,4.294,4.2325,4.1648,4.097,4.0474,4.0413,4.0413,4.0166,0.0,0.0,0.0,0.0,0.0,0.0,0.0,0.0,0.0,0.0,0.0,0.0,0.0,0.0,3.6132,3.5432,3.6101,3.6133,3.5335,0.0,3.8987,4.0086,4.1076,4.2431,4.4219,4.3741,4.384,4.4387,4.4387,4.4387,4.4425,4.4486,4.4517,4.4579,4.5218,4.5495,4.5557,4.6234,4.6542,4.6665,4.7342,4.765,4.7773,0.0,0.0,0.0,0.0,0.0,0.0,0.0,6.6088,6.6704,6.6704,6.6827,6.6765,6.6334,6.5719,6.5288,6.5288,6.5042,6.4703,6.4272,6.3595,6.2794,6.184,6.0116,5.8177,5.5992,5.3837,5.159,0.0,0.0,0.0,0.0,0.0,0.0,0.0,0.0,4.6357,4.6634,4.7311,4.7219,4.6665,4.7342,4.7034,4.6142,4.5741,4.5434,4.5126,4.4726,4.461,4.461,4.461,4.461,4.461,4.461,4.461,4.461,4.461,4.461,4.461,4.461,4.461,4.461,4.461,4.461,4.4425,4.3747,4.3408,4.2879,4.1832,4.1032,4.0505,4.0505,4.0505,4.0413,0.0,0.0,0.0,0.0,0.0,0.0,0.0,0.0,0.0,0.0,0.0,0.0,0.0,0.0,3.6352,3.607,3.6352,0.0,3.607,0.0,3.9336,3.989,4.1832,4.3223,4.4024,4.4148,4.4363,4.461,4.461,4.461,4.4641,4.5041,4.5187,4.5249,4.5926,4.6203,4.6265,4.6942,4.7188,4.7281,4.7958,4.8204,4.8235,6.1317,0.0,6.0855,0.0,6.3349,6.3533,6.5965,6.5903,6.5596,6.5596,6.6027,6.615,6.5657,6.5195,6.4888,6.4888,6.4888,6.4672,6.418,6.3318,6.2517,6.184,5.987,0.0,5.6532,5.4176,5.2021,4.9989,4.8573,0.0,0.0,0.0,0.0,0.0,4.688,4.7004,4.7219,4.7681,4.7619,4.7219,4.7711,4.7496,4.6819,4.6142,4.5772,4.5495,4.4856,4.461,4.461,4.461,4.461,4.461,4.461,4.461,4.461,4.461,4.461,4.461,4.461,4.461,4.461,4.461,4.461,4.4486,4.4024,4.3747,4.3223,4.1863,4.1186,4.0751,4.0536,4.0505,4.0505,4.0505,0.0,0.0,0.0,0.0,0.0,0.0,0.0,3.6507,3.6507,0.0,0.0,0.0,0.0,0.0,0.0,0.0,0.0,0.0,0.0,0.0,0.0,4.2294,4.3593,4.3624,4.4302,4.461,4.461,4.461,4.4825,4.5187,4.5464,4.5711,4.5926,4.6603,4.688,4.6973,4.765,4.7896,4.7958,4.845,4.8604,4.8604,6.2517,6.2764,6.3225,6.4641,6.4857,6.4888,6.4918,6.4918,6.4918,6.4918,6.4918,6.4918,6.4918,6.4888,6.4888,6.4888,6.4888,6.4888,6.4888,6.3595,6.2517,0.0,0.0,5.7808,5.5745,5.4391,5.2698,5.0697,0.0,0.0,4.8573,0.0,4.7588,4.7588,4.7588,4.7958,4.8604,4.8604,4.8604,4.8604,4.8604,4.8204,4.7527,4.685,4.6172,4.5495,4.4856,4.461,4.461,4.461,4.461,4.461,4.461,4.461,4.461,4.461,4.461,4.461,4.461,4.461,4.461,4.461,4.461,4.461,4.461,4.4086,4.3223,4.1863,4.1586,4.137,4.0628,4.0505,4.0505,4.0505,0.0,0.0,0.0,0.0,0.0,0.0,3.6907,3.6507,3.6507,0.0,0.0,0.0,0.0,0.0,0.0,0.0,0.0,3.7461,3.8816,0.0,4.0474,4.254,4.3593,4.3624,4.4302,4.461,4.461,4.461,4.5311,4.6542,4.5865,4.5957,4.6634,4.7311,4.7588,4.765,4.8327,4.8604,4.8604,4.8604,4.8604,4.8604,6.4149,6.4241,6.4364,6.4826,6.4888,6.4888,6.4888,6.4888,6.4888,6.4888,6.4888,6.4888,6.4888,6.4888,6.4888,0.0,6.4888,6.4487,0.0,6.3071,6.2086,6.0517,5.9378,5.7808,5.5745,5.4391,5.2944,5.1374,0.0,0.0,0.0,4.8389,4.8296,4.8296,4.8296,4.8419,4.8604,4.8604,4.8604,4.8604,4.8604,4.8481,4.8235,4.7558,4.688,4.6172,4.5495,4.501,4.461,4.461,4.461,4.461,4.461,4.461,4.461,4.461,4.461,4.461,4.461,4.461,4.461,4.461,4.461,4.461,4.461,4.4086,4.3501,4.3069,4.2232,4.1524,4.1309,4.0812,4.0505,4.0505,4.0505,0.0,0.0,0.0,0.0,0.0,3.8292,3.7861,0.0,3.7461,0.0,0.0,0.0,0.0,0.0,0.0,0.0,0.0,3.9985,0.0,4.1955,4.3494,4.4517,4.4979,4.5157,4.5495,4.5957,4.5957,4.6203,4.6603,4.685,4.7096,4.7342,4.8019,4.8296,4.8296,4.8543,4.8604,4.8604,4.8604,4.8604,4.8604,6.4888,6.4888,6.4888,6.4888,6.4888,6.4888,6.4888,6.4888,6.4832,6.4721,6.4832,6.4832,6.4721,6.4832,0.0,6.4888,6.4888,6.4426,6.3256,6.2948,6.2025,6.024,5.9285,5.7808,5.5745,0.0,0.0,5.1713,5.0359,4.9312,4.8604,4.8604,4.8604,4.8604,4.8604,4.8604,4.8604,4.8604,4.8604,4.8604,4.8604,4.8604,4.8543,4.7865,4.7188,4.6511,4.5834,4.5157,4.461,4.461,4.461,4.461,4.461,4.461,4.461,4.461,4.461,4.461,4.461,4.461,4.461,4.461,4.461,4.461,4.461,4.4302,4.3901,4.3655,4.2946,4.2263,4.2017,4.1401,4.0905,4.0905,4.0659,4.0505,4.0505,0.0,0.0,0.0,0.0,0.0,0.0,3.8354,0.0,0.0,0.0,0.0,0.0,0.0,0.0,3.8877,4.0909,0.0,4.334,4.4418,4.5311,4.5957,4.5957,4.6326,4.6973,4.6696,4.688,4.7373,4.7527,4.7742,4.8019,4.845,4.8604,4.8604,4.8604,4.8604,4.8604,4.8604,4.8604,4.8604,6.4888,6.4888,6.4888,0.0,6.4888,0.0,6.4888,6.4888,6.4777,6.4437,6.4691,6.4777,6.4437,6.4691,6.4888,6.4888,0.0,0.0,0.0,6.3071,6.2086,6.0732,5.9408,5.7746,5.5684,5.5684,5.4391,5.1713,5.0359,4.9312,4.8604,4.8604,4.8604,4.8604,4.8604,4.8604,4.8604,4.8604,4.8604,4.8604,4.8604,4.8604,4.8543,4.7927,4.725,4.6573,4.5895,4.5218,4.4671,4.4641,4.461,4.461,4.461,4.461,4.461,4.461,4.461,4.461,4.461,4.461,4.461,4.461,4.461,4.4641,4.4671,4.4702,4.4517,4.387,4.3716,4.347,4.2786,4.2078,4.1586,4.1586,4.1001,4.0505,4.0505,0.0,0.0,0.0,0.0,0.0,0.0,3.9247,3.9059,0.0,0.0,0.0,0.0,0.0,3.9123,3.9708,4.1678,4.3371,4.4733,4.5341,4.5988,4.6665,4.6726,4.7065,4.765,4.7034,4.7434,4.8573,4.7958,4.8019,4.8604,4.8604,4.8604,4.8604,4.8604,4.8604,4.8604,4.8604,4.8604,4.8604,0.0,0.0,6.4888,6.4888,6.4888,6.4888,6.4888,6.4888,6.4777,6.4437,6.4691,6.4777,6.4437,6.4691,6.4888,6.4888,6.4395,6.3779,6.3102,6.1933,6.0671,5.9316,5.8454,5.7038,5.5007,5.5438,5.4391,5.1713,5.0359,4.9312,4.8604,4.8604,4.8604,4.8604,4.8604,4.8604,4.8604,4.8604,4.8604,4.8604,4.8604,4.8604,4.8604,4.8419,4.7958,4.7281,4.6603,4.5926,4.528,4.4756,4.461,4.461,4.461,4.461,4.461,4.461,4.461,4.461,4.461,4.461,4.461,4.461,4.461,4.4726,4.5249,4.5341,4.5311,4.5157,4.4695,4.4178,4.3501,4.2386,4.1586,4.1586,4.1001,4.0505,4.0505,4.0351,0.0,0.0,4.0632,4.0878,4.0878,4.0474,4.0351,0.0,0.0,0.0,0.0,4.1432,4.2232,4.1894,4.334,4.4756,4.6111,4.6265,4.6696,4.7373,4.7896,4.8235,4.8358,4.8204,4.8296,4.8604,4.845,4.845,4.8604,4.8604,4.8604,4.8604,4.8604,4.8604,4.8604,4.8604,4.8604,4.8604,6.4888,6.4888,6.4888,6.4888,6.4888,6.4888,6.4888,6.4777,6.4579,6.4244,6.4468,6.4524,6.4244,6.461,6.4888,6.4888,6.4241,6.3533,6.2856,6.184,6.0517,5.8854,5.8423,5.7285,5.5222,5.5499,5.4391,5.1713,5.0359,4.9312,4.8604,4.8604,4.8604,4.8604,4.8604,4.8604,4.8604,4.8604,4.8604,4.8604,4.8604,4.8604,4.8604,4.8604,4.8204,4.7558,4.7188,4.6419,4.5588,4.5526,4.5095,4.4733,4.5311,4.5064,4.4671,4.4979,4.4856,4.461,4.461,4.461,4.4702,4.501,4.5033,4.5218,4.5895,4.6049,4.6049,4.6049,4.5741,4.5311,4.4641,4.3439,4.2417,4.2109,4.1151,4.0505,4.0505,4.0505,0.0,4.0935,4.137,4.1832,4.2448,4.214,4.1955,4.2048,0.0,0.0,4.1458,4.3402,4.4086,4.3063,4.4633,4.5988,4.7065,4.7373,4.7711,4.8081,4.845,4.8604,4.8604,4.8604,4.8604,4.8604,4.8604,4.8604,4.8604,4.8604,4.8604,4.8604,4.8604,4.8604,4.8604,4.8604,4.8604,4.8604,6.4888,6.4888,6.4888,6.4888,6.4888,6.4888,6.4888,6.4635,6.4356,6.4106,6.43,6.4356,6.4106,6.4554,6.4888,6.4888,6.4241,6.3533,6.2856,6.1994,6.0701,5.8854,5.8577,5.7562,5.5592,5.5161,5.3868,5.1713,5.0236,4.922,4.8604,4.8604,4.8604,4.8604,4.8604,4.8604,4.8604,4.8604,4.8604,4.8604,4.8604,4.8604,4.8604,4.8604,4.8266,4.7742,4.765,4.688,4.5957,4.6419,4.5834,4.5095,4.6234,4.5803,4.5003,4.5557,4.5341,4.4887,4.4795,4.4787,4.5033,4.5588,4.5741,4.5926,4.6603,4.6757,4.6757,4.6757,4.6757,4.6511,4.5741,4.461,4.3531,4.2848,4.1586,4.0659,4.0659,0.0,4.097,4.1678,4.1925,4.254,4.3778,4.3901,4.3716,4.3248,4.4141,4.4295,4.3279,4.491,4.5372,4.424,4.5865,4.7065,4.7742,4.8327,4.8604,4.8604,4.8604,4.8604,4.8604,4.8604,4.8604,4.8604,4.8604,4.8604,4.8604,4.8604,4.8604,4.8604,4.8604,4.8604,4.8604,4.8604,4.8604,4.8604,6.4888,6.4888,6.4888,6.4888,6.4888,6.4888,6.4888,6.4832,6.4721,6.4412,6.4635,6.4721,6.4356,6.4635,6.4888,6.4888,6.4241,6.3533,6.2856,6.1101,5.9716,5.8824,5.7734,5.6392,5.4914,5.2637,5.1559,5.1713,4.9743,4.8727,4.8604,4.8604,4.8604,4.8604,4.8604,4.8604,4.8604,4.8604,4.8604,4.8604,4.8604,4.8604,4.8604,4.8604,4.8543,4.8389,4.7804,4.7465,4.7219,4.6757,4.6449,4.6326,4.6542,4.6449,4.6296,4.6419,4.6357,4.6172,4.5588,4.5865,4.6296,4.6419,4.6449,4.6603,4.7281,4.7434,4.7434,4.7434,4.7434,4.7065,4.5803,4.4979,4.424,4.3562,4.2294,4.1432,4.1432,0.0,4.1678,4.2355,4.3433,4.4456,4.5187,4.528,4.5464,4.5926,4.5649,4.5588,4.5957,4.6819,4.7188,4.7004,4.7281,4.7773,4.845,4.8573,4.8604,4.8604,4.8604,4.8604,4.8604,4.8604,4.8604,4.8604,4.8604,4.8604,4.8604,4.8604,4.8604,4.8604,4.8604,4.8604,4.8604,4.8604,4.8604,4.8604,6.4888,6.4888,6.4888,6.4888,6.4888,6.4888,6.4888,6.4777,6.4579,6.4437,6.4524,6.4579,6.4437,6.4691,6.4888,6.4888,6.4241,6.3533,6.2856,6.1594,6.0424,5.9378,5.8073,5.6146,5.3714,5.2082,5.1036,5.0605,4.9281,4.8604,4.8604,4.8604,4.8604,4.8604,4.8604,4.8604,4.8604,4.8604,4.8604,4.8604,4.8604,4.8604,4.8604,4.8604,4.8604,4.8573,4.8266,4.7927,4.7619,4.7681,4.7188,4.6726,4.7465,4.7188,4.6665,4.7034,4.688,4.6542,4.6203,4.6357,4.6696,4.7065,4.7127,4.7311,4.7989,4.8142,4.8142,4.8142,4.8142,4.7835,4.685,4.5834,4.5033,4.4733,4.294,0.0,0.0,4.2355,4.2509,4.3556,4.4541,4.5526,4.6573,4.6357,4.6419,4.7096,4.6511,4.6419,4.7096,4.7434,4.7773,4.8142,4.8142,4.8296,4.8604,4.8604,4.8604,4.8604,4.8604,4.882,4.9189,4.8789,4.882,4.9158,4.8789,4.8604,4.8604,4.8604,4.8604,4.8604,4.8604,4.8604,4.8604,4.8604,4.8604,4.8604,6.4888,6.4888,6.4888,6.4888,6.4888,6.4888,6.4888,6.4691,6.4524,6.4524,6.4524,6.4463,6.4279,6.4476,6.4641,6.4641,6.4149,6.3533,6.2856,6.2333,6.1379,5.987,5.8177,5.5838,5.279,5.1898,5.0944,4.9928,4.9035,4.8604,4.8604,4.8604,4.8604,4.8604,4.8604,4.8604,4.8604,4.8604,4.8604,4.8604,4.8604,4.8604,4.8604,4.8604,4.8604,4.8604,4.8604,4.8296,4.7927,4.845,4.7927,4.725,4.8296,4.7896,4.7157,4.7681,4.7465,4.7065,4.7065,4.7065,4.7188,4.7711,4.7835,4.7989,4.8481,4.8604,4.8604,4.8604,4.8604,4.8419,4.7742,4.6757,4.5957,4.5649,0.0,0.0,0.0,4.3494,4.3741,4.491,4.5649,4.6511,4.7711,4.7373,4.7281,4.7804,4.7373,4.7281,4.7804,4.7835,4.8081,4.8604,4.8604,4.8604,4.8604,4.8604,4.8696,4.8881,4.8881,4.922,4.9897,4.9343,4.9404,4.9866,4.9158,4.8881,4.885,4.8696,4.8604,4.8635,4.8789,4.8758,4.8666,4.8974,4.9004,4.8881,6.4888,6.4888,6.4888,6.4888,6.4888,6.4888,6.4888,6.4888,6.4832,6.4832,6.4832,6.4586,6.391,6.3848,6.3903,6.3903,6.3841,6.3533,6.2856,6.2764,6.1871,5.987,5.7254,5.4853,5.276,5.1436,5.0728,5.0636,4.9281,4.8604,4.8604,4.8604,4.8604,4.8604,4.8604,4.8604,4.8604,4.8604,4.8604,4.8604,4.8604,4.8604,4.8604,4.8604,4.8604,4.8604,4.8604,4.8573,4.8543,4.8604,4.8543,4.8481,4.8573,4.8543,4.8481,4.8512,4.8512,4.845,4.845,4.845,4.8481,4.8512,4.8543,4.8543,4.8604,4.8604,4.8604,4.8604,4.8604,4.8419,4.7742,4.7527,4.7065,4.5803,0.0,0.0,4.461,4.5003,4.5649,4.6357,4.7034,4.7742,4.8481,4.8481,4.8481,4.8543,4.8481,4.8481,4.8543,4.8543,4.8573,4.8604,4.8604,4.8604,4.8604,4.8604,4.8943,4.962,4.962,4.9959,5.0605,5.0574,5.0574,5.0574,4.9897,4.962,4.9558,4.8881,4.8604,4.8696,4.9343,4.9189,4.8758,5.0051,5.0143,4.9682,6.4888,6.4888,6.4888,6.4888,6.4888,6.4888,6.4888,6.4888,6.4888,6.4888,6.4888,6.4641,6.3903,6.4241,6.4303,6.3872,6.4241,6.4026,6.2887,6.2825,6.1348,5.8054,5.6964,5.5007,5.2144,5.159,5.0913,5.0082,4.9528,4.9066,4.8604,4.8604,4.8604,4.8604,4.8604,4.8604,4.8604,4.8604,4.8604,4.8604,4.8604,4.8604,4.8604,4.8604,4.8604,4.8604,4.8604,4.8604,4.8604,4.8604,4.8604,4.8604,4.8604,4.8604,4.8604,4.8604,4.8604,4.8604,4.8604,4.8604,4.8604,4.8604,4.8604,4.8604,4.8604,4.8604,4.8604,4.8604,4.8604,4.8543,4.8266,4.7896,4.7588,4.7496,0.0,4.5803,4.6357,4.6326,4.648,4.7127,4.7804,4.8327,4.8604,4.9004,4.9281,4.9281,4.9281,4.9281,4.9281,4.9281,4.9281,4.9281,4.9682,4.9497,4.8635,4.9066,4.9404,4.9682,5.0112,5.0667,5.1313,5.0882,5.0913,5.1282,5.0605,5.0082,4.9651,4.9404,4.9004,4.8696,4.9404,4.9528,4.9404,5.0359,5.0543,5.0359,6.4888,6.4888,6.4888,6.4888,6.4888,6.4888,6.4888,6.4888,6.4888,6.4888,6.4888,6.4549,6.3626,6.4149,6.418,6.3256,6.3841,6.3749,6.2579,6.2086,6.0424,5.7272,5.6933,5.5423,5.239,5.1929,5.1159,4.9989,4.9989,4.9528,4.8635,4.885,4.882,4.8604,4.8604,4.8604,4.8604,4.8604,4.8604,4.8604,4.8604,4.8604,4.8604,4.8604,4.8604,4.8604,4.8604,4.8604,4.8604,4.8604,4.8604,4.8604,4.8604,4.8604,4.8604,4.8604,4.8604,4.8604,4.8604,4.8604,4.8604,4.8604,4.8604,4.8604,4.8604,4.8604,4.8696,4.8912,4.8943,4.8943,4.8943,4.8573,4.8266,4.8296,4.7311,4.685,4.7804,4.7711,4.7804,4.8481,4.8974,4.9281,4.9281,4.9712,4.9989,4.9989,4.9805,4.9682,4.9682,4.9897,4.9989,4.9989,5.0451,5.0236,4.9281,4.9743,5.0112,5.0328,5.079,5.1374,5.2021,5.1528,5.159,5.199,5.1313,5.0759,5.0297,4.9866,4.9528,4.9312,4.9805,4.9989,5.0112,5.1005,5.119,5.1036,6.4888,6.4888,6.4888,6.4888,6.4888,6.4888,6.4888,6.4888,6.4888,6.4888,6.4888,6.4364,6.2979,6.341,6.3287,6.1933,6.2425,6.2548,6.184,6.0547,5.9193,5.7888,5.7179,5.5807,5.3775,5.2421,5.1374,5.0697,5.0697,4.9989,4.8635,4.9343,4.9312,4.8604,4.8604,4.8604,4.8604,4.8604,4.8604,4.8604,4.8604,4.8604,4.8604,4.8604,4.8604,4.8604,4.8604,4.8604,4.8604,4.8604,4.8604,4.8604,4.8604,4.8604,4.8604,4.8604,4.8604,4.8604,4.8635,4.8635,4.8635,4.8604,4.8604,4.8604,4.8635,4.8635,4.882,4.9558,4.9682,4.9682,4.9682,4.9682,4.9251,4.7865,4.8204,4.8635,4.8635,4.9251,4.9928,5.0605,5.0697,5.0697,5.0697,5.0697,5.0697,5.0697,5.0082,4.9682,4.9682,5.0328,5.0697,5.0697,5.0697,5.0697,5.0697,5.0697,5.1036,5.1713,5.1713,5.2082,5.2698,5.2698,5.2698,5.2667,5.2021,5.1713,5.159,5.0266,5.0082,5.0697,5.0697,5.0697,5.0882,5.2206,5.2298,5.1805,6.4888,6.4888,6.4888,6.4888,6.4888,6.4888,6.4888,6.4888,6.4888,6.4888,6.4457,6.3995,6.3564,6.3718,6.3472,6.2579,6.3133,6.3041,6.1871,6.0978,6.0116,5.9224,5.7672,5.5807,5.3775,5.3345,5.279,5.2113,5.1621,5.0944,5.0082,4.9805,4.9312,4.8604,4.8604,4.8604,4.8604,4.8604,4.8604,4.8604,4.8604,4.8604,4.8604,4.8604,4.8604,4.8604,4.8604,4.8604,4.8604,4.8604,4.8604,4.8604,4.8604,4.8604,4.8604,4.8604,4.8604,4.8727,4.922,4.9374,4.9251,4.8727,4.8604,4.8758,4.9251,4.9374,4.9558,5.0266,5.0389,5.0389,5.0389,5.0389,5.0266,4.9835,4.9928,5.0082,5.0082,5.0266,5.0482,5.0667,5.0697,5.0697,5.0697,5.1128,5.1405,5.1405,5.1221,5.0882,5.042,5.1036,5.1405,5.1405,5.1867,5.2113,5.2113,5.1652,5.1498,5.1713,5.2175,5.2513,5.2698,5.2698,5.2698,5.2698,5.2513,5.2144,5.1682,5.1251,5.0944,5.0759,5.1221,5.1405,5.1498,5.239,5.2575,5.2452,6.4888,6.4888,6.4888,6.4888,6.4888,6.4888,6.4888,6.4888,6.4888,6.4888,6.4518,6.4149,6.3841,6.4087,6.3749,6.2517,6.2548,6.2179,6.1071,6.064,6.0209,5.9809,5.8412,5.6607,5.4545,5.3991,5.3252,5.2298,5.2175,5.1467,5.0297,5.0143,4.9558,4.8604,4.8604,4.8604,4.8604,4.8604,4.8604,4.8604,4.8604,4.8604,4.8604,4.8604,4.8604,4.8604,4.8604,4.8604,4.8604,4.8604,4.8604,4.8604,4.8604,4.8604,4.8666,4.8943,4.9035,4.9189,4.9897,5.0082,4.9989,4.9528,4.9435,4.9558,4.9989,5.0082,5.0266,5.0944,5.1097,5.1097,5.1097,5.1097,5.1005,5.0728,5.0697,5.079,5.1067,5.1097,5.119,5.1467,5.1498,5.1498,5.1498,5.1867,5.199,5.1713,5.1959,5.1805,5.1128,5.1744,5.2113,5.2113,5.2513,5.2698,5.2698,5.2298,5.2113,5.2113,5.2513,5.2698,5.2698,5.2698,5.2698,5.2698,5.2698,5.2483,5.2082,5.1805,5.1621,5.1498,5.1652,5.1867,5.2144,5.2575,5.2698,5.2698,6.4888,6.4888,6.4888,6.4888,6.4888,6.4888,6.4888,6.4888,6.4888,6.4795,6.4795,6.4549,6.3903,6.4426,6.4057,6.2148,6.1317,6.0578,5.9839,5.9778,5.9778,5.9778,5.9131,5.79,5.6023,5.4668,5.3345,5.1959,5.2544,5.1836,4.9959,5.0451,4.9989,4.8696,4.8635,4.8604,4.8604,4.8604,4.8604,4.8604,4.8604,4.8604,4.8604,4.8604,4.8604,4.8604,4.8604,4.8604,4.8604,4.8604,4.8604,4.8604,4.8604,4.8666,4.885,4.9497,4.9712,4.9928,5.0605,5.079,5.079,5.0851,5.0882,5.0851,5.079,5.079,5.0974,5.1652,5.1805,5.1805,5.1805,5.1805,5.159,5.0974,5.0882,5.1097,5.1713,5.1805,5.2021,5.2637,5.2698,5.2698,5.2698,5.2698,5.2452,5.1836,5.2359,5.2452,5.1836,5.2452,5.279,5.279,5.279,5.279,5.279,5.2729,5.2698,5.2698,5.2698,5.2698,5.2698,5.2698,5.2698,5.2698,5.2698,5.2698,5.2667,5.2052,5.2144,5.2637,5.2021,5.2175,5.2698,5.2698,5.2698,5.2698,6.4888,6.4888,6.4888,6.4888,6.4888,6.4888,6.4888,6.4888,6.4703,6.4118,6.4057,6.3995,6.3841,6.3964,6.3872,6.3441,6.2271,6.1071,5.987,5.9778,5.9778,5.9778,5.9131,5.8577,5.8116,5.6792,5.5438,5.4037,5.3637,5.3006,5.2021,5.1128,5.0266,4.9435,4.8881,4.8604,4.8604,4.8604,4.8604,4.8604,4.8604,4.8604,4.8604,4.8604,4.8604,4.8604,4.8604,4.8604,4.8604,4.8604,4.8604,4.8604,4.8604,4.9004,4.9497,4.9651,5.0051,5.0636,5.1313,5.1498,5.1621,5.2144,5.2267,5.2144,5.159,5.1498,5.1682,5.2359,5.2483,5.2483,5.2483,5.2483,5.2452,5.2298,5.2267,5.2329,5.2483,5.2483,5.2544,5.2698,5.2698,5.2698,5.2698,5.2698,5.2637,5.2513,5.2637,5.2637,5.2513,5.3129,5.3498,5.3498,5.3498,5.3498,5.3498,5.2975,5.2698,5.2698,5.2698,5.2698,5.2698,5.2698,5.2698,5.2698,5.2698,5.2698,5.2698,5.2544,5.2575,5.2698,5.2544,5.2575,5.2698,5.2698,5.2698,5.2698,6.4888,6.4888,6.4888,6.4888,6.4888,6.4764,6.4426,6.4395,6.4149,6.3441,6.3349,6.3472,6.3779,6.3841,6.3564,6.2918,6.1933,6.0886,5.987,5.9778,5.9932,6.024,5.9624,5.9255,5.9255,5.8577,5.7223,5.5191,5.4206,5.3375,5.2698,5.1652,5.082,5.0143,4.9774,4.9589,4.9589,4.9589,4.9435,4.9127,4.9127,4.8912,4.8666,4.9004,4.9127,4.9158,4.9497,4.9404,4.9066,4.8727,4.8604,4.8666,4.9004,4.9374,4.9805,5.0451,5.0882,5.1313,5.199,5.2175,5.2267,5.2637,5.2698,5.2637,5.2267,5.2175,5.2298,5.2637,5.2698,5.2698,5.2698,5.2698,5.2698,5.2698,5.2698,5.2698,5.2698,5.2698,5.2698,5.2698,5.2698,5.2698,5.2698,5.2698,5.2852,5.316,5.3191,5.3345,5.3652,5.3976,5.4052,5.3745,5.3714,5.356,5.3252,5.2883,5.2698,5.2698,5.2698,5.2698,5.2698,5.2698,5.2698,5.2698,5.2698,5.2698,5.2698,5.2698,5.2698,5.2698,5.2698,5.2698,5.2698,5.2698,5.2698,5.2698,6.4888,6.4795,6.4764,6.4888,6.4795,6.4549,6.4087,6.3903,6.3595,6.2918,6.2825,6.2979,6.3441,6.3595,6.3256,6.224,6.1532,6.0855,6.0178,6.0024,6.0209,6.0763,6.0147,5.9839,5.9963,5.9839,5.8516,5.5869,5.4668,5.3652,5.2852,5.2082,5.1405,5.0851,5.0759,5.0697,5.0697,5.0697,5.0359,4.9866,4.9866,4.9435,4.8881,4.9589,4.9774,4.9774,5.0451,5.0328,4.9774,4.9158,4.8974,4.9066,4.9682,4.9928,5.0266,5.1374,5.1775,5.2021,5.2698,5.2883,5.2914,5.3037,5.2975,5.2914,5.3037,5.2883,5.2698,5.2698,5.2698,5.2698,5.2698,5.279,5.2852,5.2729,5.2821,5.2852,5.2729,5.2698,5.276,5.2883,5.2975,5.3067,5.3067,5.3067,5.3283,5.3837,5.3853,5.4037,5.4498,5.4745,5.4529,5.3899,5.3853,5.3622,5.3067,5.2821,5.2698,5.2698,5.2698,5.2698,5.2698,5.2698,5.2698,5.2698,5.2698,5.2698,5.2698,5.2698,5.2698,5.2698,5.2698,5.2698,5.2698,5.2698,5.2698,5.2698,6.4888,6.4395,6.418,6.4795,6.4395,6.4149,6.4672,6.4241,6.3595,6.2918,6.2825,6.2641,6.2148,6.261,6.3133,6.3448,6.2948,6.224,6.1563,6.0978,6.0701,6.0794,6.0147,6.0055,6.064,6.0086,5.8762,5.6656,5.5807,5.4791,5.356,5.2298,5.1652,5.1528,5.0944,5.0697,5.0697,5.0697,5.0636,5.0543,5.0543,5.0143,4.962,5.0297,5.0205,4.9774,5.0451,5.0636,5.0543,5.0451,5.042,5.042,5.0513,5.0944,5.1467,5.1652,5.2113,5.2729,5.3406,5.3591,5.3714,5.4252,5.3976,5.3745,5.4283,5.3514,5.2698,5.2698,5.2698,5.2698,5.2698,5.3191,5.3375,5.2821,5.3221,5.3375,5.279,5.2698,5.2944,5.3529,5.4068,5.4406,5.4406,5.4406,5.4437,5.4529,5.4529,5.4345,5.3853,5.4945,5.5253,5.456,5.4529,5.4498,5.4406,5.3283,5.2698,5.2698,5.2698,5.2698,5.2698,5.2698,5.2698,5.2698,5.2698,5.2698,5.2698,5.2698,5.2698,5.2698,5.2698,5.2698,5.2698,5.2698,5.2698,5.2698,6.4888,6.4641,6.4518,6.4826,6.4641,6.4272,6.381,6.3472,6.2887,6.184,6.1686,6.1871,6.2333,6.2979,6.3502,6.3756,6.3195,6.2702,6.2394,6.1748,6.1532,6.1902,6.0917,6.0671,6.1348,6.0701,5.9716,5.8454,5.7008,5.5807,5.4775,5.3422,5.2637,5.2267,5.1959,5.1836,5.1836,5.1836,5.159,5.1251,5.1251,5.0851,5.0328,5.1005,5.1067,5.0851,5.1159,5.1251,5.119,5.082,5.0697,5.0759,5.1128,5.1713,5.2329,5.2729,5.3314,5.3853,5.416,5.4252,5.4406,5.5099,5.5037,5.4884,5.5191,5.4791,5.4268,5.3899,5.3837,5.3837,5.3837,5.4037,5.4129,5.3899,5.4083,5.4176,5.3853,5.3837,5.396,5.4191,5.4498,5.4683,5.4683,5.4683,5.4837,5.5253,5.5253,5.5315,5.5407,5.5961,5.5961,5.5284,5.5253,5.4914,5.4129,5.356,5.3098,5.2698,5.3098,5.3067,5.2698,5.2698,5.2698,5.2698,5.2698,5.2698,5.2698,5.2698,5.2698,5.2698,5.2698,5.2698,5.2698,5.2698,5.2698,5.2698]}]]